<?xml version="1.0" encoding="UTF-8" standalone="no" ?>
<gpx xmlns="http://www.topografix.com/GPX/1/1" xmlns:xsi="http://www.w3.org/2001/XMLSchema-instance" xsi:schemaLocation="http://www.topografix.com/GPX/1/1 http://www.topografix.com/GPX/1/1/gpx.xsd" version="1.1" creator="VisuGPX - https://www.visugpx.com">
  <metadata>
    <name>Petite chaurionde</name>
    <desc><![CDATA[petite chaurionde et col de margeval]]></desc>
  </metadata>
  <trk>
    <name><![CDATA[petite chaurionde]]></name>
    <desc><![CDATA[avec micka et mat]]></desc>
    <trkseg>
      <trkpt lat="45.71335" lon="6.27381">
        <ele>1162.8000488281</ele>
        <time>2013-01-07T08:32:36.000Z</time>
      </trkpt>
      <trkpt lat="45.71336" lon="6.27373">
        <ele>1163.1999511719</ele>
        <time>2013-01-07T08:32:40.000Z</time>
      </trkpt>
      <trkpt lat="45.71336" lon="6.27363">
        <ele>1163.1999511719</ele>
        <time>2013-01-07T08:32:45.000Z</time>
      </trkpt>
      <trkpt lat="45.71337" lon="6.27356">
        <ele>1163.1999511719</ele>
        <time>2013-01-07T08:32:50.000Z</time>
      </trkpt>
      <trkpt lat="45.7134" lon="6.27349">
        <ele>1164.1999511719</ele>
        <time>2013-01-07T08:32:55.000Z</time>
      </trkpt>
      <trkpt lat="45.71341" lon="6.27338">
        <ele>1165.5999755859</ele>
        <time>2013-01-07T08:33:03.000Z</time>
      </trkpt>
      <trkpt lat="45.71341" lon="6.27332">
        <ele>1166.5999755859</ele>
        <time>2013-01-07T08:33:07.000Z</time>
      </trkpt>
      <trkpt lat="45.71339" lon="6.27322">
        <ele>1168</ele>
        <time>2013-01-07T08:33:13.000Z</time>
      </trkpt>
      <trkpt lat="45.71338" lon="6.27311">
        <ele>1167.5999755859</ele>
        <time>2013-01-07T08:33:20.000Z</time>
      </trkpt>
      <trkpt lat="45.7134" lon="6.27303">
        <ele>1168.5999755859</ele>
        <time>2013-01-07T08:33:26.000Z</time>
      </trkpt>
      <trkpt lat="45.7134" lon="6.273">
        <ele>1169</ele>
        <time>2013-01-07T08:33:28.000Z</time>
      </trkpt>
      <trkpt lat="45.71339" lon="6.27289">
        <ele>1170</ele>
        <time>2013-01-07T08:33:35.000Z</time>
      </trkpt>
      <trkpt lat="45.71336" lon="6.27281">
        <ele>1172.8000488281</ele>
        <time>2013-01-07T08:33:40.000Z</time>
      </trkpt>
      <trkpt lat="45.71336" lon="6.27279">
        <ele>1172.8000488281</ele>
        <time>2013-01-07T08:33:41.000Z</time>
      </trkpt>
      <trkpt lat="45.71331" lon="6.27267">
        <ele>1174.8000488281</ele>
        <time>2013-01-07T08:33:49.000Z</time>
      </trkpt>
      <trkpt lat="45.7133" lon="6.27265">
        <ele>1174.8000488281</ele>
        <time>2013-01-07T08:33:51.000Z</time>
      </trkpt>
      <trkpt lat="45.71328" lon="6.27261">
        <ele>1174.8000488281</ele>
        <time>2013-01-07T08:33:55.000Z</time>
      </trkpt>
      <trkpt lat="45.71323" lon="6.27251">
        <ele>1177.1999511719</ele>
        <time>2013-01-07T08:34:02.000Z</time>
      </trkpt>
      <trkpt lat="45.71321" lon="6.27245">
        <ele>1178.5999755859</ele>
        <time>2013-01-07T08:34:07.000Z</time>
      </trkpt>
      <trkpt lat="45.71318" lon="6.27237">
        <ele>1180</ele>
        <time>2013-01-07T08:34:13.000Z</time>
      </trkpt>
      <trkpt lat="45.71317" lon="6.27236">
        <ele>1180</ele>
        <time>2013-01-07T08:34:14.000Z</time>
      </trkpt>
      <trkpt lat="45.71313" lon="6.27229">
        <ele>1180</ele>
        <time>2013-01-07T08:34:20.000Z</time>
      </trkpt>
      <trkpt lat="45.71313" lon="6.27228">
        <ele>1180</ele>
        <time>2013-01-07T08:34:21.000Z</time>
      </trkpt>
      <trkpt lat="45.71308" lon="6.27222">
        <ele>1182</ele>
        <time>2013-01-07T08:34:28.000Z</time>
      </trkpt>
      <trkpt lat="45.71303" lon="6.27215">
        <ele>1183.4000244141</ele>
        <time>2013-01-07T08:34:35.000Z</time>
      </trkpt>
      <trkpt lat="45.713" lon="6.27209">
        <ele>1184.4000244141</ele>
        <time>2013-01-07T08:34:40.000Z</time>
      </trkpt>
      <trkpt lat="45.71294" lon="6.27202">
        <ele>1185.4000244141</ele>
        <time>2013-01-07T08:34:47.000Z</time>
      </trkpt>
      <trkpt lat="45.7129" lon="6.27198">
        <ele>1184.8000488281</ele>
        <time>2013-01-07T08:34:52.000Z</time>
      </trkpt>
      <trkpt lat="45.71284" lon="6.27193">
        <ele>1185.4000244141</ele>
        <time>2013-01-07T08:34:57.000Z</time>
      </trkpt>
      <trkpt lat="45.71283" lon="6.27191">
        <ele>1185.4000244141</ele>
        <time>2013-01-07T08:34:58.000Z</time>
      </trkpt>
      <trkpt lat="45.71277" lon="6.27187">
        <ele>1185.8000488281</ele>
        <time>2013-01-07T08:35:03.000Z</time>
      </trkpt>
      <trkpt lat="45.71271" lon="6.27182">
        <ele>1186.4000244141</ele>
        <time>2013-01-07T08:35:09.000Z</time>
      </trkpt>
      <trkpt lat="45.71265" lon="6.27177">
        <ele>1186.4000244141</ele>
        <time>2013-01-07T08:35:14.000Z</time>
      </trkpt>
      <trkpt lat="45.71259" lon="6.27173">
        <ele>1186.8000488281</ele>
        <time>2013-01-07T08:35:20.000Z</time>
      </trkpt>
      <trkpt lat="45.71252" lon="6.27166">
        <ele>1188.1999511719</ele>
        <time>2013-01-07T08:35:27.000Z</time>
      </trkpt>
      <trkpt lat="45.71247" lon="6.27162">
        <ele>1189.1999511719</ele>
        <time>2013-01-07T08:35:32.000Z</time>
      </trkpt>
      <trkpt lat="45.71244" lon="6.27159">
        <ele>1190.1999511719</ele>
        <time>2013-01-07T08:35:35.000Z</time>
      </trkpt>
      <trkpt lat="45.71239" lon="6.27158">
        <ele>1190.5999755859</ele>
        <time>2013-01-07T08:35:39.000Z</time>
      </trkpt>
      <trkpt lat="45.71233" lon="6.27153">
        <ele>1192</ele>
        <time>2013-01-07T08:35:45.000Z</time>
      </trkpt>
      <trkpt lat="45.71226" lon="6.27148">
        <ele>1195</ele>
        <time>2013-01-07T08:35:53.000Z</time>
      </trkpt>
      <trkpt lat="45.7122" lon="6.27147">
        <ele>1196.8000488281</ele>
        <time>2013-01-07T08:35:59.000Z</time>
      </trkpt>
      <trkpt lat="45.71213" lon="6.27148">
        <ele>1199.8000488281</ele>
        <time>2013-01-07T08:36:06.000Z</time>
      </trkpt>
      <trkpt lat="45.71206" lon="6.27151">
        <ele>1200.8000488281</ele>
        <time>2013-01-07T08:36:12.000Z</time>
      </trkpt>
      <trkpt lat="45.71202" lon="6.2715">
        <ele>1202.1999511719</ele>
        <time>2013-01-07T08:36:17.000Z</time>
      </trkpt>
      <trkpt lat="45.71196" lon="6.27147">
        <ele>1203.1999511719</ele>
        <time>2013-01-07T08:36:23.000Z</time>
      </trkpt>
      <trkpt lat="45.71193" lon="6.27144">
        <ele>1204</ele>
        <time>2013-01-07T08:36:28.000Z</time>
      </trkpt>
      <trkpt lat="45.71187" lon="6.27141">
        <ele>1205.5999755859</ele>
        <time>2013-01-07T08:36:33.000Z</time>
      </trkpt>
      <trkpt lat="45.71182" lon="6.2714">
        <ele>1206.4000244141</ele>
        <time>2013-01-07T08:36:38.000Z</time>
      </trkpt>
      <trkpt lat="45.71174" lon="6.27138">
        <ele>1208.4000244141</ele>
        <time>2013-01-07T08:36:46.000Z</time>
      </trkpt>
      <trkpt lat="45.71168" lon="6.27136">
        <ele>1208.4000244141</ele>
        <time>2013-01-07T08:36:52.000Z</time>
      </trkpt>
      <trkpt lat="45.71162" lon="6.27134">
        <ele>1209.4000244141</ele>
        <time>2013-01-07T08:36:58.000Z</time>
      </trkpt>
      <trkpt lat="45.71158" lon="6.27133">
        <ele>1210.4000244141</ele>
        <time>2013-01-07T08:37:03.000Z</time>
      </trkpt>
      <trkpt lat="45.71154" lon="6.27132">
        <ele>1211.1999511719</ele>
        <time>2013-01-07T08:37:07.000Z</time>
      </trkpt>
      <trkpt lat="45.71147" lon="6.27129">
        <ele>1212.8000488281</ele>
        <time>2013-01-07T08:37:13.000Z</time>
      </trkpt>
      <trkpt lat="45.71145" lon="6.27129">
        <ele>1213.8000488281</ele>
        <time>2013-01-07T08:37:16.000Z</time>
      </trkpt>
      <trkpt lat="45.71137" lon="6.27128">
        <ele>1216.1999511719</ele>
        <time>2013-01-07T08:37:22.000Z</time>
      </trkpt>
      <trkpt lat="45.71136" lon="6.27128">
        <ele>1215.5999755859</ele>
        <time>2013-01-07T08:37:24.000Z</time>
      </trkpt>
      <trkpt lat="45.71129" lon="6.27128">
        <ele>1214.5999755859</ele>
        <time>2013-01-07T08:37:29.000Z</time>
      </trkpt>
      <trkpt lat="45.71127" lon="6.27127">
        <ele>1215.1999511719</ele>
        <time>2013-01-07T08:37:31.000Z</time>
      </trkpt>
      <trkpt lat="45.7112" lon="6.27125">
        <ele>1216.5999755859</ele>
        <time>2013-01-07T08:37:39.000Z</time>
      </trkpt>
      <trkpt lat="45.71116" lon="6.27125">
        <ele>1217.5999755859</ele>
        <time>2013-01-07T08:37:43.000Z</time>
      </trkpt>
      <trkpt lat="45.71113" lon="6.27123">
        <ele>1217.5999755859</ele>
        <time>2013-01-07T08:37:46.000Z</time>
      </trkpt>
      <trkpt lat="45.7111" lon="6.27121">
        <ele>1219</ele>
        <time>2013-01-07T08:37:50.000Z</time>
      </trkpt>
      <trkpt lat="45.71105" lon="6.27119">
        <ele>1220</ele>
        <time>2013-01-07T08:37:56.000Z</time>
      </trkpt>
      <trkpt lat="45.71102" lon="6.27119">
        <ele>1218.5999755859</ele>
        <time>2013-01-07T08:38:01.000Z</time>
      </trkpt>
      <trkpt lat="45.71096" lon="6.27114">
        <ele>1219</ele>
        <time>2013-01-07T08:38:09.000Z</time>
      </trkpt>
      <trkpt lat="45.71094" lon="6.27113">
        <ele>1220</ele>
        <time>2013-01-07T08:38:14.000Z</time>
      </trkpt>
      <trkpt lat="45.71093" lon="6.27112">
        <ele>1220</ele>
        <time>2013-01-07T08:38:21.000Z</time>
      </trkpt>
      <trkpt lat="45.71091" lon="6.2711">
        <ele>1220</ele>
        <time>2013-01-07T08:38:29.000Z</time>
      </trkpt>
      <trkpt lat="45.71089" lon="6.27109">
        <ele>1221.8000488281</ele>
        <time>2013-01-07T08:38:33.000Z</time>
      </trkpt>
      <trkpt lat="45.71086" lon="6.27111">
        <ele>1226.1999511719</ele>
        <time>2013-01-07T08:38:41.000Z</time>
      </trkpt>
      <trkpt lat="45.71082" lon="6.27111">
        <ele>1226.1999511719</ele>
        <time>2013-01-07T08:38:46.000Z</time>
      </trkpt>
      <trkpt lat="45.71077" lon="6.27108">
        <ele>1227.1999511719</ele>
        <time>2013-01-07T08:38:53.000Z</time>
      </trkpt>
      <trkpt lat="45.71073" lon="6.27105">
        <ele>1228.1999511719</ele>
        <time>2013-01-07T08:38:59.000Z</time>
      </trkpt>
      <trkpt lat="45.71068" lon="6.271">
        <ele>1226.5999755859</ele>
        <time>2013-01-07T08:39:05.000Z</time>
      </trkpt>
      <trkpt lat="45.71066" lon="6.27098">
        <ele>1225.8000488281</ele>
        <time>2013-01-07T08:39:09.000Z</time>
      </trkpt>
      <trkpt lat="45.71061" lon="6.27097">
        <ele>1226.5999755859</ele>
        <time>2013-01-07T08:39:14.000Z</time>
      </trkpt>
      <trkpt lat="45.71056" lon="6.27091">
        <ele>1227.1999511719</ele>
        <time>2013-01-07T08:39:21.000Z</time>
      </trkpt>
      <trkpt lat="45.71052" lon="6.27089">
        <ele>1226.5999755859</ele>
        <time>2013-01-07T08:39:25.000Z</time>
      </trkpt>
      <trkpt lat="45.71047" lon="6.27088">
        <ele>1227.5999755859</ele>
        <time>2013-01-07T08:39:30.000Z</time>
      </trkpt>
      <trkpt lat="45.71041" lon="6.27084">
        <ele>1229.5999755859</ele>
        <time>2013-01-07T08:39:37.000Z</time>
      </trkpt>
      <trkpt lat="45.71035" lon="6.27081">
        <ele>1230</ele>
        <time>2013-01-07T08:39:42.000Z</time>
      </trkpt>
      <trkpt lat="45.71028" lon="6.27074">
        <ele>1229</ele>
        <time>2013-01-07T08:39:51.000Z</time>
      </trkpt>
      <trkpt lat="45.71024" lon="6.27072">
        <ele>1230.5999755859</ele>
        <time>2013-01-07T08:39:56.000Z</time>
      </trkpt>
      <trkpt lat="45.71019" lon="6.27068">
        <ele>1232</ele>
        <time>2013-01-07T08:40:01.000Z</time>
      </trkpt>
      <trkpt lat="45.71012" lon="6.27063">
        <ele>1234.4000244141</ele>
        <time>2013-01-07T08:40:06.000Z</time>
      </trkpt>
      <trkpt lat="45.71008" lon="6.27061">
        <ele>1235.8000488281</ele>
        <time>2013-01-07T08:40:10.000Z</time>
      </trkpt>
      <trkpt lat="45.71003" lon="6.27059">
        <ele>1235.8000488281</ele>
        <time>2013-01-07T08:40:15.000Z</time>
      </trkpt>
      <trkpt lat="45.70999" lon="6.27056">
        <ele>1236.1999511719</ele>
        <time>2013-01-07T08:40:20.000Z</time>
      </trkpt>
      <trkpt lat="45.70993" lon="6.27051">
        <ele>1236.1999511719</ele>
        <time>2013-01-07T08:40:27.000Z</time>
      </trkpt>
      <trkpt lat="45.70989" lon="6.27048">
        <ele>1237.8000488281</ele>
        <time>2013-01-07T08:40:31.000Z</time>
      </trkpt>
      <trkpt lat="45.70985" lon="6.27045">
        <ele>1237.8000488281</ele>
        <time>2013-01-07T08:40:35.000Z</time>
      </trkpt>
      <trkpt lat="45.70981" lon="6.27041">
        <ele>1238.1999511719</ele>
        <time>2013-01-07T08:40:39.000Z</time>
      </trkpt>
      <trkpt lat="45.70976" lon="6.27036">
        <ele>1238.5999755859</ele>
        <time>2013-01-07T08:40:44.000Z</time>
      </trkpt>
      <trkpt lat="45.70973" lon="6.27032">
        <ele>1238.1999511719</ele>
        <time>2013-01-07T08:40:48.000Z</time>
      </trkpt>
      <trkpt lat="45.70967" lon="6.27026">
        <ele>1240.5999755859</ele>
        <time>2013-01-07T08:40:53.000Z</time>
      </trkpt>
      <trkpt lat="45.7096" lon="6.27023">
        <ele>1239.1999511719</ele>
        <time>2013-01-07T08:40:58.000Z</time>
      </trkpt>
      <trkpt lat="45.70957" lon="6.27019">
        <ele>1240.1999511719</ele>
        <time>2013-01-07T08:41:02.000Z</time>
      </trkpt>
      <trkpt lat="45.70953" lon="6.27016">
        <ele>1241</ele>
        <time>2013-01-07T08:41:05.000Z</time>
      </trkpt>
      <trkpt lat="45.70947" lon="6.2701">
        <ele>1242</ele>
        <time>2013-01-07T08:41:12.000Z</time>
      </trkpt>
      <trkpt lat="45.7094" lon="6.27006">
        <ele>1242</ele>
        <time>2013-01-07T08:41:18.000Z</time>
      </trkpt>
      <trkpt lat="45.70936" lon="6.27002">
        <ele>1243.5999755859</ele>
        <time>2013-01-07T08:41:23.000Z</time>
      </trkpt>
      <trkpt lat="45.70931" lon="6.26999">
        <ele>1245</ele>
        <time>2013-01-07T08:41:27.000Z</time>
      </trkpt>
      <trkpt lat="45.70926" lon="6.26992">
        <ele>1246.4000244141</ele>
        <time>2013-01-07T08:41:34.000Z</time>
      </trkpt>
      <trkpt lat="45.70922" lon="6.26986">
        <ele>1247.8000488281</ele>
        <time>2013-01-07T08:41:40.000Z</time>
      </trkpt>
      <trkpt lat="45.70918" lon="6.2698">
        <ele>1249.1999511719</ele>
        <time>2013-01-07T08:41:45.000Z</time>
      </trkpt>
      <trkpt lat="45.70915" lon="6.26978">
        <ele>1249.8000488281</ele>
        <time>2013-01-07T08:41:47.000Z</time>
      </trkpt>
      <trkpt lat="45.70911" lon="6.26973">
        <ele>1251.5999755859</ele>
        <time>2013-01-07T08:41:52.000Z</time>
      </trkpt>
      <trkpt lat="45.70909" lon="6.26972">
        <ele>1251.5999755859</ele>
        <time>2013-01-07T08:41:53.000Z</time>
      </trkpt>
      <trkpt lat="45.70901" lon="6.26965">
        <ele>1252.1999511719</ele>
        <time>2013-01-07T08:41:59.000Z</time>
      </trkpt>
      <trkpt lat="45.70898" lon="6.26964">
        <ele>1252.1999511719</ele>
        <time>2013-01-07T08:42:02.000Z</time>
      </trkpt>
      <trkpt lat="45.7089" lon="6.26963">
        <ele>1253.1999511719</ele>
        <time>2013-01-07T08:42:07.000Z</time>
      </trkpt>
      <trkpt lat="45.70886" lon="6.26963">
        <ele>1253.1999511719</ele>
        <time>2013-01-07T08:42:11.000Z</time>
      </trkpt>
      <trkpt lat="45.7088" lon="6.26962">
        <ele>1253.1999511719</ele>
        <time>2013-01-07T08:42:14.000Z</time>
      </trkpt>
      <trkpt lat="45.70876" lon="6.2696">
        <ele>1253.5999755859</ele>
        <time>2013-01-07T08:42:16.000Z</time>
      </trkpt>
      <trkpt lat="45.70871" lon="6.2696">
        <ele>1253.1999511719</ele>
        <time>2013-01-07T08:42:21.000Z</time>
      </trkpt>
      <trkpt lat="45.70863" lon="6.2696">
        <ele>1251.5999755859</ele>
        <time>2013-01-07T08:42:26.000Z</time>
      </trkpt>
      <trkpt lat="45.70857" lon="6.2696">
        <ele>1251.1999511719</ele>
        <time>2013-01-07T08:42:29.000Z</time>
      </trkpt>
      <trkpt lat="45.70849" lon="6.26957">
        <ele>1252.5999755859</ele>
        <time>2013-01-07T08:42:33.000Z</time>
      </trkpt>
      <trkpt lat="45.70846" lon="6.26959">
        <ele>1251.5999755859</ele>
        <time>2013-01-07T08:42:38.000Z</time>
      </trkpt>
      <trkpt lat="45.70843" lon="6.2696">
        <ele>1249.8000488281</ele>
        <time>2013-01-07T08:42:42.000Z</time>
      </trkpt>
      <trkpt lat="45.70838" lon="6.2696">
        <ele>1250.1999511719</ele>
        <time>2013-01-07T08:42:49.000Z</time>
      </trkpt>
      <trkpt lat="45.70834" lon="6.26959">
        <ele>1250.1999511719</ele>
        <time>2013-01-07T08:42:55.000Z</time>
      </trkpt>
      <trkpt lat="45.70831" lon="6.26955">
        <ele>1250.8000488281</ele>
        <time>2013-01-07T08:43:00.000Z</time>
      </trkpt>
      <trkpt lat="45.70831" lon="6.26949">
        <ele>1252.1999511719</ele>
        <time>2013-01-07T08:43:06.000Z</time>
      </trkpt>
      <trkpt lat="45.7083" lon="6.26944">
        <ele>1253.5999755859</ele>
        <time>2013-01-07T08:43:11.000Z</time>
      </trkpt>
      <trkpt lat="45.7083" lon="6.26938">
        <ele>1254.5999755859</ele>
        <time>2013-01-07T08:43:17.000Z</time>
      </trkpt>
      <trkpt lat="45.70828" lon="6.26933">
        <ele>1256</ele>
        <time>2013-01-07T08:43:22.000Z</time>
      </trkpt>
      <trkpt lat="45.70827" lon="6.26927">
        <ele>1256</ele>
        <time>2013-01-07T08:43:28.000Z</time>
      </trkpt>
      <trkpt lat="45.70822" lon="6.26924">
        <ele>1257</ele>
        <time>2013-01-07T08:43:32.000Z</time>
      </trkpt>
      <trkpt lat="45.70816" lon="6.2692">
        <ele>1258</ele>
        <time>2013-01-07T08:43:37.000Z</time>
      </trkpt>
      <trkpt lat="45.7081" lon="6.26913">
        <ele>1258.8000488281</ele>
        <time>2013-01-07T08:43:43.000Z</time>
      </trkpt>
      <trkpt lat="45.70808" lon="6.26911">
        <ele>1260.4000244141</ele>
        <time>2013-01-07T08:43:47.000Z</time>
      </trkpt>
      <trkpt lat="45.70805" lon="6.26906">
        <ele>1261.8000488281</ele>
        <time>2013-01-07T08:43:52.000Z</time>
      </trkpt>
      <trkpt lat="45.70802" lon="6.26899">
        <ele>1261.8000488281</ele>
        <time>2013-01-07T08:43:57.000Z</time>
      </trkpt>
      <trkpt lat="45.70799" lon="6.26895">
        <ele>1261.8000488281</ele>
        <time>2013-01-07T08:44:00.000Z</time>
      </trkpt>
      <trkpt lat="45.70794" lon="6.26891">
        <ele>1266.5999755859</ele>
        <time>2013-01-07T08:44:04.000Z</time>
      </trkpt>
      <trkpt lat="45.7079" lon="6.26887">
        <ele>1267</ele>
        <time>2013-01-07T08:44:10.000Z</time>
      </trkpt>
      <trkpt lat="45.70784" lon="6.2688">
        <ele>1268.4000244141</ele>
        <time>2013-01-07T08:44:17.000Z</time>
      </trkpt>
      <trkpt lat="45.7078" lon="6.26875">
        <ele>1267.5999755859</ele>
        <time>2013-01-07T08:44:22.000Z</time>
      </trkpt>
      <trkpt lat="45.70777" lon="6.26869">
        <ele>1268</ele>
        <time>2013-01-07T08:44:28.000Z</time>
      </trkpt>
      <trkpt lat="45.70772" lon="6.2686">
        <ele>1267</ele>
        <time>2013-01-07T08:44:34.000Z</time>
      </trkpt>
      <trkpt lat="45.70772" lon="6.26859">
        <ele>1266.5999755859</ele>
        <time>2013-01-07T08:44:35.000Z</time>
      </trkpt>
      <trkpt lat="45.70772" lon="6.26855">
        <ele>1267.5999755859</ele>
        <time>2013-01-07T08:44:38.000Z</time>
      </trkpt>
      <trkpt lat="45.70767" lon="6.26846">
        <ele>1270</ele>
        <time>2013-01-07T08:44:44.000Z</time>
      </trkpt>
      <trkpt lat="45.70763" lon="6.26842">
        <ele>1271</ele>
        <time>2013-01-07T08:44:47.000Z</time>
      </trkpt>
      <trkpt lat="45.70761" lon="6.26835">
        <ele>1271</ele>
        <time>2013-01-07T08:44:52.000Z</time>
      </trkpt>
      <trkpt lat="45.70759" lon="6.2683">
        <ele>1271.4000244141</ele>
        <time>2013-01-07T08:44:55.000Z</time>
      </trkpt>
      <trkpt lat="45.70755" lon="6.26823">
        <ele>1271.4000244141</ele>
        <time>2013-01-07T08:45:00.000Z</time>
      </trkpt>
      <trkpt lat="45.70751" lon="6.26818">
        <ele>1271</ele>
        <time>2013-01-07T08:45:03.000Z</time>
      </trkpt>
      <trkpt lat="45.70748" lon="6.26812">
        <ele>1270</ele>
        <time>2013-01-07T08:45:07.000Z</time>
      </trkpt>
      <trkpt lat="45.70743" lon="6.26805">
        <ele>1269</ele>
        <time>2013-01-07T08:45:12.000Z</time>
      </trkpt>
      <trkpt lat="45.70742" lon="6.26801">
        <ele>1271.4000244141</ele>
        <time>2013-01-07T08:45:15.000Z</time>
      </trkpt>
      <trkpt lat="45.70739" lon="6.26794">
        <ele>1273.8000488281</ele>
        <time>2013-01-07T08:45:20.000Z</time>
      </trkpt>
      <trkpt lat="45.70738" lon="6.26791">
        <ele>1275.1999511719</ele>
        <time>2013-01-07T08:45:22.000Z</time>
      </trkpt>
      <trkpt lat="45.70736" lon="6.26782">
        <ele>1277.5999755859</ele>
        <time>2013-01-07T08:45:28.000Z</time>
      </trkpt>
      <trkpt lat="45.70734" lon="6.26775">
        <ele>1278.1999511719</ele>
        <time>2013-01-07T08:45:32.000Z</time>
      </trkpt>
      <trkpt lat="45.70732" lon="6.2677">
        <ele>1278.5999755859</ele>
        <time>2013-01-07T08:45:34.000Z</time>
      </trkpt>
      <trkpt lat="45.70725" lon="6.26762">
        <ele>1279</ele>
        <time>2013-01-07T08:45:39.000Z</time>
      </trkpt>
      <trkpt lat="45.70717" lon="6.26757">
        <ele>1280</ele>
        <time>2013-01-07T08:45:44.000Z</time>
      </trkpt>
      <trkpt lat="45.70714" lon="6.26755">
        <ele>1280</ele>
        <time>2013-01-07T08:45:46.000Z</time>
      </trkpt>
      <trkpt lat="45.70706" lon="6.26751">
        <ele>1279.5999755859</ele>
        <time>2013-01-07T08:45:50.000Z</time>
      </trkpt>
      <trkpt lat="45.70698" lon="6.26748">
        <ele>1277.5999755859</ele>
        <time>2013-01-07T08:45:55.000Z</time>
      </trkpt>
      <trkpt lat="45.70692" lon="6.26742">
        <ele>1277.1999511719</ele>
        <time>2013-01-07T08:46:00.000Z</time>
      </trkpt>
      <trkpt lat="45.70687" lon="6.26734">
        <ele>1278.1999511719</ele>
        <time>2013-01-07T08:46:07.000Z</time>
      </trkpt>
      <trkpt lat="45.70683" lon="6.26727">
        <ele>1277.1999511719</ele>
        <time>2013-01-07T08:46:13.000Z</time>
      </trkpt>
      <trkpt lat="45.7068" lon="6.26723">
        <ele>1278.1999511719</ele>
        <time>2013-01-07T08:46:17.000Z</time>
      </trkpt>
      <trkpt lat="45.70676" lon="6.26717">
        <ele>1279</ele>
        <time>2013-01-07T08:46:23.000Z</time>
      </trkpt>
      <trkpt lat="45.70673" lon="6.26712">
        <ele>1278.5999755859</ele>
        <time>2013-01-07T08:46:27.000Z</time>
      </trkpt>
      <trkpt lat="45.70672" lon="6.26709">
        <ele>1278.1999511719</ele>
        <time>2013-01-07T08:46:29.000Z</time>
      </trkpt>
      <trkpt lat="45.70673" lon="6.26707">
        <ele>1278.1999511719</ele>
        <time>2013-01-07T08:46:31.000Z</time>
      </trkpt>
      <trkpt lat="45.70671" lon="6.26698">
        <ele>1277.5999755859</ele>
        <time>2013-01-07T08:46:37.000Z</time>
      </trkpt>
      <trkpt lat="45.7067" lon="6.26696">
        <ele>1277.5999755859</ele>
        <time>2013-01-07T08:46:38.000Z</time>
      </trkpt>
      <trkpt lat="45.70669" lon="6.26692">
        <ele>1279</ele>
        <time>2013-01-07T08:46:41.000Z</time>
      </trkpt>
      <trkpt lat="45.70665" lon="6.26681">
        <ele>1283</ele>
        <time>2013-01-07T08:46:48.000Z</time>
      </trkpt>
      <trkpt lat="45.70665" lon="6.2668">
        <ele>1283.8000488281</ele>
        <time>2013-01-07T08:46:49.000Z</time>
      </trkpt>
      <trkpt lat="45.70663" lon="6.26677">
        <ele>1285.8000488281</ele>
        <time>2013-01-07T08:46:51.000Z</time>
      </trkpt>
      <trkpt lat="45.70659" lon="6.2667">
        <ele>1290.1999511719</ele>
        <time>2013-01-07T08:46:57.000Z</time>
      </trkpt>
      <trkpt lat="45.70654" lon="6.26661">
        <ele>1292.5999755859</ele>
        <time>2013-01-07T08:47:05.000Z</time>
      </trkpt>
      <trkpt lat="45.70651" lon="6.26656">
        <ele>1293.4000244141</ele>
        <time>2013-01-07T08:47:09.000Z</time>
      </trkpt>
      <trkpt lat="45.70646" lon="6.26649">
        <ele>1294.4000244141</ele>
        <time>2013-01-07T08:47:15.000Z</time>
      </trkpt>
      <trkpt lat="45.70642" lon="6.26644">
        <ele>1293.4000244141</ele>
        <time>2013-01-07T08:47:20.000Z</time>
      </trkpt>
      <trkpt lat="45.7064" lon="6.2664">
        <ele>1294</ele>
        <time>2013-01-07T08:47:23.000Z</time>
      </trkpt>
      <trkpt lat="45.70638" lon="6.26637">
        <ele>1295</ele>
        <time>2013-01-07T08:47:26.000Z</time>
      </trkpt>
      <trkpt lat="45.70635" lon="6.26634">
        <ele>1295.8000488281</ele>
        <time>2013-01-07T08:47:30.000Z</time>
      </trkpt>
      <trkpt lat="45.70631" lon="6.2663">
        <ele>1295.8000488281</ele>
        <time>2013-01-07T08:47:34.000Z</time>
      </trkpt>
      <trkpt lat="45.70627" lon="6.26624">
        <ele>1298.8000488281</ele>
        <time>2013-01-07T08:47:40.000Z</time>
      </trkpt>
      <trkpt lat="45.70624" lon="6.26622">
        <ele>1299.1999511719</ele>
        <time>2013-01-07T08:47:43.000Z</time>
      </trkpt>
      <trkpt lat="45.70619" lon="6.26616">
        <ele>1300.8000488281</ele>
        <time>2013-01-07T08:47:49.000Z</time>
      </trkpt>
      <trkpt lat="45.70618" lon="6.26615">
        <ele>1300.8000488281</ele>
        <time>2013-01-07T08:47:50.000Z</time>
      </trkpt>
      <trkpt lat="45.70614" lon="6.26607">
        <ele>1304.5999755859</ele>
        <time>2013-01-07T08:47:58.000Z</time>
      </trkpt>
      <trkpt lat="45.70613" lon="6.266">
        <ele>1307</ele>
        <time>2013-01-07T08:48:03.000Z</time>
      </trkpt>
      <trkpt lat="45.7061" lon="6.26593">
        <ele>1307</ele>
        <time>2013-01-07T08:48:09.000Z</time>
      </trkpt>
      <trkpt lat="45.70608" lon="6.26588">
        <ele>1308.8000488281</ele>
        <time>2013-01-07T08:48:14.000Z</time>
      </trkpt>
      <trkpt lat="45.70606" lon="6.26583">
        <ele>1309.4000244141</ele>
        <time>2013-01-07T08:48:18.000Z</time>
      </trkpt>
      <trkpt lat="45.70602" lon="6.26577">
        <ele>1310.4000244141</ele>
        <time>2013-01-07T08:48:23.000Z</time>
      </trkpt>
      <trkpt lat="45.70602" lon="6.26574">
        <ele>1310.4000244141</ele>
        <time>2013-01-07T08:48:27.000Z</time>
      </trkpt>
      <trkpt lat="45.70599" lon="6.26567">
        <ele>1311.8000488281</ele>
        <time>2013-01-07T08:48:32.000Z</time>
      </trkpt>
      <trkpt lat="45.70597" lon="6.26561">
        <ele>1314.1999511719</ele>
        <time>2013-01-07T08:48:37.000Z</time>
      </trkpt>
      <trkpt lat="45.70597" lon="6.2656">
        <ele>1315.1999511719</ele>
        <time>2013-01-07T08:48:38.000Z</time>
      </trkpt>
      <trkpt lat="45.70596" lon="6.26555">
        <ele>1316.5999755859</ele>
        <time>2013-01-07T08:48:42.000Z</time>
      </trkpt>
      <trkpt lat="45.70593" lon="6.2655">
        <ele>1319.4000244141</ele>
        <time>2013-01-07T08:48:47.000Z</time>
      </trkpt>
      <trkpt lat="45.70591" lon="6.26543">
        <ele>1320</ele>
        <time>2013-01-07T08:48:53.000Z</time>
      </trkpt>
      <trkpt lat="45.7059" lon="6.26537">
        <ele>1322.8000488281</ele>
        <time>2013-01-07T08:48:58.000Z</time>
      </trkpt>
      <trkpt lat="45.7059" lon="6.26531">
        <ele>1323.1999511719</ele>
        <time>2013-01-07T08:49:02.000Z</time>
      </trkpt>
      <trkpt lat="45.70588" lon="6.26527">
        <ele>1323.8000488281</ele>
        <time>2013-01-07T08:49:05.000Z</time>
      </trkpt>
      <trkpt lat="45.70588" lon="6.26522">
        <ele>1323.8000488281</ele>
        <time>2013-01-07T08:49:09.000Z</time>
      </trkpt>
      <trkpt lat="45.70587" lon="6.26516">
        <ele>1323.1999511719</ele>
        <time>2013-01-07T08:49:13.000Z</time>
      </trkpt>
      <trkpt lat="45.70585" lon="6.26511">
        <ele>1322.8000488281</ele>
        <time>2013-01-07T08:49:17.000Z</time>
      </trkpt>
      <trkpt lat="45.70584" lon="6.26506">
        <ele>1320.8000488281</ele>
        <time>2013-01-07T08:49:20.000Z</time>
      </trkpt>
      <trkpt lat="45.70582" lon="6.26499">
        <ele>1319</ele>
        <time>2013-01-07T08:49:25.000Z</time>
      </trkpt>
      <trkpt lat="45.7058" lon="6.26492">
        <ele>1317.5999755859</ele>
        <time>2013-01-07T08:49:29.000Z</time>
      </trkpt>
      <trkpt lat="45.70579" lon="6.26487">
        <ele>1319</ele>
        <time>2013-01-07T08:49:32.000Z</time>
      </trkpt>
      <trkpt lat="45.70578" lon="6.26478">
        <ele>1318</ele>
        <time>2013-01-07T08:49:37.000Z</time>
      </trkpt>
      <trkpt lat="45.70577" lon="6.26476">
        <ele>1319</ele>
        <time>2013-01-07T08:49:38.000Z</time>
      </trkpt>
      <trkpt lat="45.70575" lon="6.26471">
        <ele>1319.4000244141</ele>
        <time>2013-01-07T08:49:41.000Z</time>
      </trkpt>
      <trkpt lat="45.70575" lon="6.26466">
        <ele>1319.4000244141</ele>
        <time>2013-01-07T08:49:44.000Z</time>
      </trkpt>
      <trkpt lat="45.70572" lon="6.26459">
        <ele>1320</ele>
        <time>2013-01-07T08:49:48.000Z</time>
      </trkpt>
      <trkpt lat="45.70572" lon="6.26452">
        <ele>1322.8000488281</ele>
        <time>2013-01-07T08:49:54.000Z</time>
      </trkpt>
      <trkpt lat="45.70572" lon="6.26447">
        <ele>1323.8000488281</ele>
        <time>2013-01-07T08:49:58.000Z</time>
      </trkpt>
      <trkpt lat="45.7057" lon="6.26441">
        <ele>1324.1999511719</ele>
        <time>2013-01-07T08:50:03.000Z</time>
      </trkpt>
      <trkpt lat="45.7057" lon="6.26436">
        <ele>1326.1999511719</ele>
        <time>2013-01-07T08:50:08.000Z</time>
      </trkpt>
      <trkpt lat="45.70567" lon="6.26428">
        <ele>1326.5999755859</ele>
        <time>2013-01-07T08:50:14.000Z</time>
      </trkpt>
      <trkpt lat="45.70565" lon="6.2642">
        <ele>1327.5999755859</ele>
        <time>2013-01-07T08:50:20.000Z</time>
      </trkpt>
      <trkpt lat="45.70561" lon="6.26414">
        <ele>1329.5999755859</ele>
        <time>2013-01-07T08:50:26.000Z</time>
      </trkpt>
      <trkpt lat="45.70559" lon="6.26409">
        <ele>1331.4000244141</ele>
        <time>2013-01-07T08:50:31.000Z</time>
      </trkpt>
      <trkpt lat="45.70556" lon="6.26405">
        <ele>1334.4000244141</ele>
        <time>2013-01-07T08:50:35.000Z</time>
      </trkpt>
      <trkpt lat="45.70553" lon="6.264">
        <ele>1336.8000488281</ele>
        <time>2013-01-07T08:50:39.000Z</time>
      </trkpt>
      <trkpt lat="45.7055" lon="6.26394">
        <ele>1338.1999511719</ele>
        <time>2013-01-07T08:50:44.000Z</time>
      </trkpt>
      <trkpt lat="45.70549" lon="6.26392">
        <ele>1338.5999755859</ele>
        <time>2013-01-07T08:50:46.000Z</time>
      </trkpt>
      <trkpt lat="45.70544" lon="6.26384">
        <ele>1342</ele>
        <time>2013-01-07T08:50:53.000Z</time>
      </trkpt>
      <trkpt lat="45.70541" lon="6.26378">
        <ele>1341.5999755859</ele>
        <time>2013-01-07T08:50:56.000Z</time>
      </trkpt>
      <trkpt lat="45.70537" lon="6.26373">
        <ele>1342</ele>
        <time>2013-01-07T08:51:00.000Z</time>
      </trkpt>
      <trkpt lat="45.70534" lon="6.26367">
        <ele>1342</ele>
        <time>2013-01-07T08:51:06.000Z</time>
      </trkpt>
      <trkpt lat="45.70533" lon="6.26364">
        <ele>1343.4000244141</ele>
        <time>2013-01-07T08:51:09.000Z</time>
      </trkpt>
      <trkpt lat="45.70532" lon="6.26359">
        <ele>1345.8000488281</ele>
        <time>2013-01-07T08:51:14.000Z</time>
      </trkpt>
      <trkpt lat="45.70531" lon="6.26358">
        <ele>1345.8000488281</ele>
        <time>2013-01-07T08:51:15.000Z</time>
      </trkpt>
      <trkpt lat="45.70528" lon="6.26354">
        <ele>1347.8000488281</ele>
        <time>2013-01-07T08:51:18.000Z</time>
      </trkpt>
      <trkpt lat="45.70528" lon="6.26351">
        <ele>1348.1999511719</ele>
        <time>2013-01-07T08:51:21.000Z</time>
      </trkpt>
      <trkpt lat="45.70525" lon="6.26347">
        <ele>1347.8000488281</ele>
        <time>2013-01-07T08:51:25.000Z</time>
      </trkpt>
      <trkpt lat="45.70523" lon="6.26341">
        <ele>1349.1999511719</ele>
        <time>2013-01-07T08:51:30.000Z</time>
      </trkpt>
      <trkpt lat="45.70519" lon="6.26336">
        <ele>1350.1999511719</ele>
        <time>2013-01-07T08:51:34.000Z</time>
      </trkpt>
      <trkpt lat="45.70518" lon="6.26332">
        <ele>1350.5999755859</ele>
        <time>2013-01-07T08:51:38.000Z</time>
      </trkpt>
      <trkpt lat="45.70516" lon="6.26324">
        <ele>1353.5999755859</ele>
        <time>2013-01-07T08:51:43.000Z</time>
      </trkpt>
      <trkpt lat="45.70514" lon="6.26318">
        <ele>1356.4000244141</ele>
        <time>2013-01-07T08:51:48.000Z</time>
      </trkpt>
      <trkpt lat="45.7051" lon="6.26312">
        <ele>1359.4000244141</ele>
        <time>2013-01-07T08:51:53.000Z</time>
      </trkpt>
      <trkpt lat="45.70507" lon="6.26307">
        <ele>1360.4000244141</ele>
        <time>2013-01-07T08:51:57.000Z</time>
      </trkpt>
      <trkpt lat="45.70502" lon="6.26301">
        <ele>1359.4000244141</ele>
        <time>2013-01-07T08:52:03.000Z</time>
      </trkpt>
      <trkpt lat="45.70497" lon="6.26295">
        <ele>1359.4000244141</ele>
        <time>2013-01-07T08:52:10.000Z</time>
      </trkpt>
      <trkpt lat="45.70493" lon="6.26292">
        <ele>1358.8000488281</ele>
        <time>2013-01-07T08:52:15.000Z</time>
      </trkpt>
      <trkpt lat="45.7049" lon="6.2629">
        <ele>1360.4000244141</ele>
        <time>2013-01-07T08:52:19.000Z</time>
      </trkpt>
      <trkpt lat="45.70485" lon="6.26284">
        <ele>1362.8000488281</ele>
        <time>2013-01-07T08:52:26.000Z</time>
      </trkpt>
      <trkpt lat="45.70482" lon="6.26279">
        <ele>1364.5999755859</ele>
        <time>2013-01-07T08:52:31.000Z</time>
      </trkpt>
      <trkpt lat="45.70478" lon="6.26272">
        <ele>1365.5999755859</ele>
        <time>2013-01-07T08:52:36.000Z</time>
      </trkpt>
      <trkpt lat="45.70478" lon="6.2627">
        <ele>1366</ele>
        <time>2013-01-07T08:52:37.000Z</time>
      </trkpt>
      <trkpt lat="45.70473" lon="6.26265">
        <ele>1367</ele>
        <time>2013-01-07T08:52:43.000Z</time>
      </trkpt>
      <trkpt lat="45.7047" lon="6.26263">
        <ele>1366.5999755859</ele>
        <time>2013-01-07T08:52:45.000Z</time>
      </trkpt>
      <trkpt lat="45.70465" lon="6.26256">
        <ele>1370</ele>
        <time>2013-01-07T08:52:52.000Z</time>
      </trkpt>
      <trkpt lat="45.70461" lon="6.26253">
        <ele>1370.4000244141</ele>
        <time>2013-01-07T08:52:57.000Z</time>
      </trkpt>
      <trkpt lat="45.70457" lon="6.26249">
        <ele>1372.4000244141</ele>
        <time>2013-01-07T08:53:02.000Z</time>
      </trkpt>
      <trkpt lat="45.70455" lon="6.26247">
        <ele>1372.8000488281</ele>
        <time>2013-01-07T08:53:06.000Z</time>
      </trkpt>
      <trkpt lat="45.70451" lon="6.26243">
        <ele>1372.8000488281</ele>
        <time>2013-01-07T08:53:11.000Z</time>
      </trkpt>
      <trkpt lat="45.70445" lon="6.26238">
        <ele>1375.1999511719</ele>
        <time>2013-01-07T08:53:17.000Z</time>
      </trkpt>
      <trkpt lat="45.70443" lon="6.26236">
        <ele>1376.5999755859</ele>
        <time>2013-01-07T08:53:20.000Z</time>
      </trkpt>
      <trkpt lat="45.70437" lon="6.26236">
        <ele>1379.5999755859</ele>
        <time>2013-01-07T08:53:25.000Z</time>
      </trkpt>
      <trkpt lat="45.70436" lon="6.26237">
        <ele>1381.4000244141</ele>
        <time>2013-01-07T08:53:27.000Z</time>
      </trkpt>
      <trkpt lat="45.70431" lon="6.26238">
        <ele>1384.4000244141</ele>
        <time>2013-01-07T08:53:32.000Z</time>
      </trkpt>
      <trkpt lat="45.70429" lon="6.26239">
        <ele>1385.8000488281</ele>
        <time>2013-01-07T08:53:34.000Z</time>
      </trkpt>
      <trkpt lat="45.70422" lon="6.26238">
        <ele>1387.8000488281</ele>
        <time>2013-01-07T08:53:40.000Z</time>
      </trkpt>
      <trkpt lat="45.70421" lon="6.26238">
        <ele>1388.1999511719</ele>
        <time>2013-01-07T08:53:41.000Z</time>
      </trkpt>
      <trkpt lat="45.70418" lon="6.26237">
        <ele>1387.8000488281</ele>
        <time>2013-01-07T08:53:44.000Z</time>
      </trkpt>
      <trkpt lat="45.70414" lon="6.26233">
        <ele>1387.1999511719</ele>
        <time>2013-01-07T08:53:49.000Z</time>
      </trkpt>
      <trkpt lat="45.70412" lon="6.26224">
        <ele>1385.8000488281</ele>
        <time>2013-01-07T08:53:54.000Z</time>
      </trkpt>
      <trkpt lat="45.70413" lon="6.2622">
        <ele>1385.1999511719</ele>
        <time>2013-01-07T08:53:57.000Z</time>
      </trkpt>
      <trkpt lat="45.70417" lon="6.26215">
        <ele>1385.1999511719</ele>
        <time>2013-01-07T08:54:02.000Z</time>
      </trkpt>
      <trkpt lat="45.70419" lon="6.26215">
        <ele>1387.1999511719</ele>
        <time>2013-01-07T08:54:07.000Z</time>
      </trkpt>
      <trkpt lat="45.70422" lon="6.26215">
        <ele>1393.4000244141</ele>
        <time>2013-01-07T08:54:17.000Z</time>
      </trkpt>
      <trkpt lat="45.70424" lon="6.26211">
        <ele>1394.4000244141</ele>
        <time>2013-01-07T08:54:51.000Z</time>
      </trkpt>
      <trkpt lat="45.70423" lon="6.26209">
        <ele>1394</ele>
        <time>2013-01-07T08:54:58.000Z</time>
      </trkpt>
      <trkpt lat="45.70422" lon="6.26209">
        <ele>1398.8000488281</ele>
        <time>2013-01-07T08:55:13.000Z</time>
      </trkpt>
      <trkpt lat="45.70423" lon="6.26206">
        <ele>1392.5999755859</ele>
        <time>2013-01-07T08:55:32.000Z</time>
      </trkpt>
      <trkpt lat="45.70423" lon="6.26209">
        <ele>1399.8000488281</ele>
        <time>2013-01-07T08:55:44.000Z</time>
      </trkpt>
      <trkpt lat="45.70423" lon="6.26208">
        <ele>1399.8000488281</ele>
        <time>2013-01-07T08:55:50.000Z</time>
      </trkpt>
      <trkpt lat="45.70422" lon="6.26206">
        <ele>1397.4000244141</ele>
        <time>2013-01-07T08:56:02.000Z</time>
      </trkpt>
      <trkpt lat="45.70423" lon="6.26211">
        <ele>1404.5999755859</ele>
        <time>2013-01-07T08:56:09.000Z</time>
      </trkpt>
      <trkpt lat="45.70425" lon="6.26213">
        <ele>1405</ele>
        <time>2013-01-07T08:56:15.000Z</time>
      </trkpt>
      <trkpt lat="45.70427" lon="6.26208">
        <ele>1403.5999755859</ele>
        <time>2013-01-07T08:56:20.000Z</time>
      </trkpt>
      <trkpt lat="45.70431" lon="6.26204">
        <ele>1404.5999755859</ele>
        <time>2013-01-07T08:56:26.000Z</time>
      </trkpt>
      <trkpt lat="45.70433" lon="6.26201">
        <ele>1403.5999755859</ele>
        <time>2013-01-07T08:56:31.000Z</time>
      </trkpt>
      <trkpt lat="45.70438" lon="6.26195">
        <ele>1400.1999511719</ele>
        <time>2013-01-07T08:56:36.000Z</time>
      </trkpt>
      <trkpt lat="45.7044" lon="6.26193">
        <ele>1398.8000488281</ele>
        <time>2013-01-07T08:56:38.000Z</time>
      </trkpt>
      <trkpt lat="45.70445" lon="6.26191">
        <ele>1397.8000488281</ele>
        <time>2013-01-07T08:56:45.000Z</time>
      </trkpt>
      <trkpt lat="45.70449" lon="6.26193">
        <ele>1401.1999511719</ele>
        <time>2013-01-07T08:56:49.000Z</time>
      </trkpt>
      <trkpt lat="45.70452" lon="6.2619">
        <ele>1398.1999511719</ele>
        <time>2013-01-07T08:56:54.000Z</time>
      </trkpt>
      <trkpt lat="45.70455" lon="6.26188">
        <ele>1397.4000244141</ele>
        <time>2013-01-07T08:56:58.000Z</time>
      </trkpt>
      <trkpt lat="45.7046" lon="6.26186">
        <ele>1398.1999511719</ele>
        <time>2013-01-07T08:57:04.000Z</time>
      </trkpt>
      <trkpt lat="45.70462" lon="6.26181">
        <ele>1398.1999511719</ele>
        <time>2013-01-07T08:57:09.000Z</time>
      </trkpt>
      <trkpt lat="45.70462" lon="6.26174">
        <ele>1397.8000488281</ele>
        <time>2013-01-07T08:57:13.000Z</time>
      </trkpt>
      <trkpt lat="45.70461" lon="6.26169">
        <ele>1398.8000488281</ele>
        <time>2013-01-07T08:57:19.000Z</time>
      </trkpt>
      <trkpt lat="45.70457" lon="6.26166">
        <ele>1400.1999511719</ele>
        <time>2013-01-07T08:57:25.000Z</time>
      </trkpt>
      <trkpt lat="45.70453" lon="6.26164">
        <ele>1402.5999755859</ele>
        <time>2013-01-07T08:57:31.000Z</time>
      </trkpt>
      <trkpt lat="45.70448" lon="6.26163">
        <ele>1404</ele>
        <time>2013-01-07T08:57:37.000Z</time>
      </trkpt>
      <trkpt lat="45.70441" lon="6.2616">
        <ele>1406.4000244141</ele>
        <time>2013-01-07T08:57:44.000Z</time>
      </trkpt>
      <trkpt lat="45.70437" lon="6.26159">
        <ele>1408.4000244141</ele>
        <time>2013-01-07T08:57:48.000Z</time>
      </trkpt>
      <trkpt lat="45.70431" lon="6.26157">
        <ele>1411.1999511719</ele>
        <time>2013-01-07T08:57:55.000Z</time>
      </trkpt>
      <trkpt lat="45.70425" lon="6.26154">
        <ele>1411.1999511719</ele>
        <time>2013-01-07T08:58:01.000Z</time>
      </trkpt>
      <trkpt lat="45.7042" lon="6.26153">
        <ele>1413.1999511719</ele>
        <time>2013-01-07T08:58:07.000Z</time>
      </trkpt>
      <trkpt lat="45.70415" lon="6.26151">
        <ele>1414.5999755859</ele>
        <time>2013-01-07T08:58:13.000Z</time>
      </trkpt>
      <trkpt lat="45.7041" lon="6.26147">
        <ele>1415</ele>
        <time>2013-01-07T08:58:19.000Z</time>
      </trkpt>
      <trkpt lat="45.70406" lon="6.26149">
        <ele>1417.5999755859</ele>
        <time>2013-01-07T08:58:23.000Z</time>
      </trkpt>
      <trkpt lat="45.704" lon="6.26148">
        <ele>1419</ele>
        <time>2013-01-07T08:58:30.000Z</time>
      </trkpt>
      <trkpt lat="45.70393" lon="6.26146">
        <ele>1421.4000244141</ele>
        <time>2013-01-07T08:58:37.000Z</time>
      </trkpt>
      <trkpt lat="45.70387" lon="6.26145">
        <ele>1423.1999511719</ele>
        <time>2013-01-07T08:58:43.000Z</time>
      </trkpt>
      <trkpt lat="45.70382" lon="6.26145">
        <ele>1424.8000488281</ele>
        <time>2013-01-07T08:58:48.000Z</time>
      </trkpt>
      <trkpt lat="45.70378" lon="6.26143">
        <ele>1426.1999511719</ele>
        <time>2013-01-07T08:58:53.000Z</time>
      </trkpt>
      <trkpt lat="45.70375" lon="6.26139">
        <ele>1427.5999755859</ele>
        <time>2013-01-07T08:58:57.000Z</time>
      </trkpt>
      <trkpt lat="45.7037" lon="6.26136">
        <ele>1429</ele>
        <time>2013-01-07T08:59:03.000Z</time>
      </trkpt>
      <trkpt lat="45.70365" lon="6.26132">
        <ele>1431.4000244141</ele>
        <time>2013-01-07T08:59:09.000Z</time>
      </trkpt>
      <trkpt lat="45.7036" lon="6.26128">
        <ele>1433.4000244141</ele>
        <time>2013-01-07T08:59:15.000Z</time>
      </trkpt>
      <trkpt lat="45.70356" lon="6.26121">
        <ele>1433.4000244141</ele>
        <time>2013-01-07T08:59:21.000Z</time>
      </trkpt>
      <trkpt lat="45.70355" lon="6.2612">
        <ele>1433.4000244141</ele>
        <time>2013-01-07T08:59:22.000Z</time>
      </trkpt>
      <trkpt lat="45.70349" lon="6.26108">
        <ele>1428.5999755859</ele>
        <time>2013-01-07T08:59:30.000Z</time>
      </trkpt>
      <trkpt lat="45.70347" lon="6.26105">
        <ele>1427.5999755859</ele>
        <time>2013-01-07T08:59:33.000Z</time>
      </trkpt>
      <trkpt lat="45.7034" lon="6.26099">
        <ele>1429.5999755859</ele>
        <time>2013-01-07T08:59:41.000Z</time>
      </trkpt>
      <trkpt lat="45.70335" lon="6.26094">
        <ele>1431</ele>
        <time>2013-01-07T08:59:48.000Z</time>
      </trkpt>
      <trkpt lat="45.7033" lon="6.26088">
        <ele>1432.4000244141</ele>
        <time>2013-01-07T08:59:54.000Z</time>
      </trkpt>
      <trkpt lat="45.70324" lon="6.26084">
        <ele>1434.4000244141</ele>
        <time>2013-01-07T09:00:01.000Z</time>
      </trkpt>
      <trkpt lat="45.70318" lon="6.26081">
        <ele>1435.1999511719</ele>
        <time>2013-01-07T09:00:07.000Z</time>
      </trkpt>
      <trkpt lat="45.70312" lon="6.26075">
        <ele>1436.8000488281</ele>
        <time>2013-01-07T09:00:14.000Z</time>
      </trkpt>
      <trkpt lat="45.70311" lon="6.26074">
        <ele>1436.8000488281</ele>
        <time>2013-01-07T09:00:16.000Z</time>
      </trkpt>
      <trkpt lat="45.70306" lon="6.26068">
        <ele>1437.5999755859</ele>
        <time>2013-01-07T09:00:22.000Z</time>
      </trkpt>
      <trkpt lat="45.70301" lon="6.26063">
        <ele>1438.1999511719</ele>
        <time>2013-01-07T09:00:28.000Z</time>
      </trkpt>
      <trkpt lat="45.70295" lon="6.26057">
        <ele>1439.5999755859</ele>
        <time>2013-01-07T09:00:36.000Z</time>
      </trkpt>
      <trkpt lat="45.7029" lon="6.26053">
        <ele>1440</ele>
        <time>2013-01-07T09:00:42.000Z</time>
      </trkpt>
      <trkpt lat="45.70284" lon="6.26049">
        <ele>1441.5999755859</ele>
        <time>2013-01-07T09:00:48.000Z</time>
      </trkpt>
      <trkpt lat="45.70281" lon="6.26046">
        <ele>1442</ele>
        <time>2013-01-07T09:00:51.000Z</time>
      </trkpt>
      <trkpt lat="45.70275" lon="6.26044">
        <ele>1443</ele>
        <time>2013-01-07T09:00:57.000Z</time>
      </trkpt>
      <trkpt lat="45.70272" lon="6.26042">
        <ele>1443</ele>
        <time>2013-01-07T09:01:00.000Z</time>
      </trkpt>
      <trkpt lat="45.70265" lon="6.2604">
        <ele>1444.4000244141</ele>
        <time>2013-01-07T09:01:07.000Z</time>
      </trkpt>
      <trkpt lat="45.70258" lon="6.26037">
        <ele>1445.8000488281</ele>
        <time>2013-01-07T09:01:13.000Z</time>
      </trkpt>
      <trkpt lat="45.70254" lon="6.26036">
        <ele>1447.8000488281</ele>
        <time>2013-01-07T09:01:18.000Z</time>
      </trkpt>
      <trkpt lat="45.70252" lon="6.26034">
        <ele>1448.1999511719</ele>
        <time>2013-01-07T09:01:20.000Z</time>
      </trkpt>
      <trkpt lat="45.70246" lon="6.26031">
        <ele>1449.8000488281</ele>
        <time>2013-01-07T09:01:27.000Z</time>
      </trkpt>
      <trkpt lat="45.7024" lon="6.26027">
        <ele>1451.1999511719</ele>
        <time>2013-01-07T09:01:34.000Z</time>
      </trkpt>
      <trkpt lat="45.70234" lon="6.26023">
        <ele>1451.5999755859</ele>
        <time>2013-01-07T09:01:41.000Z</time>
      </trkpt>
      <trkpt lat="45.70228" lon="6.26019">
        <ele>1452.5999755859</ele>
        <time>2013-01-07T09:01:48.000Z</time>
      </trkpt>
      <trkpt lat="45.70223" lon="6.26017">
        <ele>1454.5999755859</ele>
        <time>2013-01-07T09:01:53.000Z</time>
      </trkpt>
      <trkpt lat="45.70218" lon="6.26014">
        <ele>1455.4000244141</ele>
        <time>2013-01-07T09:01:59.000Z</time>
      </trkpt>
      <trkpt lat="45.70214" lon="6.2601">
        <ele>1457.8000488281</ele>
        <time>2013-01-07T09:02:05.000Z</time>
      </trkpt>
      <trkpt lat="45.7021" lon="6.26006">
        <ele>1459.8000488281</ele>
        <time>2013-01-07T09:02:10.000Z</time>
      </trkpt>
      <trkpt lat="45.70206" lon="6.26001">
        <ele>1460.8000488281</ele>
        <time>2013-01-07T09:02:16.000Z</time>
      </trkpt>
      <trkpt lat="45.70201" lon="6.25996">
        <ele>1461.8000488281</ele>
        <time>2013-01-07T09:02:22.000Z</time>
      </trkpt>
      <trkpt lat="45.702" lon="6.25995">
        <ele>1462.1999511719</ele>
        <time>2013-01-07T09:02:23.000Z</time>
      </trkpt>
      <trkpt lat="45.70197" lon="6.25989">
        <ele>1463.5999755859</ele>
        <time>2013-01-07T09:02:29.000Z</time>
      </trkpt>
      <trkpt lat="45.70196" lon="6.25982">
        <ele>1465</ele>
        <time>2013-01-07T09:02:34.000Z</time>
      </trkpt>
      <trkpt lat="45.70198" lon="6.25977">
        <ele>1468.4000244141</ele>
        <time>2013-01-07T09:02:39.000Z</time>
      </trkpt>
      <trkpt lat="45.702" lon="6.25972">
        <ele>1470.4000244141</ele>
        <time>2013-01-07T09:02:44.000Z</time>
      </trkpt>
      <trkpt lat="45.70205" lon="6.25969">
        <ele>1471.4000244141</ele>
        <time>2013-01-07T09:02:49.000Z</time>
      </trkpt>
      <trkpt lat="45.70209" lon="6.25966">
        <ele>1471.4000244141</ele>
        <time>2013-01-07T09:02:54.000Z</time>
      </trkpt>
      <trkpt lat="45.70214" lon="6.25964">
        <ele>1472.8000488281</ele>
        <time>2013-01-07T09:03:00.000Z</time>
      </trkpt>
      <trkpt lat="45.70217" lon="6.2596">
        <ele>1472.8000488281</ele>
        <time>2013-01-07T09:03:04.000Z</time>
      </trkpt>
      <trkpt lat="45.70221" lon="6.25954">
        <ele>1473.1999511719</ele>
        <time>2013-01-07T09:03:11.000Z</time>
      </trkpt>
      <trkpt lat="45.70223" lon="6.2595">
        <ele>1473.8000488281</ele>
        <time>2013-01-07T09:03:15.000Z</time>
      </trkpt>
      <trkpt lat="45.70223" lon="6.25945">
        <ele>1475.1999511719</ele>
        <time>2013-01-07T09:03:20.000Z</time>
      </trkpt>
      <trkpt lat="45.70224" lon="6.25944">
        <ele>1479.5999755859</ele>
        <time>2013-01-07T09:03:26.000Z</time>
      </trkpt>
      <trkpt lat="45.70224" lon="6.25942">
        <ele>1481.4000244141</ele>
        <time>2013-01-07T09:03:33.000Z</time>
      </trkpt>
      <trkpt lat="45.70221" lon="6.25939">
        <ele>1483.4000244141</ele>
        <time>2013-01-07T09:03:41.000Z</time>
      </trkpt>
      <trkpt lat="45.70218" lon="6.25936">
        <ele>1484.8000488281</ele>
        <time>2013-01-07T09:03:46.000Z</time>
      </trkpt>
      <trkpt lat="45.70212" lon="6.25933">
        <ele>1487.1999511719</ele>
        <time>2013-01-07T09:03:52.000Z</time>
      </trkpt>
      <trkpt lat="45.70208" lon="6.25932">
        <ele>1488.1999511719</ele>
        <time>2013-01-07T09:03:57.000Z</time>
      </trkpt>
      <trkpt lat="45.70206" lon="6.25931">
        <ele>1488.5999755859</ele>
        <time>2013-01-07T09:03:59.000Z</time>
      </trkpt>
      <trkpt lat="45.70198" lon="6.25928">
        <ele>1492.4000244141</ele>
        <time>2013-01-07T09:04:05.000Z</time>
      </trkpt>
      <trkpt lat="45.70197" lon="6.25928">
        <ele>1493.4000244141</ele>
        <time>2013-01-07T09:04:06.000Z</time>
      </trkpt>
      <trkpt lat="45.70195" lon="6.25927">
        <ele>1494.4000244141</ele>
        <time>2013-01-07T09:04:08.000Z</time>
      </trkpt>
      <trkpt lat="45.70192" lon="6.25928">
        <ele>1495.4000244141</ele>
        <time>2013-01-07T09:04:10.000Z</time>
      </trkpt>
      <trkpt lat="45.70187" lon="6.25925">
        <ele>1494.8000488281</ele>
        <time>2013-01-07T09:04:15.000Z</time>
      </trkpt>
      <trkpt lat="45.70182" lon="6.25922">
        <ele>1494.4000244141</ele>
        <time>2013-01-07T09:04:22.000Z</time>
      </trkpt>
      <trkpt lat="45.70178" lon="6.2592">
        <ele>1494.8000488281</ele>
        <time>2013-01-07T09:04:26.000Z</time>
      </trkpt>
      <trkpt lat="45.70174" lon="6.25921">
        <ele>1497.8000488281</ele>
        <time>2013-01-07T09:04:30.000Z</time>
      </trkpt>
      <trkpt lat="45.70169" lon="6.25919">
        <ele>1499.1999511719</ele>
        <time>2013-01-07T09:04:35.000Z</time>
      </trkpt>
      <trkpt lat="45.70163" lon="6.25918">
        <ele>1500.1999511719</ele>
        <time>2013-01-07T09:04:41.000Z</time>
      </trkpt>
      <trkpt lat="45.70157" lon="6.25917">
        <ele>1499.1999511719</ele>
        <time>2013-01-07T09:04:45.000Z</time>
      </trkpt>
      <trkpt lat="45.70152" lon="6.25915">
        <ele>1499.5999755859</ele>
        <time>2013-01-07T09:04:50.000Z</time>
      </trkpt>
      <trkpt lat="45.70149" lon="6.25913">
        <ele>1499.1999511719</ele>
        <time>2013-01-07T09:04:54.000Z</time>
      </trkpt>
      <trkpt lat="45.70148" lon="6.25913">
        <ele>1499.5999755859</ele>
        <time>2013-01-07T09:04:55.000Z</time>
      </trkpt>
      <trkpt lat="45.70142" lon="6.25911">
        <ele>1500.1999511719</ele>
        <time>2013-01-07T09:05:02.000Z</time>
      </trkpt>
      <trkpt lat="45.70137" lon="6.25908">
        <ele>1501.1999511719</ele>
        <time>2013-01-07T09:05:09.000Z</time>
      </trkpt>
      <trkpt lat="45.7013" lon="6.25905">
        <ele>1503</ele>
        <time>2013-01-07T09:05:16.000Z</time>
      </trkpt>
      <trkpt lat="45.70129" lon="6.25904">
        <ele>1503</ele>
        <time>2013-01-07T09:05:17.000Z</time>
      </trkpt>
      <trkpt lat="45.70125" lon="6.25902">
        <ele>1504</ele>
        <time>2013-01-07T09:05:21.000Z</time>
      </trkpt>
      <trkpt lat="45.70119" lon="6.25894">
        <ele>1504</ele>
        <time>2013-01-07T09:05:28.000Z</time>
      </trkpt>
      <trkpt lat="45.70117" lon="6.25891">
        <ele>1504.5999755859</ele>
        <time>2013-01-07T09:05:31.000Z</time>
      </trkpt>
      <trkpt lat="45.70114" lon="6.25886">
        <ele>1505</ele>
        <time>2013-01-07T09:05:35.000Z</time>
      </trkpt>
      <trkpt lat="45.70114" lon="6.25883">
        <ele>1505</ele>
        <time>2013-01-07T09:05:37.000Z</time>
      </trkpt>
      <trkpt lat="45.70108" lon="6.25875">
        <ele>1506</ele>
        <time>2013-01-07T09:05:44.000Z</time>
      </trkpt>
      <trkpt lat="45.70107" lon="6.25872">
        <ele>1507</ele>
        <time>2013-01-07T09:05:47.000Z</time>
      </trkpt>
      <trkpt lat="45.701" lon="6.2586">
        <ele>1509.8000488281</ele>
        <time>2013-01-07T09:05:57.000Z</time>
      </trkpt>
      <trkpt lat="45.70095" lon="6.25856">
        <ele>1512.1999511719</ele>
        <time>2013-01-07T09:06:02.000Z</time>
      </trkpt>
      <trkpt lat="45.70093" lon="6.25852">
        <ele>1512.5999755859</ele>
        <time>2013-01-07T09:06:05.000Z</time>
      </trkpt>
      <trkpt lat="45.7009" lon="6.25848">
        <ele>1513.1999511719</ele>
        <time>2013-01-07T09:06:09.000Z</time>
      </trkpt>
      <trkpt lat="45.70086" lon="6.2584">
        <ele>1515.5999755859</ele>
        <time>2013-01-07T09:06:16.000Z</time>
      </trkpt>
      <trkpt lat="45.70083" lon="6.25834">
        <ele>1516</ele>
        <time>2013-01-07T09:06:22.000Z</time>
      </trkpt>
      <trkpt lat="45.70079" lon="6.25826">
        <ele>1517.4000244141</ele>
        <time>2013-01-07T09:06:28.000Z</time>
      </trkpt>
      <trkpt lat="45.70075" lon="6.25815">
        <ele>1520.4000244141</ele>
        <time>2013-01-07T09:06:37.000Z</time>
      </trkpt>
      <trkpt lat="45.70073" lon="6.25813">
        <ele>1520.8000488281</ele>
        <time>2013-01-07T09:06:39.000Z</time>
      </trkpt>
      <trkpt lat="45.70072" lon="6.2581">
        <ele>1521.4000244141</ele>
        <time>2013-01-07T09:06:41.000Z</time>
      </trkpt>
      <trkpt lat="45.7007" lon="6.25807">
        <ele>1522.8000488281</ele>
        <time>2013-01-07T09:06:44.000Z</time>
      </trkpt>
      <trkpt lat="45.70065" lon="6.258">
        <ele>1525.5999755859</ele>
        <time>2013-01-07T09:06:51.000Z</time>
      </trkpt>
      <trkpt lat="45.70063" lon="6.25795">
        <ele>1526.1999511719</ele>
        <time>2013-01-07T09:06:56.000Z</time>
      </trkpt>
      <trkpt lat="45.7006" lon="6.25792">
        <ele>1527.5999755859</ele>
        <time>2013-01-07T09:07:01.000Z</time>
      </trkpt>
      <trkpt lat="45.70058" lon="6.25789">
        <ele>1528.5999755859</ele>
        <time>2013-01-07T09:07:05.000Z</time>
      </trkpt>
      <trkpt lat="45.70055" lon="6.25783">
        <ele>1529</ele>
        <time>2013-01-07T09:07:10.000Z</time>
      </trkpt>
      <trkpt lat="45.70051" lon="6.25778">
        <ele>1531</ele>
        <time>2013-01-07T09:07:16.000Z</time>
      </trkpt>
      <trkpt lat="45.70048" lon="6.25773">
        <ele>1531.8000488281</ele>
        <time>2013-01-07T09:07:21.000Z</time>
      </trkpt>
      <trkpt lat="45.70044" lon="6.25767">
        <ele>1532.4000244141</ele>
        <time>2013-01-07T09:07:26.000Z</time>
      </trkpt>
      <trkpt lat="45.70041" lon="6.25759">
        <ele>1533.4000244141</ele>
        <time>2013-01-07T09:07:33.000Z</time>
      </trkpt>
      <trkpt lat="45.7004" lon="6.25756">
        <ele>1532.4000244141</ele>
        <time>2013-01-07T09:07:36.000Z</time>
      </trkpt>
      <trkpt lat="45.70038" lon="6.25753">
        <ele>1532.4000244141</ele>
        <time>2013-01-07T09:07:38.000Z</time>
      </trkpt>
      <trkpt lat="45.70034" lon="6.2575">
        <ele>1532.8000488281</ele>
        <time>2013-01-07T09:07:42.000Z</time>
      </trkpt>
      <trkpt lat="45.70026" lon="6.25741">
        <ele>1538.1999511719</ele>
        <time>2013-01-07T09:07:50.000Z</time>
      </trkpt>
      <trkpt lat="45.70023" lon="6.25735">
        <ele>1539.1999511719</ele>
        <time>2013-01-07T09:07:55.000Z</time>
      </trkpt>
      <trkpt lat="45.70017" lon="6.25729">
        <ele>1540</ele>
        <time>2013-01-07T09:08:02.000Z</time>
      </trkpt>
      <trkpt lat="45.70013" lon="6.25724">
        <ele>1542</ele>
        <time>2013-01-07T09:08:08.000Z</time>
      </trkpt>
      <trkpt lat="45.70008" lon="6.25718">
        <ele>1544.4000244141</ele>
        <time>2013-01-07T09:08:14.000Z</time>
      </trkpt>
      <trkpt lat="45.70006" lon="6.25716">
        <ele>1544.8000488281</ele>
        <time>2013-01-07T09:08:16.000Z</time>
      </trkpt>
      <trkpt lat="45.70001" lon="6.25713">
        <ele>1546.4000244141</ele>
        <time>2013-01-07T09:08:23.000Z</time>
      </trkpt>
      <trkpt lat="45.69997" lon="6.2571">
        <ele>1547.1999511719</ele>
        <time>2013-01-07T09:08:29.000Z</time>
      </trkpt>
      <trkpt lat="45.69993" lon="6.25709">
        <ele>1547.1999511719</ele>
        <time>2013-01-07T09:08:34.000Z</time>
      </trkpt>
      <trkpt lat="45.69989" lon="6.25706">
        <ele>1547.8000488281</ele>
        <time>2013-01-07T09:08:38.000Z</time>
      </trkpt>
      <trkpt lat="45.69984" lon="6.25704">
        <ele>1548.8000488281</ele>
        <time>2013-01-07T09:08:43.000Z</time>
      </trkpt>
      <trkpt lat="45.69982" lon="6.25703">
        <ele>1549.1999511719</ele>
        <time>2013-01-07T09:08:45.000Z</time>
      </trkpt>
      <trkpt lat="45.69976" lon="6.257">
        <ele>1550.1999511719</ele>
        <time>2013-01-07T09:08:52.000Z</time>
      </trkpt>
      <trkpt lat="45.69972" lon="6.25698">
        <ele>1551.1999511719</ele>
        <time>2013-01-07T09:08:55.000Z</time>
      </trkpt>
      <trkpt lat="45.69969" lon="6.25695">
        <ele>1551.5999755859</ele>
        <time>2013-01-07T09:08:59.000Z</time>
      </trkpt>
      <trkpt lat="45.69963" lon="6.25694">
        <ele>1552</ele>
        <time>2013-01-07T09:09:04.000Z</time>
      </trkpt>
      <trkpt lat="45.69958" lon="6.25692">
        <ele>1550.5999755859</ele>
        <time>2013-01-07T09:09:08.000Z</time>
      </trkpt>
      <trkpt lat="45.69954" lon="6.2569">
        <ele>1551.5999755859</ele>
        <time>2013-01-07T09:09:11.000Z</time>
      </trkpt>
      <trkpt lat="45.69952" lon="6.2569">
        <ele>1552.5999755859</ele>
        <time>2013-01-07T09:09:13.000Z</time>
      </trkpt>
      <trkpt lat="45.69947" lon="6.25688">
        <ele>1553.5999755859</ele>
        <time>2013-01-07T09:09:19.000Z</time>
      </trkpt>
      <trkpt lat="45.69946" lon="6.25688">
        <ele>1554</ele>
        <time>2013-01-07T09:09:20.000Z</time>
      </trkpt>
      <trkpt lat="45.69938" lon="6.25683">
        <ele>1556.4000244141</ele>
        <time>2013-01-07T09:09:28.000Z</time>
      </trkpt>
      <trkpt lat="45.69932" lon="6.2568">
        <ele>1558.4000244141</ele>
        <time>2013-01-07T09:09:35.000Z</time>
      </trkpt>
      <trkpt lat="45.69926" lon="6.25677">
        <ele>1559.8000488281</ele>
        <time>2013-01-07T09:09:40.000Z</time>
      </trkpt>
      <trkpt lat="45.69924" lon="6.25676">
        <ele>1560.1999511719</ele>
        <time>2013-01-07T09:09:43.000Z</time>
      </trkpt>
      <trkpt lat="45.69917" lon="6.25672">
        <ele>1562.5999755859</ele>
        <time>2013-01-07T09:09:51.000Z</time>
      </trkpt>
      <trkpt lat="45.69912" lon="6.25669">
        <ele>1563.5999755859</ele>
        <time>2013-01-07T09:09:56.000Z</time>
      </trkpt>
      <trkpt lat="45.69907" lon="6.25665">
        <ele>1565</ele>
        <time>2013-01-07T09:10:02.000Z</time>
      </trkpt>
      <trkpt lat="45.69902" lon="6.2566">
        <ele>1566.5999755859</ele>
        <time>2013-01-07T09:10:08.000Z</time>
      </trkpt>
      <trkpt lat="45.69898" lon="6.25655">
        <ele>1568</ele>
        <time>2013-01-07T09:10:14.000Z</time>
      </trkpt>
      <trkpt lat="45.69895" lon="6.25648">
        <ele>1568</ele>
        <time>2013-01-07T09:10:20.000Z</time>
      </trkpt>
      <trkpt lat="45.69892" lon="6.25644">
        <ele>1569</ele>
        <time>2013-01-07T09:10:25.000Z</time>
      </trkpt>
      <trkpt lat="45.69887" lon="6.25636">
        <ele>1570.8000488281</ele>
        <time>2013-01-07T09:10:33.000Z</time>
      </trkpt>
      <trkpt lat="45.69882" lon="6.25631">
        <ele>1572.1999511719</ele>
        <time>2013-01-07T09:10:39.000Z</time>
      </trkpt>
      <trkpt lat="45.69879" lon="6.25624">
        <ele>1574.1999511719</ele>
        <time>2013-01-07T09:10:45.000Z</time>
      </trkpt>
      <trkpt lat="45.69875" lon="6.25617">
        <ele>1575.5999755859</ele>
        <time>2013-01-07T09:10:52.000Z</time>
      </trkpt>
      <trkpt lat="45.69873" lon="6.25616">
        <ele>1575.5999755859</ele>
        <time>2013-01-07T09:10:58.000Z</time>
      </trkpt>
      <trkpt lat="45.6987" lon="6.25613">
        <ele>1576.5999755859</ele>
        <time>2013-01-07T09:11:05.000Z</time>
      </trkpt>
      <trkpt lat="45.6987" lon="6.25614">
        <ele>1576.5999755859</ele>
        <time>2013-01-07T09:11:20.000Z</time>
      </trkpt>
      <trkpt lat="45.6987" lon="6.25614">
        <ele>1576.5999755859</ele>
        <time>2013-01-07T09:11:28.000Z</time>
      </trkpt>
      <trkpt lat="45.69867" lon="6.2561">
        <ele>1577.5999755859</ele>
        <time>2013-01-07T09:11:34.000Z</time>
      </trkpt>
      <trkpt lat="45.69861" lon="6.25603">
        <ele>1579.4000244141</ele>
        <time>2013-01-07T09:11:42.000Z</time>
      </trkpt>
      <trkpt lat="45.69856" lon="6.25597">
        <ele>1582.4000244141</ele>
        <time>2013-01-07T09:11:49.000Z</time>
      </trkpt>
      <trkpt lat="45.69851" lon="6.25589">
        <ele>1583.8000488281</ele>
        <time>2013-01-07T09:11:56.000Z</time>
      </trkpt>
      <trkpt lat="45.69844" lon="6.25582">
        <ele>1585.8000488281</ele>
        <time>2013-01-07T09:12:04.000Z</time>
      </trkpt>
      <trkpt lat="45.69839" lon="6.25573">
        <ele>1588.1999511719</ele>
        <time>2013-01-07T09:12:12.000Z</time>
      </trkpt>
      <trkpt lat="45.69835" lon="6.2557">
        <ele>1588.1999511719</ele>
        <time>2013-01-07T09:12:16.000Z</time>
      </trkpt>
      <trkpt lat="45.69829" lon="6.25567">
        <ele>1589.5999755859</ele>
        <time>2013-01-07T09:12:23.000Z</time>
      </trkpt>
      <trkpt lat="45.69826" lon="6.25566">
        <ele>1590</ele>
        <time>2013-01-07T09:12:26.000Z</time>
      </trkpt>
      <trkpt lat="45.69822" lon="6.25563">
        <ele>1590.5999755859</ele>
        <time>2013-01-07T09:12:30.000Z</time>
      </trkpt>
      <trkpt lat="45.6982" lon="6.25562">
        <ele>1592.4000244141</ele>
        <time>2013-01-07T09:12:32.000Z</time>
      </trkpt>
      <trkpt lat="45.69816" lon="6.25554">
        <ele>1595.8000488281</ele>
        <time>2013-01-07T09:12:38.000Z</time>
      </trkpt>
      <trkpt lat="45.69814" lon="6.25552">
        <ele>1597.1999511719</ele>
        <time>2013-01-07T09:12:40.000Z</time>
      </trkpt>
      <trkpt lat="45.69809" lon="6.25545">
        <ele>1598.8000488281</ele>
        <time>2013-01-07T09:12:48.000Z</time>
      </trkpt>
      <trkpt lat="45.69804" lon="6.2554">
        <ele>1599.1999511719</ele>
        <time>2013-01-07T09:12:54.000Z</time>
      </trkpt>
      <trkpt lat="45.698" lon="6.25534">
        <ele>1599.1999511719</ele>
        <time>2013-01-07T09:13:00.000Z</time>
      </trkpt>
      <trkpt lat="45.69796" lon="6.25527">
        <ele>1600.1999511719</ele>
        <time>2013-01-07T09:13:06.000Z</time>
      </trkpt>
      <trkpt lat="45.69793" lon="6.2552">
        <ele>1599.1999511719</ele>
        <time>2013-01-07T09:13:12.000Z</time>
      </trkpt>
      <trkpt lat="45.69791" lon="6.25514">
        <ele>1599.1999511719</ele>
        <time>2013-01-07T09:13:18.000Z</time>
      </trkpt>
      <trkpt lat="45.69789" lon="6.25507">
        <ele>1600.1999511719</ele>
        <time>2013-01-07T09:13:23.000Z</time>
      </trkpt>
      <trkpt lat="45.69786" lon="6.255">
        <ele>1600.1999511719</ele>
        <time>2013-01-07T09:13:30.000Z</time>
      </trkpt>
      <trkpt lat="45.69781" lon="6.25495">
        <ele>1600.1999511719</ele>
        <time>2013-01-07T09:13:36.000Z</time>
      </trkpt>
      <trkpt lat="45.69777" lon="6.25497">
        <ele>1600.1999511719</ele>
        <time>2013-01-07T09:13:41.000Z</time>
      </trkpt>
      <trkpt lat="45.69775" lon="6.25499">
        <ele>1601.1999511719</ele>
        <time>2013-01-07T09:13:46.000Z</time>
      </trkpt>
      <trkpt lat="45.6977" lon="6.25502">
        <ele>1602</ele>
        <time>2013-01-07T09:13:52.000Z</time>
      </trkpt>
      <trkpt lat="45.69768" lon="6.25502">
        <ele>1602</ele>
        <time>2013-01-07T09:13:53.000Z</time>
      </trkpt>
      <trkpt lat="45.69761" lon="6.255">
        <ele>1601.5999755859</ele>
        <time>2013-01-07T09:13:58.000Z</time>
      </trkpt>
      <trkpt lat="45.69759" lon="6.25499">
        <ele>1601.1999511719</ele>
        <time>2013-01-07T09:14:02.000Z</time>
      </trkpt>
      <trkpt lat="45.69755" lon="6.25499">
        <ele>1602</ele>
        <time>2013-01-07T09:14:08.000Z</time>
      </trkpt>
      <trkpt lat="45.69751" lon="6.25498">
        <ele>1603</ele>
        <time>2013-01-07T09:14:14.000Z</time>
      </trkpt>
      <trkpt lat="45.69748" lon="6.25496">
        <ele>1603.5999755859</ele>
        <time>2013-01-07T09:14:19.000Z</time>
      </trkpt>
      <trkpt lat="45.69745" lon="6.25499">
        <ele>1605</ele>
        <time>2013-01-07T09:14:24.000Z</time>
      </trkpt>
      <trkpt lat="45.6974" lon="6.25505">
        <ele>1605</ele>
        <time>2013-01-07T09:14:28.000Z</time>
      </trkpt>
      <trkpt lat="45.69736" lon="6.25507">
        <ele>1606</ele>
        <time>2013-01-07T09:14:33.000Z</time>
      </trkpt>
      <trkpt lat="45.69729" lon="6.25511">
        <ele>1607.4000244141</ele>
        <time>2013-01-07T09:14:40.000Z</time>
      </trkpt>
      <trkpt lat="45.6972" lon="6.25513">
        <ele>1609.1999511719</ele>
        <time>2013-01-07T09:14:49.000Z</time>
      </trkpt>
      <trkpt lat="45.69715" lon="6.25513">
        <ele>1609.1999511719</ele>
        <time>2013-01-07T09:14:55.000Z</time>
      </trkpt>
      <trkpt lat="45.69708" lon="6.25511">
        <ele>1609.1999511719</ele>
        <time>2013-01-07T09:15:01.000Z</time>
      </trkpt>
      <trkpt lat="45.69701" lon="6.2551">
        <ele>1610.1999511719</ele>
        <time>2013-01-07T09:15:08.000Z</time>
      </trkpt>
      <trkpt lat="45.69696" lon="6.25509">
        <ele>1611.1999511719</ele>
        <time>2013-01-07T09:15:13.000Z</time>
      </trkpt>
      <trkpt lat="45.69692" lon="6.25508">
        <ele>1611.5999755859</ele>
        <time>2013-01-07T09:15:17.000Z</time>
      </trkpt>
      <trkpt lat="45.69683" lon="6.25506">
        <ele>1612.5999755859</ele>
        <time>2013-01-07T09:15:25.000Z</time>
      </trkpt>
      <trkpt lat="45.69679" lon="6.25504">
        <ele>1613.1999511719</ele>
        <time>2013-01-07T09:15:29.000Z</time>
      </trkpt>
      <trkpt lat="45.69673" lon="6.25503">
        <ele>1614.5999755859</ele>
        <time>2013-01-07T09:15:35.000Z</time>
      </trkpt>
      <trkpt lat="45.69667" lon="6.25501">
        <ele>1616.4000244141</ele>
        <time>2013-01-07T09:15:41.000Z</time>
      </trkpt>
      <trkpt lat="45.69661" lon="6.25502">
        <ele>1617.4000244141</ele>
        <time>2013-01-07T09:15:46.000Z</time>
      </trkpt>
      <trkpt lat="45.69658" lon="6.25503">
        <ele>1618.4000244141</ele>
        <time>2013-01-07T09:15:49.000Z</time>
      </trkpt>
      <trkpt lat="45.69653" lon="6.25506">
        <ele>1618</ele>
        <time>2013-01-07T09:15:54.000Z</time>
      </trkpt>
      <trkpt lat="45.6965" lon="6.25506">
        <ele>1618</ele>
        <time>2013-01-07T09:15:58.000Z</time>
      </trkpt>
      <trkpt lat="45.69648" lon="6.25509">
        <ele>1619.4000244141</ele>
        <time>2013-01-07T09:16:02.000Z</time>
      </trkpt>
      <trkpt lat="45.69648" lon="6.2551">
        <ele>1621.4000244141</ele>
        <time>2013-01-07T09:16:08.000Z</time>
      </trkpt>
      <trkpt lat="45.69646" lon="6.25514">
        <ele>1621.8000488281</ele>
        <time>2013-01-07T09:16:15.000Z</time>
      </trkpt>
      <trkpt lat="45.69646" lon="6.25515">
        <ele>1621.8000488281</ele>
        <time>2013-01-07T09:16:16.000Z</time>
      </trkpt>
      <trkpt lat="45.69641" lon="6.2552">
        <ele>1622.8000488281</ele>
        <time>2013-01-07T09:16:21.000Z</time>
      </trkpt>
      <trkpt lat="45.69639" lon="6.25522">
        <ele>1621.8000488281</ele>
        <time>2013-01-07T09:16:25.000Z</time>
      </trkpt>
      <trkpt lat="45.69636" lon="6.25519">
        <ele>1622.8000488281</ele>
        <time>2013-01-07T09:16:28.000Z</time>
      </trkpt>
      <trkpt lat="45.69634" lon="6.25517">
        <ele>1624.1999511719</ele>
        <time>2013-01-07T09:16:30.000Z</time>
      </trkpt>
      <trkpt lat="45.69631" lon="6.25517">
        <ele>1625.5999755859</ele>
        <time>2013-01-07T09:16:33.000Z</time>
      </trkpt>
      <trkpt lat="45.69629" lon="6.25519">
        <ele>1627</ele>
        <time>2013-01-07T09:16:36.000Z</time>
      </trkpt>
      <trkpt lat="45.69624" lon="6.25521">
        <ele>1630</ele>
        <time>2013-01-07T09:16:43.000Z</time>
      </trkpt>
      <trkpt lat="45.6962" lon="6.25522">
        <ele>1634.1999511719</ele>
        <time>2013-01-07T09:16:49.000Z</time>
      </trkpt>
      <trkpt lat="45.69614" lon="6.25523">
        <ele>1637.5999755859</ele>
        <time>2013-01-07T09:16:55.000Z</time>
      </trkpt>
      <trkpt lat="45.69609" lon="6.25523">
        <ele>1638.5999755859</ele>
        <time>2013-01-07T09:17:00.000Z</time>
      </trkpt>
      <trkpt lat="45.69605" lon="6.25524">
        <ele>1639</ele>
        <time>2013-01-07T09:17:04.000Z</time>
      </trkpt>
      <trkpt lat="45.696" lon="6.25525">
        <ele>1639</ele>
        <time>2013-01-07T09:17:10.000Z</time>
      </trkpt>
      <trkpt lat="45.69596" lon="6.25526">
        <ele>1639</ele>
        <time>2013-01-07T09:17:15.000Z</time>
      </trkpt>
      <trkpt lat="45.69591" lon="6.25529">
        <ele>1640</ele>
        <time>2013-01-07T09:17:20.000Z</time>
      </trkpt>
      <trkpt lat="45.69585" lon="6.25534">
        <ele>1639</ele>
        <time>2013-01-07T09:17:25.000Z</time>
      </trkpt>
      <trkpt lat="45.69583" lon="6.25536">
        <ele>1638.5999755859</ele>
        <time>2013-01-07T09:17:27.000Z</time>
      </trkpt>
      <trkpt lat="45.69579" lon="6.25539">
        <ele>1638.5999755859</ele>
        <time>2013-01-07T09:17:31.000Z</time>
      </trkpt>
      <trkpt lat="45.69575" lon="6.25544">
        <ele>1639.5999755859</ele>
        <time>2013-01-07T09:17:38.000Z</time>
      </trkpt>
      <trkpt lat="45.69572" lon="6.25546">
        <ele>1640</ele>
        <time>2013-01-07T09:17:42.000Z</time>
      </trkpt>
      <trkpt lat="45.6957" lon="6.2555">
        <ele>1642</ele>
        <time>2013-01-07T09:17:48.000Z</time>
      </trkpt>
      <trkpt lat="45.69567" lon="6.25557">
        <ele>1642.4000244141</ele>
        <time>2013-01-07T09:17:55.000Z</time>
      </trkpt>
      <trkpt lat="45.69563" lon="6.25562">
        <ele>1643</ele>
        <time>2013-01-07T09:18:00.000Z</time>
      </trkpt>
      <trkpt lat="45.69562" lon="6.25562">
        <ele>1643.8000488281</ele>
        <time>2013-01-07T09:18:04.000Z</time>
      </trkpt>
      <trkpt lat="45.6956" lon="6.25563">
        <ele>1644.4000244141</ele>
        <time>2013-01-07T09:18:09.000Z</time>
      </trkpt>
      <trkpt lat="45.69558" lon="6.25563">
        <ele>1644.8000488281</ele>
        <time>2013-01-07T09:18:12.000Z</time>
      </trkpt>
      <trkpt lat="45.69555" lon="6.25566">
        <ele>1645.8000488281</ele>
        <time>2013-01-07T09:18:19.000Z</time>
      </trkpt>
      <trkpt lat="45.69552" lon="6.25568">
        <ele>1647.1999511719</ele>
        <time>2013-01-07T09:18:26.000Z</time>
      </trkpt>
      <trkpt lat="45.69547" lon="6.2557">
        <ele>1648.1999511719</ele>
        <time>2013-01-07T09:18:33.000Z</time>
      </trkpt>
      <trkpt lat="45.69543" lon="6.2557">
        <ele>1649.1999511719</ele>
        <time>2013-01-07T09:18:39.000Z</time>
      </trkpt>
      <trkpt lat="45.6954" lon="6.25573">
        <ele>1650.5999755859</ele>
        <time>2013-01-07T09:18:45.000Z</time>
      </trkpt>
      <trkpt lat="45.69537" lon="6.25576">
        <ele>1651.1999511719</ele>
        <time>2013-01-07T09:18:50.000Z</time>
      </trkpt>
      <trkpt lat="45.69534" lon="6.2558">
        <ele>1652.5999755859</ele>
        <time>2013-01-07T09:18:56.000Z</time>
      </trkpt>
      <trkpt lat="45.69532" lon="6.25584">
        <ele>1654</ele>
        <time>2013-01-07T09:19:02.000Z</time>
      </trkpt>
      <trkpt lat="45.6953" lon="6.25587">
        <ele>1655</ele>
        <time>2013-01-07T09:19:07.000Z</time>
      </trkpt>
      <trkpt lat="45.69527" lon="6.25587">
        <ele>1654.4000244141</ele>
        <time>2013-01-07T09:19:12.000Z</time>
      </trkpt>
      <trkpt lat="45.69525" lon="6.25588">
        <ele>1655.4000244141</ele>
        <time>2013-01-07T09:19:16.000Z</time>
      </trkpt>
      <trkpt lat="45.69525" lon="6.25589">
        <ele>1656.4000244141</ele>
        <time>2013-01-07T09:19:20.000Z</time>
      </trkpt>
      <trkpt lat="45.69524" lon="6.2559">
        <ele>1656.8000488281</ele>
        <time>2013-01-07T09:19:28.000Z</time>
      </trkpt>
      <trkpt lat="45.69521" lon="6.25594">
        <ele>1658.4000244141</ele>
        <time>2013-01-07T09:19:35.000Z</time>
      </trkpt>
      <trkpt lat="45.69518" lon="6.25597">
        <ele>1660.8000488281</ele>
        <time>2013-01-07T09:19:40.000Z</time>
      </trkpt>
      <trkpt lat="45.69517" lon="6.25597">
        <ele>1661.5999755859</ele>
        <time>2013-01-07T09:19:44.000Z</time>
      </trkpt>
      <trkpt lat="45.69514" lon="6.25601">
        <ele>1664</ele>
        <time>2013-01-07T09:19:49.000Z</time>
      </trkpt>
      <trkpt lat="45.69513" lon="6.25604">
        <ele>1664.5999755859</ele>
        <time>2013-01-07T09:19:53.000Z</time>
      </trkpt>
      <trkpt lat="45.69512" lon="6.25609">
        <ele>1664.5999755859</ele>
        <time>2013-01-07T09:19:57.000Z</time>
      </trkpt>
      <trkpt lat="45.69511" lon="6.25612">
        <ele>1665.5999755859</ele>
        <time>2013-01-07T09:20:02.000Z</time>
      </trkpt>
      <trkpt lat="45.69508" lon="6.25616">
        <ele>1667</ele>
        <time>2013-01-07T09:20:07.000Z</time>
      </trkpt>
      <trkpt lat="45.69506" lon="6.25619">
        <ele>1667.4000244141</ele>
        <time>2013-01-07T09:20:12.000Z</time>
      </trkpt>
      <trkpt lat="45.69503" lon="6.25621">
        <ele>1668</ele>
        <time>2013-01-07T09:20:18.000Z</time>
      </trkpt>
      <trkpt lat="45.69502" lon="6.25622">
        <ele>1667.4000244141</ele>
        <time>2013-01-07T09:20:21.000Z</time>
      </trkpt>
      <trkpt lat="45.695" lon="6.25624">
        <ele>1667.4000244141</ele>
        <time>2013-01-07T09:20:25.000Z</time>
      </trkpt>
      <trkpt lat="45.69498" lon="6.25627">
        <ele>1667.4000244141</ele>
        <time>2013-01-07T09:20:28.000Z</time>
      </trkpt>
      <trkpt lat="45.69496" lon="6.25629">
        <ele>1668.4000244141</ele>
        <time>2013-01-07T09:20:33.000Z</time>
      </trkpt>
      <trkpt lat="45.69494" lon="6.25632">
        <ele>1671.1999511719</ele>
        <time>2013-01-07T09:20:40.000Z</time>
      </trkpt>
      <trkpt lat="45.69493" lon="6.25634">
        <ele>1672.8000488281</ele>
        <time>2013-01-07T09:20:46.000Z</time>
      </trkpt>
      <trkpt lat="45.6949" lon="6.25635">
        <ele>1674.5999755859</ele>
        <time>2013-01-07T09:20:51.000Z</time>
      </trkpt>
      <trkpt lat="45.69487" lon="6.25636">
        <ele>1676.5999755859</ele>
        <time>2013-01-07T09:20:56.000Z</time>
      </trkpt>
      <trkpt lat="45.69486" lon="6.25638">
        <ele>1677.5999755859</ele>
        <time>2013-01-07T09:21:00.000Z</time>
      </trkpt>
      <trkpt lat="45.69483" lon="6.2564">
        <ele>1678.4000244141</ele>
        <time>2013-01-07T09:21:05.000Z</time>
      </trkpt>
      <trkpt lat="45.6948" lon="6.25644">
        <ele>1679.4000244141</ele>
        <time>2013-01-07T09:21:11.000Z</time>
      </trkpt>
      <trkpt lat="45.69479" lon="6.25644">
        <ele>1680.4000244141</ele>
        <time>2013-01-07T09:21:14.000Z</time>
      </trkpt>
      <trkpt lat="45.69476" lon="6.25645">
        <ele>1683.4000244141</ele>
        <time>2013-01-07T09:21:19.000Z</time>
      </trkpt>
      <trkpt lat="45.69473" lon="6.25646">
        <ele>1685.1999511719</ele>
        <time>2013-01-07T09:21:24.000Z</time>
      </trkpt>
      <trkpt lat="45.6947" lon="6.25647">
        <ele>1687.1999511719</ele>
        <time>2013-01-07T09:21:29.000Z</time>
      </trkpt>
      <trkpt lat="45.69467" lon="6.25649">
        <ele>1689</ele>
        <time>2013-01-07T09:21:35.000Z</time>
      </trkpt>
      <trkpt lat="45.69467" lon="6.25654">
        <ele>1689.5999755859</ele>
        <time>2013-01-07T09:21:40.000Z</time>
      </trkpt>
      <trkpt lat="45.69466" lon="6.25659">
        <ele>1689.5999755859</ele>
        <time>2013-01-07T09:21:45.000Z</time>
      </trkpt>
      <trkpt lat="45.69464" lon="6.25663">
        <ele>1689.5999755859</ele>
        <time>2013-01-07T09:21:49.000Z</time>
      </trkpt>
      <trkpt lat="45.69464" lon="6.25667">
        <ele>1690</ele>
        <time>2013-01-07T09:21:53.000Z</time>
      </trkpt>
      <trkpt lat="45.69461" lon="6.25674">
        <ele>1691</ele>
        <time>2013-01-07T09:21:59.000Z</time>
      </trkpt>
      <trkpt lat="45.6946" lon="6.25675">
        <ele>1692.4000244141</ele>
        <time>2013-01-07T09:22:03.000Z</time>
      </trkpt>
      <trkpt lat="45.69458" lon="6.25673">
        <ele>1694.4000244141</ele>
        <time>2013-01-07T09:22:07.000Z</time>
      </trkpt>
      <trkpt lat="45.69456" lon="6.25674">
        <ele>1695.4000244141</ele>
        <time>2013-01-07T09:22:11.000Z</time>
      </trkpt>
      <trkpt lat="45.69454" lon="6.25676">
        <ele>1696.8000488281</ele>
        <time>2013-01-07T09:22:15.000Z</time>
      </trkpt>
      <trkpt lat="45.69453" lon="6.25679">
        <ele>1697.8000488281</ele>
        <time>2013-01-07T09:22:19.000Z</time>
      </trkpt>
      <trkpt lat="45.69452" lon="6.25682">
        <ele>1698.5999755859</ele>
        <time>2013-01-07T09:22:23.000Z</time>
      </trkpt>
      <trkpt lat="45.69452" lon="6.25687">
        <ele>1699.1999511719</ele>
        <time>2013-01-07T09:22:27.000Z</time>
      </trkpt>
      <trkpt lat="45.69451" lon="6.25692">
        <ele>1698.5999755859</ele>
        <time>2013-01-07T09:22:32.000Z</time>
      </trkpt>
      <trkpt lat="45.69449" lon="6.25696">
        <ele>1697.8000488281</ele>
        <time>2013-01-07T09:22:37.000Z</time>
      </trkpt>
      <trkpt lat="45.69447" lon="6.25699">
        <ele>1698.1999511719</ele>
        <time>2013-01-07T09:22:42.000Z</time>
      </trkpt>
      <trkpt lat="45.69446" lon="6.25703">
        <ele>1698.1999511719</ele>
        <time>2013-01-07T09:22:46.000Z</time>
      </trkpt>
      <trkpt lat="45.69445" lon="6.25709">
        <ele>1698.1999511719</ele>
        <time>2013-01-07T09:22:52.000Z</time>
      </trkpt>
      <trkpt lat="45.69443" lon="6.25712">
        <ele>1698.5999755859</ele>
        <time>2013-01-07T09:22:56.000Z</time>
      </trkpt>
      <trkpt lat="45.69443" lon="6.25714">
        <ele>1699.5999755859</ele>
        <time>2013-01-07T09:23:00.000Z</time>
      </trkpt>
      <trkpt lat="45.69442" lon="6.25718">
        <ele>1699.5999755859</ele>
        <time>2013-01-07T09:23:02.000Z</time>
      </trkpt>
      <trkpt lat="45.69441" lon="6.25722">
        <ele>1698.5999755859</ele>
        <time>2013-01-07T09:23:06.000Z</time>
      </trkpt>
      <trkpt lat="45.6944" lon="6.25725">
        <ele>1697.8000488281</ele>
        <time>2013-01-07T09:23:09.000Z</time>
      </trkpt>
      <trkpt lat="45.6944" lon="6.25729">
        <ele>1699.1999511719</ele>
        <time>2013-01-07T09:23:15.000Z</time>
      </trkpt>
      <trkpt lat="45.6944" lon="6.25734">
        <ele>1702</ele>
        <time>2013-01-07T09:23:21.000Z</time>
      </trkpt>
      <trkpt lat="45.6944" lon="6.25738">
        <ele>1703.4000244141</ele>
        <time>2013-01-07T09:23:26.000Z</time>
      </trkpt>
      <trkpt lat="45.6944" lon="6.25741">
        <ele>1704</ele>
        <time>2013-01-07T09:23:30.000Z</time>
      </trkpt>
      <trkpt lat="45.69439" lon="6.25745">
        <ele>1705.4000244141</ele>
        <time>2013-01-07T09:23:34.000Z</time>
      </trkpt>
      <trkpt lat="45.69438" lon="6.25747">
        <ele>1706.4000244141</ele>
        <time>2013-01-07T09:23:38.000Z</time>
      </trkpt>
      <trkpt lat="45.69436" lon="6.25748">
        <ele>1707.4000244141</ele>
        <time>2013-01-07T09:23:42.000Z</time>
      </trkpt>
      <trkpt lat="45.69434" lon="6.2575">
        <ele>1708.4000244141</ele>
        <time>2013-01-07T09:23:46.000Z</time>
      </trkpt>
      <trkpt lat="45.69432" lon="6.25752">
        <ele>1709.8000488281</ele>
        <time>2013-01-07T09:23:52.000Z</time>
      </trkpt>
      <trkpt lat="45.69431" lon="6.25756">
        <ele>1711.5999755859</ele>
        <time>2013-01-07T09:23:58.000Z</time>
      </trkpt>
      <trkpt lat="45.69429" lon="6.25759">
        <ele>1714.5999755859</ele>
        <time>2013-01-07T09:24:03.000Z</time>
      </trkpt>
      <trkpt lat="45.69425" lon="6.25761">
        <ele>1715.5999755859</ele>
        <time>2013-01-07T09:24:10.000Z</time>
      </trkpt>
      <trkpt lat="45.69421" lon="6.25762">
        <ele>1716.4000244141</ele>
        <time>2013-01-07T09:24:17.000Z</time>
      </trkpt>
      <trkpt lat="45.69417" lon="6.25763">
        <ele>1717.4000244141</ele>
        <time>2013-01-07T09:24:23.000Z</time>
      </trkpt>
      <trkpt lat="45.69415" lon="6.25764">
        <ele>1718</ele>
        <time>2013-01-07T09:24:27.000Z</time>
      </trkpt>
      <trkpt lat="45.69412" lon="6.25764">
        <ele>1718</ele>
        <time>2013-01-07T09:24:33.000Z</time>
      </trkpt>
      <trkpt lat="45.6941" lon="6.25766">
        <ele>1718.8000488281</ele>
        <time>2013-01-07T09:24:37.000Z</time>
      </trkpt>
      <trkpt lat="45.69407" lon="6.25767">
        <ele>1721.1999511719</ele>
        <time>2013-01-07T09:24:42.000Z</time>
      </trkpt>
      <trkpt lat="45.69405" lon="6.25768">
        <ele>1723.1999511719</ele>
        <time>2013-01-07T09:24:46.000Z</time>
      </trkpt>
      <trkpt lat="45.69403" lon="6.25769">
        <ele>1724.5999755859</ele>
        <time>2013-01-07T09:24:50.000Z</time>
      </trkpt>
      <trkpt lat="45.69401" lon="6.2577">
        <ele>1727</ele>
        <time>2013-01-07T09:24:55.000Z</time>
      </trkpt>
      <trkpt lat="45.694" lon="6.2577">
        <ele>1729.4000244141</ele>
        <time>2013-01-07T09:24:59.000Z</time>
      </trkpt>
      <trkpt lat="45.69396" lon="6.25772">
        <ele>1733.1999511719</ele>
        <time>2013-01-07T09:25:05.000Z</time>
      </trkpt>
      <trkpt lat="45.69393" lon="6.25773">
        <ele>1734.8000488281</ele>
        <time>2013-01-07T09:25:11.000Z</time>
      </trkpt>
      <trkpt lat="45.69392" lon="6.25774">
        <ele>1735.1999511719</ele>
        <time>2013-01-07T09:25:15.000Z</time>
      </trkpt>
      <trkpt lat="45.69391" lon="6.25776">
        <ele>1735.5999755859</ele>
        <time>2013-01-07T09:25:19.000Z</time>
      </trkpt>
      <trkpt lat="45.6939" lon="6.2578">
        <ele>1736.1999511719</ele>
        <time>2013-01-07T09:25:23.000Z</time>
      </trkpt>
      <trkpt lat="45.6939" lon="6.25783">
        <ele>1736.1999511719</ele>
        <time>2013-01-07T09:25:27.000Z</time>
      </trkpt>
      <trkpt lat="45.69391" lon="6.25787">
        <ele>1736.1999511719</ele>
        <time>2013-01-07T09:25:32.000Z</time>
      </trkpt>
      <trkpt lat="45.69391" lon="6.25787">
        <ele>1735.1999511719</ele>
        <time>2013-01-07T09:25:40.000Z</time>
      </trkpt>
      <trkpt lat="45.6939" lon="6.25789">
        <ele>1735.1999511719</ele>
        <time>2013-01-07T09:25:45.000Z</time>
      </trkpt>
      <trkpt lat="45.69388" lon="6.25787">
        <ele>1736.1999511719</ele>
        <time>2013-01-07T09:25:50.000Z</time>
      </trkpt>
      <trkpt lat="45.69386" lon="6.25786">
        <ele>1736.1999511719</ele>
        <time>2013-01-07T09:25:59.000Z</time>
      </trkpt>
      <trkpt lat="45.69385" lon="6.25784">
        <ele>1736.5999755859</ele>
        <time>2013-01-07T09:26:01.000Z</time>
      </trkpt>
      <trkpt lat="45.69383" lon="6.25779">
        <ele>1738.5999755859</ele>
        <time>2013-01-07T09:26:06.000Z</time>
      </trkpt>
      <trkpt lat="45.69378" lon="6.25776">
        <ele>1739.5999755859</ele>
        <time>2013-01-07T09:26:11.000Z</time>
      </trkpt>
      <trkpt lat="45.69375" lon="6.25773">
        <ele>1740</ele>
        <time>2013-01-07T09:26:17.000Z</time>
      </trkpt>
      <trkpt lat="45.69374" lon="6.25773">
        <ele>1740.5999755859</ele>
        <time>2013-01-07T09:26:22.000Z</time>
      </trkpt>
      <trkpt lat="45.69371" lon="6.25772">
        <ele>1740</ele>
        <time>2013-01-07T09:26:27.000Z</time>
      </trkpt>
      <trkpt lat="45.69366" lon="6.25769">
        <ele>1742.4000244141</ele>
        <time>2013-01-07T09:26:33.000Z</time>
      </trkpt>
      <trkpt lat="45.69361" lon="6.25766">
        <ele>1743.4000244141</ele>
        <time>2013-01-07T09:26:40.000Z</time>
      </trkpt>
      <trkpt lat="45.69357" lon="6.25765">
        <ele>1743.8000488281</ele>
        <time>2013-01-07T09:26:45.000Z</time>
      </trkpt>
      <trkpt lat="45.69353" lon="6.25764">
        <ele>1744.4000244141</ele>
        <time>2013-01-07T09:26:50.000Z</time>
      </trkpt>
      <trkpt lat="45.69353" lon="6.25764">
        <ele>1743.8000488281</ele>
        <time>2013-01-07T09:26:54.000Z</time>
      </trkpt>
      <trkpt lat="45.69351" lon="6.25764">
        <ele>1743.8000488281</ele>
        <time>2013-01-07T09:27:06.000Z</time>
      </trkpt>
      <trkpt lat="45.69351" lon="6.25766">
        <ele>1744.8000488281</ele>
        <time>2013-01-07T09:27:11.000Z</time>
      </trkpt>
      <trkpt lat="45.69351" lon="6.25766">
        <ele>1744.8000488281</ele>
        <time>2013-01-07T09:27:18.000Z</time>
      </trkpt>
      <trkpt lat="45.69351" lon="6.25769">
        <ele>1745.4000244141</ele>
        <time>2013-01-07T09:27:27.000Z</time>
      </trkpt>
      <trkpt lat="45.6935" lon="6.25774">
        <ele>1745.8000488281</ele>
        <time>2013-01-07T09:27:31.000Z</time>
      </trkpt>
      <trkpt lat="45.69349" lon="6.25776">
        <ele>1745.8000488281</ele>
        <time>2013-01-07T09:27:35.000Z</time>
      </trkpt>
      <trkpt lat="45.69346" lon="6.25773">
        <ele>1746.1999511719</ele>
        <time>2013-01-07T09:27:39.000Z</time>
      </trkpt>
      <trkpt lat="45.69344" lon="6.25772">
        <ele>1747.1999511719</ele>
        <time>2013-01-07T09:27:43.000Z</time>
      </trkpt>
      <trkpt lat="45.69339" lon="6.25769">
        <ele>1750.5999755859</ele>
        <time>2013-01-07T09:27:50.000Z</time>
      </trkpt>
      <trkpt lat="45.69336" lon="6.25764">
        <ele>1753</ele>
        <time>2013-01-07T09:27:56.000Z</time>
      </trkpt>
      <trkpt lat="45.69334" lon="6.25759">
        <ele>1754.4000244141</ele>
        <time>2013-01-07T09:28:01.000Z</time>
      </trkpt>
      <trkpt lat="45.69332" lon="6.25755">
        <ele>1755</ele>
        <time>2013-01-07T09:28:07.000Z</time>
      </trkpt>
      <trkpt lat="45.6933" lon="6.25752">
        <ele>1755.8000488281</ele>
        <time>2013-01-07T09:28:13.000Z</time>
      </trkpt>
      <trkpt lat="45.6933" lon="6.25752">
        <ele>1755.8000488281</ele>
        <time>2013-01-07T09:28:23.000Z</time>
      </trkpt>
      <trkpt lat="45.6933" lon="6.25752">
        <ele>1756.4000244141</ele>
        <time>2013-01-07T09:28:38.000Z</time>
      </trkpt>
      <trkpt lat="45.69329" lon="6.25753">
        <ele>1756.4000244141</ele>
        <time>2013-01-07T09:28:43.000Z</time>
      </trkpt>
      <trkpt lat="45.69329" lon="6.25755">
        <ele>1756.8000488281</ele>
        <time>2013-01-07T09:28:48.000Z</time>
      </trkpt>
      <trkpt lat="45.69327" lon="6.2576">
        <ele>1758.8000488281</ele>
        <time>2013-01-07T09:28:55.000Z</time>
      </trkpt>
      <trkpt lat="45.69327" lon="6.2576">
        <ele>1759.8000488281</ele>
        <time>2013-01-07T09:29:01.000Z</time>
      </trkpt>
      <trkpt lat="45.69326" lon="6.25762">
        <ele>1760.5999755859</ele>
        <time>2013-01-07T09:29:08.000Z</time>
      </trkpt>
      <trkpt lat="45.69325" lon="6.25765">
        <ele>1760.5999755859</ele>
        <time>2013-01-07T09:29:13.000Z</time>
      </trkpt>
      <trkpt lat="45.69323" lon="6.25771">
        <ele>1761.1999511719</ele>
        <time>2013-01-07T09:29:20.000Z</time>
      </trkpt>
      <trkpt lat="45.69322" lon="6.25776">
        <ele>1760.5999755859</ele>
        <time>2013-01-07T09:29:25.000Z</time>
      </trkpt>
      <trkpt lat="45.69321" lon="6.2578">
        <ele>1761.1999511719</ele>
        <time>2013-01-07T09:29:30.000Z</time>
      </trkpt>
      <trkpt lat="45.69321" lon="6.25785">
        <ele>1761.5999755859</ele>
        <time>2013-01-07T09:29:34.000Z</time>
      </trkpt>
      <trkpt lat="45.69321" lon="6.25788">
        <ele>1762.1999511719</ele>
        <time>2013-01-07T09:29:38.000Z</time>
      </trkpt>
      <trkpt lat="45.69321" lon="6.25792">
        <ele>1763</ele>
        <time>2013-01-07T09:29:43.000Z</time>
      </trkpt>
      <trkpt lat="45.6932" lon="6.25795">
        <ele>1765</ele>
        <time>2013-01-07T09:29:48.000Z</time>
      </trkpt>
      <trkpt lat="45.69319" lon="6.25798">
        <ele>1765</ele>
        <time>2013-01-07T09:29:52.000Z</time>
      </trkpt>
      <trkpt lat="45.69318" lon="6.25801">
        <ele>1764.5999755859</ele>
        <time>2013-01-07T09:29:56.000Z</time>
      </trkpt>
      <trkpt lat="45.69318" lon="6.25804">
        <ele>1766</ele>
        <time>2013-01-07T09:30:01.000Z</time>
      </trkpt>
      <trkpt lat="45.69319" lon="6.25808">
        <ele>1768</ele>
        <time>2013-01-07T09:30:06.000Z</time>
      </trkpt>
      <trkpt lat="45.6932" lon="6.25811">
        <ele>1768.8000488281</ele>
        <time>2013-01-07T09:30:10.000Z</time>
      </trkpt>
      <trkpt lat="45.6932" lon="6.25814">
        <ele>1770.4000244141</ele>
        <time>2013-01-07T09:30:14.000Z</time>
      </trkpt>
      <trkpt lat="45.6932" lon="6.25818">
        <ele>1770.8000488281</ele>
        <time>2013-01-07T09:30:18.000Z</time>
      </trkpt>
      <trkpt lat="45.69321" lon="6.25821">
        <ele>1772.8000488281</ele>
        <time>2013-01-07T09:30:22.000Z</time>
      </trkpt>
      <trkpt lat="45.69322" lon="6.25825">
        <ele>1773.5999755859</ele>
        <time>2013-01-07T09:30:26.000Z</time>
      </trkpt>
      <trkpt lat="45.69324" lon="6.25828">
        <ele>1775.1999511719</ele>
        <time>2013-01-07T09:30:29.000Z</time>
      </trkpt>
      <trkpt lat="45.69326" lon="6.25831">
        <ele>1778.4000244141</ele>
        <time>2013-01-07T09:30:34.000Z</time>
      </trkpt>
      <trkpt lat="45.69327" lon="6.25833">
        <ele>1781.8000488281</ele>
        <time>2013-01-07T09:30:38.000Z</time>
      </trkpt>
      <trkpt lat="45.69327" lon="6.25838">
        <ele>1782.4000244141</ele>
        <time>2013-01-07T09:30:44.000Z</time>
      </trkpt>
      <trkpt lat="45.69323" lon="6.25837">
        <ele>1780.8000488281</ele>
        <time>2013-01-07T09:30:49.000Z</time>
      </trkpt>
      <trkpt lat="45.69318" lon="6.25835">
        <ele>1780.8000488281</ele>
        <time>2013-01-07T09:30:55.000Z</time>
      </trkpt>
      <trkpt lat="45.69315" lon="6.25834">
        <ele>1780.8000488281</ele>
        <time>2013-01-07T09:31:00.000Z</time>
      </trkpt>
      <trkpt lat="45.69311" lon="6.25833">
        <ele>1782.4000244141</ele>
        <time>2013-01-07T09:31:05.000Z</time>
      </trkpt>
      <trkpt lat="45.69307" lon="6.25832">
        <ele>1783.8000488281</ele>
        <time>2013-01-07T09:31:10.000Z</time>
      </trkpt>
      <trkpt lat="45.69304" lon="6.25831">
        <ele>1784.8000488281</ele>
        <time>2013-01-07T09:31:16.000Z</time>
      </trkpt>
      <trkpt lat="45.69304" lon="6.25833">
        <ele>1785.1999511719</ele>
        <time>2013-01-07T09:31:20.000Z</time>
      </trkpt>
      <trkpt lat="45.69305" lon="6.25838">
        <ele>1786.5999755859</ele>
        <time>2013-01-07T09:31:25.000Z</time>
      </trkpt>
      <trkpt lat="45.69306" lon="6.25842">
        <ele>1786.1999511719</ele>
        <time>2013-01-07T09:31:29.000Z</time>
      </trkpt>
      <trkpt lat="45.69308" lon="6.25847">
        <ele>1787.1999511719</ele>
        <time>2013-01-07T09:31:34.000Z</time>
      </trkpt>
      <trkpt lat="45.69309" lon="6.25852">
        <ele>1789</ele>
        <time>2013-01-07T09:31:39.000Z</time>
      </trkpt>
      <trkpt lat="45.69309" lon="6.25855">
        <ele>1789</ele>
        <time>2013-01-07T09:31:43.000Z</time>
      </trkpt>
      <trkpt lat="45.69309" lon="6.25855">
        <ele>1789</ele>
        <time>2013-01-07T09:31:50.000Z</time>
      </trkpt>
      <trkpt lat="45.6931" lon="6.25854">
        <ele>1788.5999755859</ele>
        <time>2013-01-07T09:32:16.000Z</time>
      </trkpt>
      <trkpt lat="45.6931" lon="6.25859">
        <ele>1789</ele>
        <time>2013-01-07T09:32:24.000Z</time>
      </trkpt>
      <trkpt lat="45.69309" lon="6.25864">
        <ele>1789</ele>
        <time>2013-01-07T09:32:29.000Z</time>
      </trkpt>
      <trkpt lat="45.69309" lon="6.25866">
        <ele>1790</ele>
        <time>2013-01-07T09:32:32.000Z</time>
      </trkpt>
      <trkpt lat="45.6931" lon="6.25872">
        <ele>1792</ele>
        <time>2013-01-07T09:32:38.000Z</time>
      </trkpt>
      <trkpt lat="45.69311" lon="6.25877">
        <ele>1792.4000244141</ele>
        <time>2013-01-07T09:32:43.000Z</time>
      </trkpt>
      <trkpt lat="45.69311" lon="6.2588">
        <ele>1792.8000488281</ele>
        <time>2013-01-07T09:32:46.000Z</time>
      </trkpt>
      <trkpt lat="45.69311" lon="6.25885">
        <ele>1792.8000488281</ele>
        <time>2013-01-07T09:32:50.000Z</time>
      </trkpt>
      <trkpt lat="45.69309" lon="6.2589">
        <ele>1793.4000244141</ele>
        <time>2013-01-07T09:32:55.000Z</time>
      </trkpt>
      <trkpt lat="45.69309" lon="6.25893">
        <ele>1793.8000488281</ele>
        <time>2013-01-07T09:32:58.000Z</time>
      </trkpt>
      <trkpt lat="45.69308" lon="6.25897">
        <ele>1793.8000488281</ele>
        <time>2013-01-07T09:33:02.000Z</time>
      </trkpt>
      <trkpt lat="45.69306" lon="6.25895">
        <ele>1794.8000488281</ele>
        <time>2013-01-07T09:33:06.000Z</time>
      </trkpt>
      <trkpt lat="45.69303" lon="6.25893">
        <ele>1795.8000488281</ele>
        <time>2013-01-07T09:33:10.000Z</time>
      </trkpt>
      <trkpt lat="45.693" lon="6.2589">
        <ele>1795.8000488281</ele>
        <time>2013-01-07T09:33:16.000Z</time>
      </trkpt>
      <trkpt lat="45.69296" lon="6.25887">
        <ele>1796.1999511719</ele>
        <time>2013-01-07T09:33:22.000Z</time>
      </trkpt>
      <trkpt lat="45.69294" lon="6.25885">
        <ele>1796.1999511719</ele>
        <time>2013-01-07T09:33:26.000Z</time>
      </trkpt>
      <trkpt lat="45.6929" lon="6.25883">
        <ele>1797.1999511719</ele>
        <time>2013-01-07T09:33:32.000Z</time>
      </trkpt>
      <trkpt lat="45.69286" lon="6.25881">
        <ele>1798.5999755859</ele>
        <time>2013-01-07T09:33:38.000Z</time>
      </trkpt>
      <trkpt lat="45.69282" lon="6.2588">
        <ele>1798.1999511719</ele>
        <time>2013-01-07T09:33:43.000Z</time>
      </trkpt>
      <trkpt lat="45.6928" lon="6.25878">
        <ele>1798.5999755859</ele>
        <time>2013-01-07T09:33:47.000Z</time>
      </trkpt>
      <trkpt lat="45.69278" lon="6.25877">
        <ele>1799.5999755859</ele>
        <time>2013-01-07T09:33:52.000Z</time>
      </trkpt>
      <trkpt lat="45.69276" lon="6.25876">
        <ele>1801</ele>
        <time>2013-01-07T09:33:57.000Z</time>
      </trkpt>
      <trkpt lat="45.69277" lon="6.2588">
        <ele>1802.5999755859</ele>
        <time>2013-01-07T09:34:02.000Z</time>
      </trkpt>
      <trkpt lat="45.69277" lon="6.25882">
        <ele>1803.4000244141</ele>
        <time>2013-01-07T09:34:06.000Z</time>
      </trkpt>
      <trkpt lat="45.69277" lon="6.25888">
        <ele>1804.4000244141</ele>
        <time>2013-01-07T09:34:12.000Z</time>
      </trkpt>
      <trkpt lat="45.69278" lon="6.25892">
        <ele>1805.4000244141</ele>
        <time>2013-01-07T09:34:17.000Z</time>
      </trkpt>
      <trkpt lat="45.69279" lon="6.25895">
        <ele>1806.4000244141</ele>
        <time>2013-01-07T09:34:20.000Z</time>
      </trkpt>
      <trkpt lat="45.69279" lon="6.25898">
        <ele>1807.4000244141</ele>
        <time>2013-01-07T09:34:24.000Z</time>
      </trkpt>
      <trkpt lat="45.6928" lon="6.25902">
        <ele>1808.1999511719</ele>
        <time>2013-01-07T09:34:28.000Z</time>
      </trkpt>
      <trkpt lat="45.69281" lon="6.25907">
        <ele>1810.5999755859</ele>
        <time>2013-01-07T09:34:33.000Z</time>
      </trkpt>
      <trkpt lat="45.69281" lon="6.25911">
        <ele>1812.1999511719</ele>
        <time>2013-01-07T09:34:38.000Z</time>
      </trkpt>
      <trkpt lat="45.69281" lon="6.25915">
        <ele>1812.5999755859</ele>
        <time>2013-01-07T09:34:43.000Z</time>
      </trkpt>
      <trkpt lat="45.69277" lon="6.25913">
        <ele>1811.5999755859</ele>
        <time>2013-01-07T09:34:49.000Z</time>
      </trkpt>
      <trkpt lat="45.69273" lon="6.2591">
        <ele>1812.1999511719</ele>
        <time>2013-01-07T09:34:55.000Z</time>
      </trkpt>
      <trkpt lat="45.69269" lon="6.25907">
        <ele>1812.1999511719</ele>
        <time>2013-01-07T09:35:00.000Z</time>
      </trkpt>
      <trkpt lat="45.69266" lon="6.25903">
        <ele>1812.5999755859</ele>
        <time>2013-01-07T09:35:04.000Z</time>
      </trkpt>
      <trkpt lat="45.69263" lon="6.259">
        <ele>1813.5999755859</ele>
        <time>2013-01-07T09:35:09.000Z</time>
      </trkpt>
      <trkpt lat="45.6926" lon="6.25898">
        <ele>1814</ele>
        <time>2013-01-07T09:35:12.000Z</time>
      </trkpt>
      <trkpt lat="45.69257" lon="6.25896">
        <ele>1814</ele>
        <time>2013-01-07T09:35:17.000Z</time>
      </trkpt>
      <trkpt lat="45.69256" lon="6.25895">
        <ele>1815.4000244141</ele>
        <time>2013-01-07T09:35:23.000Z</time>
      </trkpt>
      <trkpt lat="45.69253" lon="6.25895">
        <ele>1816.4000244141</ele>
        <time>2013-01-07T09:35:29.000Z</time>
      </trkpt>
      <trkpt lat="45.6925" lon="6.25893">
        <ele>1817</ele>
        <time>2013-01-07T09:35:33.000Z</time>
      </trkpt>
      <trkpt lat="45.6925" lon="6.25893">
        <ele>1817.8000488281</ele>
        <time>2013-01-07T09:35:39.000Z</time>
      </trkpt>
      <trkpt lat="45.69251" lon="6.25896">
        <ele>1818.4000244141</ele>
        <time>2013-01-07T09:35:43.000Z</time>
      </trkpt>
      <trkpt lat="45.69251" lon="6.25899">
        <ele>1819.4000244141</ele>
        <time>2013-01-07T09:35:47.000Z</time>
      </trkpt>
      <trkpt lat="45.69252" lon="6.25903">
        <ele>1821.1999511719</ele>
        <time>2013-01-07T09:35:51.000Z</time>
      </trkpt>
      <trkpt lat="45.69254" lon="6.25905">
        <ele>1822.5999755859</ele>
        <time>2013-01-07T09:35:56.000Z</time>
      </trkpt>
      <trkpt lat="45.69254" lon="6.25909">
        <ele>1823.1999511719</ele>
        <time>2013-01-07T09:36:00.000Z</time>
      </trkpt>
      <trkpt lat="45.69256" lon="6.25915">
        <ele>1826</ele>
        <time>2013-01-07T09:36:06.000Z</time>
      </trkpt>
      <trkpt lat="45.69256" lon="6.2592">
        <ele>1827.5999755859</ele>
        <time>2013-01-07T09:36:11.000Z</time>
      </trkpt>
      <trkpt lat="45.69256" lon="6.25924">
        <ele>1827</ele>
        <time>2013-01-07T09:36:14.000Z</time>
      </trkpt>
      <trkpt lat="45.69254" lon="6.25923">
        <ele>1826</ele>
        <time>2013-01-07T09:36:19.000Z</time>
      </trkpt>
      <trkpt lat="45.69251" lon="6.25921">
        <ele>1827</ele>
        <time>2013-01-07T09:36:24.000Z</time>
      </trkpt>
      <trkpt lat="45.6925" lon="6.2592">
        <ele>1827</ele>
        <time>2013-01-07T09:36:28.000Z</time>
      </trkpt>
      <trkpt lat="45.69247" lon="6.25918">
        <ele>1827.5999755859</ele>
        <time>2013-01-07T09:36:37.000Z</time>
      </trkpt>
      <trkpt lat="45.69243" lon="6.25916">
        <ele>1829</ele>
        <time>2013-01-07T09:36:43.000Z</time>
      </trkpt>
      <trkpt lat="45.6924" lon="6.25914">
        <ele>1829</ele>
        <time>2013-01-07T09:36:47.000Z</time>
      </trkpt>
      <trkpt lat="45.69238" lon="6.25912">
        <ele>1830</ele>
        <time>2013-01-07T09:36:53.000Z</time>
      </trkpt>
      <trkpt lat="45.69234" lon="6.25909">
        <ele>1830</ele>
        <time>2013-01-07T09:36:58.000Z</time>
      </trkpt>
      <trkpt lat="45.69231" lon="6.25907">
        <ele>1830</ele>
        <time>2013-01-07T09:37:02.000Z</time>
      </trkpt>
      <trkpt lat="45.69231" lon="6.25907">
        <ele>1830.8000488281</ele>
        <time>2013-01-07T09:37:07.000Z</time>
      </trkpt>
      <trkpt lat="45.69231" lon="6.25908">
        <ele>1831.8000488281</ele>
        <time>2013-01-07T09:37:13.000Z</time>
      </trkpt>
      <trkpt lat="45.69232" lon="6.25911">
        <ele>1832.4000244141</ele>
        <time>2013-01-07T09:37:19.000Z</time>
      </trkpt>
      <trkpt lat="45.69232" lon="6.25915">
        <ele>1833.1999511719</ele>
        <time>2013-01-07T09:37:23.000Z</time>
      </trkpt>
      <trkpt lat="45.69232" lon="6.25919">
        <ele>1833.8000488281</ele>
        <time>2013-01-07T09:37:27.000Z</time>
      </trkpt>
      <trkpt lat="45.69233" lon="6.25923">
        <ele>1835.1999511719</ele>
        <time>2013-01-07T09:37:32.000Z</time>
      </trkpt>
      <trkpt lat="45.69234" lon="6.25927">
        <ele>1836.1999511719</ele>
        <time>2013-01-07T09:37:36.000Z</time>
      </trkpt>
      <trkpt lat="45.69236" lon="6.25931">
        <ele>1838.5999755859</ele>
        <time>2013-01-07T09:37:41.000Z</time>
      </trkpt>
      <trkpt lat="45.69237" lon="6.25936">
        <ele>1839.5999755859</ele>
        <time>2013-01-07T09:37:46.000Z</time>
      </trkpt>
      <trkpt lat="45.69238" lon="6.25939">
        <ele>1839.5999755859</ele>
        <time>2013-01-07T09:37:49.000Z</time>
      </trkpt>
      <trkpt lat="45.69241" lon="6.25942">
        <ele>1839.5999755859</ele>
        <time>2013-01-07T09:37:52.000Z</time>
      </trkpt>
      <trkpt lat="45.69242" lon="6.25946">
        <ele>1841.4000244141</ele>
        <time>2013-01-07T09:37:57.000Z</time>
      </trkpt>
      <trkpt lat="45.69242" lon="6.2595">
        <ele>1843.8000488281</ele>
        <time>2013-01-07T09:38:02.000Z</time>
      </trkpt>
      <trkpt lat="45.69243" lon="6.25953">
        <ele>1843.8000488281</ele>
        <time>2013-01-07T09:38:06.000Z</time>
      </trkpt>
      <trkpt lat="45.69242" lon="6.25955">
        <ele>1842.4000244141</ele>
        <time>2013-01-07T09:38:11.000Z</time>
      </trkpt>
      <trkpt lat="45.69238" lon="6.25953">
        <ele>1841.4000244141</ele>
        <time>2013-01-07T09:38:17.000Z</time>
      </trkpt>
      <trkpt lat="45.69237" lon="6.25951">
        <ele>1841.4000244141</ele>
        <time>2013-01-07T09:38:21.000Z</time>
      </trkpt>
      <trkpt lat="45.69234" lon="6.25948">
        <ele>1842.4000244141</ele>
        <time>2013-01-07T09:38:26.000Z</time>
      </trkpt>
      <trkpt lat="45.69229" lon="6.25946">
        <ele>1843.4000244141</ele>
        <time>2013-01-07T09:38:32.000Z</time>
      </trkpt>
      <trkpt lat="45.69228" lon="6.25945">
        <ele>1843.8000488281</ele>
        <time>2013-01-07T09:38:36.000Z</time>
      </trkpt>
      <trkpt lat="45.69228" lon="6.25945">
        <ele>1843.8000488281</ele>
        <time>2013-01-07T09:38:41.000Z</time>
      </trkpt>
      <trkpt lat="45.69227" lon="6.25945">
        <ele>1844.4000244141</ele>
        <time>2013-01-07T09:38:48.000Z</time>
      </trkpt>
      <trkpt lat="45.69227" lon="6.25946">
        <ele>1845.1999511719</ele>
        <time>2013-01-07T09:38:53.000Z</time>
      </trkpt>
      <trkpt lat="45.69229" lon="6.25949">
        <ele>1848.5999755859</ele>
        <time>2013-01-07T09:38:57.000Z</time>
      </trkpt>
      <trkpt lat="45.6923" lon="6.25953">
        <ele>1851</ele>
        <time>2013-01-07T09:39:01.000Z</time>
      </trkpt>
      <trkpt lat="45.69232" lon="6.25958">
        <ele>1853</ele>
        <time>2013-01-07T09:39:05.000Z</time>
      </trkpt>
      <trkpt lat="45.69232" lon="6.25963">
        <ele>1853</ele>
        <time>2013-01-07T09:39:10.000Z</time>
      </trkpt>
      <trkpt lat="45.69232" lon="6.25967">
        <ele>1853.4000244141</ele>
        <time>2013-01-07T09:39:14.000Z</time>
      </trkpt>
      <trkpt lat="45.69231" lon="6.2597">
        <ele>1854</ele>
        <time>2013-01-07T09:39:18.000Z</time>
      </trkpt>
      <trkpt lat="45.69232" lon="6.25974">
        <ele>1855</ele>
        <time>2013-01-07T09:39:23.000Z</time>
      </trkpt>
      <trkpt lat="45.69232" lon="6.25978">
        <ele>1855</ele>
        <time>2013-01-07T09:39:27.000Z</time>
      </trkpt>
      <trkpt lat="45.69232" lon="6.25982">
        <ele>1855.4000244141</ele>
        <time>2013-01-07T09:39:32.000Z</time>
      </trkpt>
      <trkpt lat="45.69232" lon="6.25985">
        <ele>1855.8000488281</ele>
        <time>2013-01-07T09:39:35.000Z</time>
      </trkpt>
      <trkpt lat="45.6923" lon="6.25986">
        <ele>1855</ele>
        <time>2013-01-07T09:39:39.000Z</time>
      </trkpt>
      <trkpt lat="45.69227" lon="6.25983">
        <ele>1855</ele>
        <time>2013-01-07T09:39:44.000Z</time>
      </trkpt>
      <trkpt lat="45.69223" lon="6.25981">
        <ele>1855</ele>
        <time>2013-01-07T09:39:49.000Z</time>
      </trkpt>
      <trkpt lat="45.69221" lon="6.25978">
        <ele>1856.4000244141</ele>
        <time>2013-01-07T09:39:55.000Z</time>
      </trkpt>
      <trkpt lat="45.69217" lon="6.25976">
        <ele>1857.4000244141</ele>
        <time>2013-01-07T09:40:01.000Z</time>
      </trkpt>
      <trkpt lat="45.69215" lon="6.25974">
        <ele>1857.8000488281</ele>
        <time>2013-01-07T09:40:06.000Z</time>
      </trkpt>
      <trkpt lat="45.69213" lon="6.25974">
        <ele>1858.8000488281</ele>
        <time>2013-01-07T09:40:11.000Z</time>
      </trkpt>
      <trkpt lat="45.69214" lon="6.25977">
        <ele>1860.5999755859</ele>
        <time>2013-01-07T09:40:16.000Z</time>
      </trkpt>
      <trkpt lat="45.69215" lon="6.25981">
        <ele>1861.5999755859</ele>
        <time>2013-01-07T09:40:20.000Z</time>
      </trkpt>
      <trkpt lat="45.69215" lon="6.25985">
        <ele>1862.1999511719</ele>
        <time>2013-01-07T09:40:24.000Z</time>
      </trkpt>
      <trkpt lat="45.69216" lon="6.2599">
        <ele>1863.5999755859</ele>
        <time>2013-01-07T09:40:29.000Z</time>
      </trkpt>
      <trkpt lat="45.69217" lon="6.25997">
        <ele>1864.5999755859</ele>
        <time>2013-01-07T09:40:37.000Z</time>
      </trkpt>
      <trkpt lat="45.69218" lon="6.26002">
        <ele>1866.4000244141</ele>
        <time>2013-01-07T09:40:43.000Z</time>
      </trkpt>
      <trkpt lat="45.69219" lon="6.26007">
        <ele>1866.4000244141</ele>
        <time>2013-01-07T09:40:48.000Z</time>
      </trkpt>
      <trkpt lat="45.69217" lon="6.26006">
        <ele>1866</ele>
        <time>2013-01-07T09:40:53.000Z</time>
      </trkpt>
      <trkpt lat="45.69214" lon="6.26004">
        <ele>1866</ele>
        <time>2013-01-07T09:40:59.000Z</time>
      </trkpt>
      <trkpt lat="45.69214" lon="6.26001">
        <ele>1864.5999755859</ele>
        <time>2013-01-07T09:41:20.000Z</time>
      </trkpt>
      <trkpt lat="45.69212" lon="6.25999">
        <ele>1864</ele>
        <time>2013-01-07T09:41:22.000Z</time>
      </trkpt>
      <trkpt lat="45.69207" lon="6.25993">
        <ele>1864</ele>
        <time>2013-01-07T09:41:29.000Z</time>
      </trkpt>
      <trkpt lat="45.69204" lon="6.25991">
        <ele>1865</ele>
        <time>2013-01-07T09:41:34.000Z</time>
      </trkpt>
      <trkpt lat="45.69204" lon="6.25992">
        <ele>1866</ele>
        <time>2013-01-07T09:41:39.000Z</time>
      </trkpt>
      <trkpt lat="45.69204" lon="6.25996">
        <ele>1867.8000488281</ele>
        <time>2013-01-07T09:41:44.000Z</time>
      </trkpt>
      <trkpt lat="45.69204" lon="6.26">
        <ele>1869.8000488281</ele>
        <time>2013-01-07T09:41:49.000Z</time>
      </trkpt>
      <trkpt lat="45.69203" lon="6.26006">
        <ele>1871.1999511719</ele>
        <time>2013-01-07T09:41:53.000Z</time>
      </trkpt>
      <trkpt lat="45.69203" lon="6.2601">
        <ele>1872.1999511719</ele>
        <time>2013-01-07T09:41:57.000Z</time>
      </trkpt>
      <trkpt lat="45.69204" lon="6.26014">
        <ele>1873.5999755859</ele>
        <time>2013-01-07T09:42:02.000Z</time>
      </trkpt>
      <trkpt lat="45.69204" lon="6.26017">
        <ele>1874.5999755859</ele>
        <time>2013-01-07T09:42:06.000Z</time>
      </trkpt>
      <trkpt lat="45.69205" lon="6.2602">
        <ele>1875</ele>
        <time>2013-01-07T09:42:11.000Z</time>
      </trkpt>
      <trkpt lat="45.69202" lon="6.26019">
        <ele>1875.5999755859</ele>
        <time>2013-01-07T09:42:18.000Z</time>
      </trkpt>
      <trkpt lat="45.69199" lon="6.26017">
        <ele>1876</ele>
        <time>2013-01-07T09:42:24.000Z</time>
      </trkpt>
      <trkpt lat="45.69196" lon="6.26016">
        <ele>1876</ele>
        <time>2013-01-07T09:42:30.000Z</time>
      </trkpt>
      <trkpt lat="45.69193" lon="6.26014">
        <ele>1876.5999755859</ele>
        <time>2013-01-07T09:42:34.000Z</time>
      </trkpt>
      <trkpt lat="45.69191" lon="6.26012">
        <ele>1878</ele>
        <time>2013-01-07T09:42:39.000Z</time>
      </trkpt>
      <trkpt lat="45.69187" lon="6.26009">
        <ele>1879</ele>
        <time>2013-01-07T09:42:44.000Z</time>
      </trkpt>
      <trkpt lat="45.69187" lon="6.26009">
        <ele>1879.4000244141</ele>
        <time>2013-01-07T09:42:48.000Z</time>
      </trkpt>
      <trkpt lat="45.69188" lon="6.26013">
        <ele>1880.8000488281</ele>
        <time>2013-01-07T09:42:53.000Z</time>
      </trkpt>
      <trkpt lat="45.69189" lon="6.26018">
        <ele>1883.1999511719</ele>
        <time>2013-01-07T09:42:58.000Z</time>
      </trkpt>
      <trkpt lat="45.69189" lon="6.2602">
        <ele>1884.8000488281</ele>
        <time>2013-01-07T09:43:02.000Z</time>
      </trkpt>
      <trkpt lat="45.69188" lon="6.26023">
        <ele>1886.1999511719</ele>
        <time>2013-01-07T09:43:07.000Z</time>
      </trkpt>
      <trkpt lat="45.69189" lon="6.26026">
        <ele>1887.1999511719</ele>
        <time>2013-01-07T09:43:11.000Z</time>
      </trkpt>
      <trkpt lat="45.6919" lon="6.26031">
        <ele>1887.5999755859</ele>
        <time>2013-01-07T09:43:16.000Z</time>
      </trkpt>
      <trkpt lat="45.6919" lon="6.26036">
        <ele>1886.5999755859</ele>
        <time>2013-01-07T09:43:21.000Z</time>
      </trkpt>
      <trkpt lat="45.69189" lon="6.26039">
        <ele>1887.1999511719</ele>
        <time>2013-01-07T09:43:27.000Z</time>
      </trkpt>
      <trkpt lat="45.69185" lon="6.26036">
        <ele>1887.5999755859</ele>
        <time>2013-01-07T09:43:34.000Z</time>
      </trkpt>
      <trkpt lat="45.69181" lon="6.26034">
        <ele>1888</ele>
        <time>2013-01-07T09:43:38.000Z</time>
      </trkpt>
      <trkpt lat="45.69179" lon="6.26031">
        <ele>1889</ele>
        <time>2013-01-07T09:43:44.000Z</time>
      </trkpt>
      <trkpt lat="45.69177" lon="6.2603">
        <ele>1891</ele>
        <time>2013-01-07T09:43:49.000Z</time>
      </trkpt>
      <trkpt lat="45.69174" lon="6.26028">
        <ele>1891.4000244141</ele>
        <time>2013-01-07T09:43:54.000Z</time>
      </trkpt>
      <trkpt lat="45.69172" lon="6.26026">
        <ele>1891.4000244141</ele>
        <time>2013-01-07T09:43:58.000Z</time>
      </trkpt>
      <trkpt lat="45.69172" lon="6.26028">
        <ele>1891.4000244141</ele>
        <time>2013-01-07T09:44:03.000Z</time>
      </trkpt>
      <trkpt lat="45.69173" lon="6.2603">
        <ele>1891.4000244141</ele>
        <time>2013-01-07T09:44:07.000Z</time>
      </trkpt>
      <trkpt lat="45.69173" lon="6.26033">
        <ele>1892</ele>
        <time>2013-01-07T09:44:11.000Z</time>
      </trkpt>
      <trkpt lat="45.69173" lon="6.26038">
        <ele>1893.4000244141</ele>
        <time>2013-01-07T09:44:16.000Z</time>
      </trkpt>
      <trkpt lat="45.69173" lon="6.26044">
        <ele>1894.8000488281</ele>
        <time>2013-01-07T09:44:22.000Z</time>
      </trkpt>
      <trkpt lat="45.69174" lon="6.26049">
        <ele>1896.1999511719</ele>
        <time>2013-01-07T09:44:27.000Z</time>
      </trkpt>
      <trkpt lat="45.69174" lon="6.26056">
        <ele>1897.5999755859</ele>
        <time>2013-01-07T09:44:32.000Z</time>
      </trkpt>
      <trkpt lat="45.69175" lon="6.2606">
        <ele>1898.1999511719</ele>
        <time>2013-01-07T09:44:37.000Z</time>
      </trkpt>
      <trkpt lat="45.69173" lon="6.26058">
        <ele>1899.1999511719</ele>
        <time>2013-01-07T09:44:41.000Z</time>
      </trkpt>
      <trkpt lat="45.69171" lon="6.26056">
        <ele>1900</ele>
        <time>2013-01-07T09:44:46.000Z</time>
      </trkpt>
      <trkpt lat="45.69171" lon="6.26056">
        <ele>1900.5999755859</ele>
        <time>2013-01-07T09:44:56.000Z</time>
      </trkpt>
      <trkpt lat="45.69171" lon="6.26057">
        <ele>1901</ele>
        <time>2013-01-07T09:45:06.000Z</time>
      </trkpt>
      <trkpt lat="45.6917" lon="6.26056">
        <ele>1901.5999755859</ele>
        <time>2013-01-07T09:45:24.000Z</time>
      </trkpt>
      <trkpt lat="45.69168" lon="6.26053">
        <ele>1902</ele>
        <time>2013-01-07T09:45:28.000Z</time>
      </trkpt>
      <trkpt lat="45.69166" lon="6.26052">
        <ele>1903</ele>
        <time>2013-01-07T09:45:33.000Z</time>
      </trkpt>
      <trkpt lat="45.69164" lon="6.26049">
        <ele>1904</ele>
        <time>2013-01-07T09:45:37.000Z</time>
      </trkpt>
      <trkpt lat="45.6916" lon="6.26046">
        <ele>1905.4000244141</ele>
        <time>2013-01-07T09:45:43.000Z</time>
      </trkpt>
      <trkpt lat="45.69157" lon="6.26043">
        <ele>1905.8000488281</ele>
        <time>2013-01-07T09:45:48.000Z</time>
      </trkpt>
      <trkpt lat="45.69154" lon="6.2604">
        <ele>1907.8000488281</ele>
        <time>2013-01-07T09:45:54.000Z</time>
      </trkpt>
      <trkpt lat="45.69154" lon="6.2604">
        <ele>1907.8000488281</ele>
        <time>2013-01-07T09:45:55.000Z</time>
      </trkpt>
      <trkpt lat="45.69152" lon="6.26037">
        <ele>1907.8000488281</ele>
        <time>2013-01-07T09:45:57.000Z</time>
      </trkpt>
      <trkpt lat="45.69151" lon="6.26037">
        <ele>1907.1999511719</ele>
        <time>2013-01-07T09:46:04.000Z</time>
      </trkpt>
      <trkpt lat="45.69149" lon="6.26039">
        <ele>1907.1999511719</ele>
        <time>2013-01-07T09:46:08.000Z</time>
      </trkpt>
      <trkpt lat="45.6915" lon="6.2604">
        <ele>1906.8000488281</ele>
        <time>2013-01-07T09:46:13.000Z</time>
      </trkpt>
      <trkpt lat="45.6915" lon="6.26041">
        <ele>1908.1999511719</ele>
        <time>2013-01-07T09:46:18.000Z</time>
      </trkpt>
      <trkpt lat="45.69151" lon="6.2604">
        <ele>1908.8000488281</ele>
        <time>2013-01-07T09:46:31.000Z</time>
      </trkpt>
      <trkpt lat="45.69151" lon="6.26041">
        <ele>1908.8000488281</ele>
        <time>2013-01-07T09:46:36.000Z</time>
      </trkpt>
      <trkpt lat="45.69152" lon="6.26044">
        <ele>1908.8000488281</ele>
        <time>2013-01-07T09:46:42.000Z</time>
      </trkpt>
      <trkpt lat="45.69152" lon="6.26047">
        <ele>1909.1999511719</ele>
        <time>2013-01-07T09:46:48.000Z</time>
      </trkpt>
      <trkpt lat="45.69152" lon="6.26048">
        <ele>1911.1999511719</ele>
        <time>2013-01-07T09:47:01.000Z</time>
      </trkpt>
      <trkpt lat="45.69153" lon="6.26053">
        <ele>1911.5999755859</ele>
        <time>2013-01-07T09:47:05.000Z</time>
      </trkpt>
      <trkpt lat="45.69154" lon="6.26057">
        <ele>1912.5999755859</ele>
        <time>2013-01-07T09:47:09.000Z</time>
      </trkpt>
      <trkpt lat="45.69154" lon="6.2606">
        <ele>1913</ele>
        <time>2013-01-07T09:47:14.000Z</time>
      </trkpt>
      <trkpt lat="45.69155" lon="6.26065">
        <ele>1914</ele>
        <time>2013-01-07T09:47:20.000Z</time>
      </trkpt>
      <trkpt lat="45.69154" lon="6.26066">
        <ele>1914</ele>
        <time>2013-01-07T09:47:25.000Z</time>
      </trkpt>
      <trkpt lat="45.69151" lon="6.26063">
        <ele>1914</ele>
        <time>2013-01-07T09:47:29.000Z</time>
      </trkpt>
      <trkpt lat="45.69147" lon="6.26061">
        <ele>1914</ele>
        <time>2013-01-07T09:47:33.000Z</time>
      </trkpt>
      <trkpt lat="45.69145" lon="6.26058">
        <ele>1914.5999755859</ele>
        <time>2013-01-07T09:47:37.000Z</time>
      </trkpt>
      <trkpt lat="45.69142" lon="6.26054">
        <ele>1916</ele>
        <time>2013-01-07T09:47:43.000Z</time>
      </trkpt>
      <trkpt lat="45.69138" lon="6.2605">
        <ele>1917</ele>
        <time>2013-01-07T09:47:48.000Z</time>
      </trkpt>
      <trkpt lat="45.69135" lon="6.26046">
        <ele>1918.4000244141</ele>
        <time>2013-01-07T09:47:53.000Z</time>
      </trkpt>
      <trkpt lat="45.69132" lon="6.26044">
        <ele>1919.4000244141</ele>
        <time>2013-01-07T09:47:58.000Z</time>
      </trkpt>
      <trkpt lat="45.69132" lon="6.26046">
        <ele>1920.8000488281</ele>
        <time>2013-01-07T09:48:04.000Z</time>
      </trkpt>
      <trkpt lat="45.69132" lon="6.26052">
        <ele>1921.1999511719</ele>
        <time>2013-01-07T09:48:10.000Z</time>
      </trkpt>
      <trkpt lat="45.69131" lon="6.26057">
        <ele>1922.1999511719</ele>
        <time>2013-01-07T09:48:14.000Z</time>
      </trkpt>
      <trkpt lat="45.69132" lon="6.2606">
        <ele>1923.5999755859</ele>
        <time>2013-01-07T09:48:18.000Z</time>
      </trkpt>
      <trkpt lat="45.69132" lon="6.26065">
        <ele>1923.5999755859</ele>
        <time>2013-01-07T09:48:24.000Z</time>
      </trkpt>
      <trkpt lat="45.69133" lon="6.26069">
        <ele>1924.5999755859</ele>
        <time>2013-01-07T09:48:28.000Z</time>
      </trkpt>
      <trkpt lat="45.69134" lon="6.26073">
        <ele>1926</ele>
        <time>2013-01-07T09:48:32.000Z</time>
      </trkpt>
      <trkpt lat="45.69134" lon="6.26078">
        <ele>1927</ele>
        <time>2013-01-07T09:48:37.000Z</time>
      </trkpt>
      <trkpt lat="45.69134" lon="6.26081">
        <ele>1927</ele>
        <time>2013-01-07T09:48:42.000Z</time>
      </trkpt>
      <trkpt lat="45.69134" lon="6.26085">
        <ele>1927.4000244141</ele>
        <time>2013-01-07T09:48:46.000Z</time>
      </trkpt>
      <trkpt lat="45.69133" lon="6.26084">
        <ele>1927.4000244141</ele>
        <time>2013-01-07T09:48:53.000Z</time>
      </trkpt>
      <trkpt lat="45.69133" lon="6.26084">
        <ele>1928</ele>
        <time>2013-01-07T09:48:54.000Z</time>
      </trkpt>
      <trkpt lat="45.69131" lon="6.26079">
        <ele>1927.4000244141</ele>
        <time>2013-01-07T09:48:58.000Z</time>
      </trkpt>
      <trkpt lat="45.69126" lon="6.26075">
        <ele>1929</ele>
        <time>2013-01-07T09:49:05.000Z</time>
      </trkpt>
      <trkpt lat="45.69122" lon="6.26071">
        <ele>1928.4000244141</ele>
        <time>2013-01-07T09:49:10.000Z</time>
      </trkpt>
      <trkpt lat="45.69118" lon="6.26069">
        <ele>1929.8000488281</ele>
        <time>2013-01-07T09:49:15.000Z</time>
      </trkpt>
      <trkpt lat="45.69115" lon="6.26067">
        <ele>1929.8000488281</ele>
        <time>2013-01-07T09:49:20.000Z</time>
      </trkpt>
      <trkpt lat="45.69113" lon="6.26065">
        <ele>1929.8000488281</ele>
        <time>2013-01-07T09:49:25.000Z</time>
      </trkpt>
      <trkpt lat="45.69111" lon="6.26061">
        <ele>1932.8000488281</ele>
        <time>2013-01-07T09:49:32.000Z</time>
      </trkpt>
      <trkpt lat="45.69109" lon="6.26059">
        <ele>1933.8000488281</ele>
        <time>2013-01-07T09:49:36.000Z</time>
      </trkpt>
      <trkpt lat="45.69107" lon="6.26056">
        <ele>1935.1999511719</ele>
        <time>2013-01-07T09:49:41.000Z</time>
      </trkpt>
      <trkpt lat="45.69107" lon="6.26056">
        <ele>1936.1999511719</ele>
        <time>2013-01-07T09:49:49.000Z</time>
      </trkpt>
      <trkpt lat="45.69106" lon="6.26055">
        <ele>1936.5999755859</ele>
        <time>2013-01-07T09:49:54.000Z</time>
      </trkpt>
      <trkpt lat="45.69105" lon="6.26053">
        <ele>1936.1999511719</ele>
        <time>2013-01-07T09:49:59.000Z</time>
      </trkpt>
      <trkpt lat="45.69105" lon="6.26054">
        <ele>1936.5999755859</ele>
        <time>2013-01-07T09:50:04.000Z</time>
      </trkpt>
      <trkpt lat="45.69106" lon="6.26054">
        <ele>1938</ele>
        <time>2013-01-07T09:50:13.000Z</time>
      </trkpt>
      <trkpt lat="45.69106" lon="6.26058">
        <ele>1939</ele>
        <time>2013-01-07T09:50:17.000Z</time>
      </trkpt>
      <trkpt lat="45.69106" lon="6.26062">
        <ele>1941</ele>
        <time>2013-01-07T09:50:22.000Z</time>
      </trkpt>
      <trkpt lat="45.69106" lon="6.26066">
        <ele>1941</ele>
        <time>2013-01-07T09:50:26.000Z</time>
      </trkpt>
      <trkpt lat="45.69105" lon="6.26068">
        <ele>1940.4000244141</ele>
        <time>2013-01-07T09:50:31.000Z</time>
      </trkpt>
      <trkpt lat="45.69105" lon="6.26069">
        <ele>1941</ele>
        <time>2013-01-07T09:50:37.000Z</time>
      </trkpt>
      <trkpt lat="45.69105" lon="6.26072">
        <ele>1943.4000244141</ele>
        <time>2013-01-07T09:50:47.000Z</time>
      </trkpt>
      <trkpt lat="45.69106" lon="6.26076">
        <ele>1943.4000244141</ele>
        <time>2013-01-07T09:50:52.000Z</time>
      </trkpt>
      <trkpt lat="45.69106" lon="6.2608">
        <ele>1943.4000244141</ele>
        <time>2013-01-07T09:50:57.000Z</time>
      </trkpt>
      <trkpt lat="45.69106" lon="6.26083">
        <ele>1944.8000488281</ele>
        <time>2013-01-07T09:51:02.000Z</time>
      </trkpt>
      <trkpt lat="45.69106" lon="6.26088">
        <ele>1945.1999511719</ele>
        <time>2013-01-07T09:51:07.000Z</time>
      </trkpt>
      <trkpt lat="45.69106" lon="6.26089">
        <ele>1946.1999511719</ele>
        <time>2013-01-07T09:51:14.000Z</time>
      </trkpt>
      <trkpt lat="45.69104" lon="6.26088">
        <ele>1947.5999755859</ele>
        <time>2013-01-07T09:51:21.000Z</time>
      </trkpt>
      <trkpt lat="45.691" lon="6.26085">
        <ele>1946.8000488281</ele>
        <time>2013-01-07T09:51:28.000Z</time>
      </trkpt>
      <trkpt lat="45.69099" lon="6.26083">
        <ele>1947.1999511719</ele>
        <time>2013-01-07T09:51:34.000Z</time>
      </trkpt>
      <trkpt lat="45.69098" lon="6.2608">
        <ele>1948.1999511719</ele>
        <time>2013-01-07T09:51:57.000Z</time>
      </trkpt>
      <trkpt lat="45.69097" lon="6.26079">
        <ele>1948.5999755859</ele>
        <time>2013-01-07T09:52:01.000Z</time>
      </trkpt>
      <trkpt lat="45.69092" lon="6.26072">
        <ele>1950</ele>
        <time>2013-01-07T09:52:09.000Z</time>
      </trkpt>
      <trkpt lat="45.6909" lon="6.26069">
        <ele>1951.5999755859</ele>
        <time>2013-01-07T09:52:13.000Z</time>
      </trkpt>
      <trkpt lat="45.69089" lon="6.26066">
        <ele>1952.4000244141</ele>
        <time>2013-01-07T09:52:21.000Z</time>
      </trkpt>
      <trkpt lat="45.69088" lon="6.26064">
        <ele>1953</ele>
        <time>2013-01-07T09:52:27.000Z</time>
      </trkpt>
      <trkpt lat="45.69087" lon="6.26066">
        <ele>1953.4000244141</ele>
        <time>2013-01-07T09:52:32.000Z</time>
      </trkpt>
      <trkpt lat="45.69086" lon="6.2607">
        <ele>1955.4000244141</ele>
        <time>2013-01-07T09:52:37.000Z</time>
      </trkpt>
      <trkpt lat="45.69086" lon="6.26074">
        <ele>1956.8000488281</ele>
        <time>2013-01-07T09:52:42.000Z</time>
      </trkpt>
      <trkpt lat="45.69086" lon="6.26077">
        <ele>1956.8000488281</ele>
        <time>2013-01-07T09:52:45.000Z</time>
      </trkpt>
      <trkpt lat="45.69086" lon="6.26081">
        <ele>1957.8000488281</ele>
        <time>2013-01-07T09:52:49.000Z</time>
      </trkpt>
      <trkpt lat="45.69086" lon="6.26083">
        <ele>1958.1999511719</ele>
        <time>2013-01-07T09:52:53.000Z</time>
      </trkpt>
      <trkpt lat="45.69086" lon="6.26088">
        <ele>1958.8000488281</ele>
        <time>2013-01-07T09:52:58.000Z</time>
      </trkpt>
      <trkpt lat="45.69086" lon="6.26091">
        <ele>1958.8000488281</ele>
        <time>2013-01-07T09:53:02.000Z</time>
      </trkpt>
      <trkpt lat="45.69086" lon="6.26096">
        <ele>1959.5999755859</ele>
        <time>2013-01-07T09:53:07.000Z</time>
      </trkpt>
      <trkpt lat="45.69086" lon="6.26098">
        <ele>1960.1999511719</ele>
        <time>2013-01-07T09:53:11.000Z</time>
      </trkpt>
      <trkpt lat="45.69086" lon="6.26104">
        <ele>1960.1999511719</ele>
        <time>2013-01-07T09:53:16.000Z</time>
      </trkpt>
      <trkpt lat="45.69084" lon="6.26102">
        <ele>1960.1999511719</ele>
        <time>2013-01-07T09:53:23.000Z</time>
      </trkpt>
      <trkpt lat="45.69082" lon="6.26099">
        <ele>1961.1999511719</ele>
        <time>2013-01-07T09:53:28.000Z</time>
      </trkpt>
      <trkpt lat="45.69079" lon="6.26095">
        <ele>1962</ele>
        <time>2013-01-07T09:53:33.000Z</time>
      </trkpt>
      <trkpt lat="45.69076" lon="6.2609">
        <ele>1963.5999755859</ele>
        <time>2013-01-07T09:53:38.000Z</time>
      </trkpt>
      <trkpt lat="45.69073" lon="6.26086">
        <ele>1965</ele>
        <time>2013-01-07T09:53:45.000Z</time>
      </trkpt>
      <trkpt lat="45.69072" lon="6.26085">
        <ele>1965.4000244141</ele>
        <time>2013-01-07T09:53:52.000Z</time>
      </trkpt>
      <trkpt lat="45.6907" lon="6.26081">
        <ele>1966.4000244141</ele>
        <time>2013-01-07T09:53:58.000Z</time>
      </trkpt>
      <trkpt lat="45.69069" lon="6.26079">
        <ele>1966.8000488281</ele>
        <time>2013-01-07T09:54:03.000Z</time>
      </trkpt>
      <trkpt lat="45.69067" lon="6.26077">
        <ele>1967.8000488281</ele>
        <time>2013-01-07T09:54:17.000Z</time>
      </trkpt>
      <trkpt lat="45.69066" lon="6.26074">
        <ele>1968.8000488281</ele>
        <time>2013-01-07T09:54:23.000Z</time>
      </trkpt>
      <trkpt lat="45.69065" lon="6.26072">
        <ele>1969.1999511719</ele>
        <time>2013-01-07T09:54:27.000Z</time>
      </trkpt>
      <trkpt lat="45.69064" lon="6.26069">
        <ele>1970.1999511719</ele>
        <time>2013-01-07T09:54:33.000Z</time>
      </trkpt>
      <trkpt lat="45.69063" lon="6.26066">
        <ele>1970.8000488281</ele>
        <time>2013-01-07T09:54:38.000Z</time>
      </trkpt>
      <trkpt lat="45.69061" lon="6.26064">
        <ele>1972.1999511719</ele>
        <time>2013-01-07T09:54:44.000Z</time>
      </trkpt>
      <trkpt lat="45.69061" lon="6.26065">
        <ele>1972.1999511719</ele>
        <time>2013-01-07T09:54:48.000Z</time>
      </trkpt>
      <trkpt lat="45.6906" lon="6.26069">
        <ele>1973.1999511719</ele>
        <time>2013-01-07T09:54:53.000Z</time>
      </trkpt>
      <trkpt lat="45.69059" lon="6.26072">
        <ele>1973.5999755859</ele>
        <time>2013-01-07T09:54:57.000Z</time>
      </trkpt>
      <trkpt lat="45.69058" lon="6.26076">
        <ele>1974.1999511719</ele>
        <time>2013-01-07T09:55:02.000Z</time>
      </trkpt>
      <trkpt lat="45.69057" lon="6.26079">
        <ele>1975.5999755859</ele>
        <time>2013-01-07T09:55:07.000Z</time>
      </trkpt>
      <trkpt lat="45.69057" lon="6.26084">
        <ele>1976</ele>
        <time>2013-01-07T09:55:12.000Z</time>
      </trkpt>
      <trkpt lat="45.69057" lon="6.26088">
        <ele>1977</ele>
        <time>2013-01-07T09:55:18.000Z</time>
      </trkpt>
      <trkpt lat="45.69057" lon="6.26092">
        <ele>1977.4000244141</ele>
        <time>2013-01-07T09:55:23.000Z</time>
      </trkpt>
      <trkpt lat="45.69057" lon="6.26096">
        <ele>1978</ele>
        <time>2013-01-07T09:55:28.000Z</time>
      </trkpt>
      <trkpt lat="45.69058" lon="6.26098">
        <ele>1979.8000488281</ele>
        <time>2013-01-07T09:55:32.000Z</time>
      </trkpt>
      <trkpt lat="45.69059" lon="6.261">
        <ele>1981.4000244141</ele>
        <time>2013-01-07T09:55:36.000Z</time>
      </trkpt>
      <trkpt lat="45.6906" lon="6.26103">
        <ele>1982.1999511719</ele>
        <time>2013-01-07T09:55:40.000Z</time>
      </trkpt>
      <trkpt lat="45.6906" lon="6.26107">
        <ele>1983.8000488281</ele>
        <time>2013-01-07T09:55:45.000Z</time>
      </trkpt>
      <trkpt lat="45.6906" lon="6.2611">
        <ele>1984.1999511719</ele>
        <time>2013-01-07T09:55:49.000Z</time>
      </trkpt>
      <trkpt lat="45.69058" lon="6.26109">
        <ele>1984.5999755859</ele>
        <time>2013-01-07T09:55:53.000Z</time>
      </trkpt>
      <trkpt lat="45.69055" lon="6.26106">
        <ele>1983.8000488281</ele>
        <time>2013-01-07T09:55:58.000Z</time>
      </trkpt>
      <trkpt lat="45.69052" lon="6.26103">
        <ele>1983.8000488281</ele>
        <time>2013-01-07T09:56:03.000Z</time>
      </trkpt>
      <trkpt lat="45.69048" lon="6.26099">
        <ele>1984.5999755859</ele>
        <time>2013-01-07T09:56:10.000Z</time>
      </trkpt>
      <trkpt lat="45.69046" lon="6.26097">
        <ele>1985.1999511719</ele>
        <time>2013-01-07T09:56:16.000Z</time>
      </trkpt>
      <trkpt lat="45.69044" lon="6.26093">
        <ele>1985.5999755859</ele>
        <time>2013-01-07T09:56:21.000Z</time>
      </trkpt>
      <trkpt lat="45.69042" lon="6.26087">
        <ele>1986.1999511719</ele>
        <time>2013-01-07T09:56:27.000Z</time>
      </trkpt>
      <trkpt lat="45.69041" lon="6.26084">
        <ele>1987</ele>
        <time>2013-01-07T09:56:34.000Z</time>
      </trkpt>
      <trkpt lat="45.69041" lon="6.26082">
        <ele>1988</ele>
        <time>2013-01-07T09:56:53.000Z</time>
      </trkpt>
      <trkpt lat="45.6904" lon="6.2608">
        <ele>1987</ele>
        <time>2013-01-07T09:56:59.000Z</time>
      </trkpt>
      <trkpt lat="45.69039" lon="6.26081">
        <ele>1988</ele>
        <time>2013-01-07T09:57:08.000Z</time>
      </trkpt>
      <trkpt lat="45.69039" lon="6.26083">
        <ele>1989</ele>
        <time>2013-01-07T09:57:14.000Z</time>
      </trkpt>
      <trkpt lat="45.69039" lon="6.26085">
        <ele>1990</ele>
        <time>2013-01-07T09:57:19.000Z</time>
      </trkpt>
      <trkpt lat="45.69039" lon="6.26086">
        <ele>1990.4000244141</ele>
        <time>2013-01-07T09:57:25.000Z</time>
      </trkpt>
      <trkpt lat="45.69038" lon="6.26087">
        <ele>1991.4000244141</ele>
        <time>2013-01-07T09:57:32.000Z</time>
      </trkpt>
      <trkpt lat="45.69037" lon="6.26086">
        <ele>1991.4000244141</ele>
        <time>2013-01-07T09:57:38.000Z</time>
      </trkpt>
      <trkpt lat="45.69036" lon="6.26082">
        <ele>1991.8000488281</ele>
        <time>2013-01-07T09:57:45.000Z</time>
      </trkpt>
      <trkpt lat="45.69035" lon="6.26079">
        <ele>1991.8000488281</ele>
        <time>2013-01-07T09:57:50.000Z</time>
      </trkpt>
      <trkpt lat="45.69034" lon="6.26074">
        <ele>1991.8000488281</ele>
        <time>2013-01-07T09:57:58.000Z</time>
      </trkpt>
      <trkpt lat="45.69033" lon="6.2607">
        <ele>1991.8000488281</ele>
        <time>2013-01-07T09:58:04.000Z</time>
      </trkpt>
      <trkpt lat="45.69033" lon="6.26067">
        <ele>1991.8000488281</ele>
        <time>2013-01-07T09:58:09.000Z</time>
      </trkpt>
      <trkpt lat="45.69032" lon="6.26065">
        <ele>1992.8000488281</ele>
        <time>2013-01-07T09:58:15.000Z</time>
      </trkpt>
      <trkpt lat="45.6903" lon="6.26062">
        <ele>1993.4000244141</ele>
        <time>2013-01-07T09:58:22.000Z</time>
      </trkpt>
      <trkpt lat="45.69029" lon="6.26061">
        <ele>1993.8000488281</ele>
        <time>2013-01-07T09:58:36.000Z</time>
      </trkpt>
      <trkpt lat="45.69028" lon="6.26058">
        <ele>1994.1999511719</ele>
        <time>2013-01-07T09:58:43.000Z</time>
      </trkpt>
      <trkpt lat="45.69026" lon="6.26053">
        <ele>1994.8000488281</ele>
        <time>2013-01-07T09:58:49.000Z</time>
      </trkpt>
      <trkpt lat="45.69025" lon="6.26051">
        <ele>1996.5999755859</ele>
        <time>2013-01-07T09:59:03.000Z</time>
      </trkpt>
      <trkpt lat="45.69025" lon="6.26052">
        <ele>1996.5999755859</ele>
        <time>2013-01-07T09:59:37.000Z</time>
      </trkpt>
      <trkpt lat="45.69024" lon="6.2605">
        <ele>1998.1999511719</ele>
        <time>2013-01-07T09:59:54.000Z</time>
      </trkpt>
      <trkpt lat="45.69023" lon="6.26048">
        <ele>1999</ele>
        <time>2013-01-07T09:59:59.000Z</time>
      </trkpt>
      <trkpt lat="45.69022" lon="6.26044">
        <ele>1999</ele>
        <time>2013-01-07T10:00:03.000Z</time>
      </trkpt>
      <trkpt lat="45.6902" lon="6.26039">
        <ele>1999.5999755859</ele>
        <time>2013-01-07T10:00:10.000Z</time>
      </trkpt>
      <trkpt lat="45.69019" lon="6.26035">
        <ele>2000</ele>
        <time>2013-01-07T10:00:16.000Z</time>
      </trkpt>
      <trkpt lat="45.69019" lon="6.2603">
        <ele>2000.5999755859</ele>
        <time>2013-01-07T10:00:21.000Z</time>
      </trkpt>
      <trkpt lat="45.69018" lon="6.26029">
        <ele>2001</ele>
        <time>2013-01-07T10:00:27.000Z</time>
      </trkpt>
      <trkpt lat="45.69019" lon="6.26026">
        <ele>2001.5999755859</ele>
        <time>2013-01-07T10:00:30.000Z</time>
      </trkpt>
      <trkpt lat="45.69017" lon="6.26019">
        <ele>2002.4000244141</ele>
        <time>2013-01-07T10:00:37.000Z</time>
      </trkpt>
      <trkpt lat="45.69016" lon="6.26015">
        <ele>2003.4000244141</ele>
        <time>2013-01-07T10:00:42.000Z</time>
      </trkpt>
      <trkpt lat="45.69014" lon="6.26013">
        <ele>2004</ele>
        <time>2013-01-07T10:00:47.000Z</time>
      </trkpt>
      <trkpt lat="45.69013" lon="6.2601">
        <ele>2004.4000244141</ele>
        <time>2013-01-07T10:00:52.000Z</time>
      </trkpt>
      <trkpt lat="45.69013" lon="6.26009">
        <ele>2004.4000244141</ele>
        <time>2013-01-07T10:00:58.000Z</time>
      </trkpt>
      <trkpt lat="45.69013" lon="6.2601">
        <ele>2004.8000488281</ele>
        <time>2013-01-07T10:01:07.000Z</time>
      </trkpt>
      <trkpt lat="45.69011" lon="6.26007">
        <ele>2005.8000488281</ele>
        <time>2013-01-07T10:01:14.000Z</time>
      </trkpt>
      <trkpt lat="45.69011" lon="6.26007">
        <ele>2005.8000488281</ele>
        <time>2013-01-07T10:01:15.000Z</time>
      </trkpt>
      <trkpt lat="45.69011" lon="6.26003">
        <ele>2006.4000244141</ele>
        <time>2013-01-07T10:01:20.000Z</time>
      </trkpt>
      <trkpt lat="45.69009" lon="6.26">
        <ele>2007.1999511719</ele>
        <time>2013-01-07T10:01:24.000Z</time>
      </trkpt>
      <trkpt lat="45.69008" lon="6.25997">
        <ele>2007.8000488281</ele>
        <time>2013-01-07T10:01:29.000Z</time>
      </trkpt>
      <trkpt lat="45.69008" lon="6.25995">
        <ele>2008.8000488281</ele>
        <time>2013-01-07T10:01:33.000Z</time>
      </trkpt>
      <trkpt lat="45.69006" lon="6.25992">
        <ele>2009.5999755859</ele>
        <time>2013-01-07T10:01:39.000Z</time>
      </trkpt>
      <trkpt lat="45.69005" lon="6.2599">
        <ele>2009.5999755859</ele>
        <time>2013-01-07T10:01:45.000Z</time>
      </trkpt>
      <trkpt lat="45.69004" lon="6.25989">
        <ele>2010.5999755859</ele>
        <time>2013-01-07T10:01:51.000Z</time>
      </trkpt>
      <trkpt lat="45.69004" lon="6.25989">
        <ele>2011.5999755859</ele>
        <time>2013-01-07T10:01:58.000Z</time>
      </trkpt>
      <trkpt lat="45.69003" lon="6.25989">
        <ele>2012.5999755859</ele>
        <time>2013-01-07T10:02:05.000Z</time>
      </trkpt>
      <trkpt lat="45.69003" lon="6.2599">
        <ele>2012.5999755859</ele>
        <time>2013-01-07T10:02:14.000Z</time>
      </trkpt>
      <trkpt lat="45.69003" lon="6.2599">
        <ele>2013.5999755859</ele>
        <time>2013-01-07T10:02:22.000Z</time>
      </trkpt>
      <trkpt lat="45.69003" lon="6.25991">
        <ele>2014</ele>
        <time>2013-01-07T10:02:29.000Z</time>
      </trkpt>
      <trkpt lat="45.69003" lon="6.25992">
        <ele>2014.4000244141</ele>
        <time>2013-01-07T10:02:35.000Z</time>
      </trkpt>
      <trkpt lat="45.69003" lon="6.25993">
        <ele>2014.4000244141</ele>
        <time>2013-01-07T10:02:43.000Z</time>
      </trkpt>
      <trkpt lat="45.69003" lon="6.25994">
        <ele>2014.4000244141</ele>
        <time>2013-01-07T10:02:50.000Z</time>
      </trkpt>
      <trkpt lat="45.69003" lon="6.25996">
        <ele>2016</ele>
        <time>2013-01-07T10:02:59.000Z</time>
      </trkpt>
      <trkpt lat="45.69002" lon="6.25999">
        <ele>2016</ele>
        <time>2013-01-07T10:03:05.000Z</time>
      </trkpt>
      <trkpt lat="45.69001" lon="6.26003">
        <ele>2016</ele>
        <time>2013-01-07T10:03:10.000Z</time>
      </trkpt>
      <trkpt lat="45.69" lon="6.26005">
        <ele>2016.4000244141</ele>
        <time>2013-01-07T10:03:14.000Z</time>
      </trkpt>
      <trkpt lat="45.68999" lon="6.26007">
        <ele>2016.8000488281</ele>
        <time>2013-01-07T10:03:21.000Z</time>
      </trkpt>
      <trkpt lat="45.68999" lon="6.26004">
        <ele>2016</ele>
        <time>2013-01-07T10:03:24.000Z</time>
      </trkpt>
      <trkpt lat="45.68999" lon="6.26">
        <ele>2016.4000244141</ele>
        <time>2013-01-07T10:03:30.000Z</time>
      </trkpt>
      <trkpt lat="45.68998" lon="6.25995">
        <ele>2016.8000488281</ele>
        <time>2013-01-07T10:03:37.000Z</time>
      </trkpt>
      <trkpt lat="45.68998" lon="6.25996">
        <ele>2017.4000244141</ele>
        <time>2013-01-07T10:03:42.000Z</time>
      </trkpt>
      <trkpt lat="45.68998" lon="6.25995">
        <ele>2017.8000488281</ele>
        <time>2013-01-07T10:03:48.000Z</time>
      </trkpt>
      <trkpt lat="45.68998" lon="6.25995">
        <ele>2018.4000244141</ele>
        <time>2013-01-07T10:03:57.000Z</time>
      </trkpt>
      <trkpt lat="45.68998" lon="6.25996">
        <ele>2018.8000488281</ele>
        <time>2013-01-07T10:04:04.000Z</time>
      </trkpt>
      <trkpt lat="45.68999" lon="6.25996">
        <ele>2019.1999511719</ele>
        <time>2013-01-07T10:04:12.000Z</time>
      </trkpt>
      <trkpt lat="45.68998" lon="6.25997">
        <ele>2017.4000244141</ele>
        <time>2013-01-07T10:04:26.000Z</time>
      </trkpt>
      <trkpt lat="45.68997" lon="6.25998">
        <ele>2016.4000244141</ele>
        <time>2013-01-07T10:04:36.000Z</time>
      </trkpt>
      <trkpt lat="45.68997" lon="6.25998">
        <ele>2016.8000488281</ele>
        <time>2013-01-07T10:04:42.000Z</time>
      </trkpt>
      <trkpt lat="45.68996" lon="6.26">
        <ele>2018.8000488281</ele>
        <time>2013-01-07T10:04:48.000Z</time>
      </trkpt>
      <trkpt lat="45.68993" lon="6.26002">
        <ele>2019.8000488281</ele>
        <time>2013-01-07T10:04:53.000Z</time>
      </trkpt>
      <trkpt lat="45.68991" lon="6.26003">
        <ele>2020.8000488281</ele>
        <time>2013-01-07T10:04:57.000Z</time>
      </trkpt>
      <trkpt lat="45.68989" lon="6.26004">
        <ele>2021.5999755859</ele>
        <time>2013-01-07T10:05:02.000Z</time>
      </trkpt>
      <trkpt lat="45.68989" lon="6.26003">
        <ele>2022.5999755859</ele>
        <time>2013-01-07T10:05:07.000Z</time>
      </trkpt>
      <trkpt lat="45.68989" lon="6.26003">
        <ele>2022.5999755859</ele>
        <time>2013-01-07T10:05:15.000Z</time>
      </trkpt>
      <trkpt lat="45.68989" lon="6.26003">
        <ele>2024</ele>
        <time>2013-01-07T10:05:27.000Z</time>
      </trkpt>
      <trkpt lat="45.68991" lon="6.26002">
        <ele>2024</ele>
        <time>2013-01-07T10:05:57.000Z</time>
      </trkpt>
      <trkpt lat="45.68992" lon="6.26001">
        <ele>2024</ele>
        <time>2013-01-07T10:06:19.000Z</time>
      </trkpt>
      <trkpt lat="45.6899" lon="6.26">
        <ele>2025</ele>
        <time>2013-01-07T10:06:29.000Z</time>
      </trkpt>
      <trkpt lat="45.68989" lon="6.25998">
        <ele>2024</ele>
        <time>2013-01-07T10:06:35.000Z</time>
      </trkpt>
      <trkpt lat="45.6899" lon="6.25998">
        <ele>2024.5999755859</ele>
        <time>2013-01-07T10:06:43.000Z</time>
      </trkpt>
      <trkpt lat="45.68991" lon="6.25999">
        <ele>2023.5999755859</ele>
        <time>2013-01-07T10:07:02.000Z</time>
      </trkpt>
      <trkpt lat="45.68992" lon="6.26">
        <ele>2023.1999511719</ele>
        <time>2013-01-07T10:07:25.000Z</time>
      </trkpt>
      <trkpt lat="45.68993" lon="6.26">
        <ele>2022.5999755859</ele>
        <time>2013-01-07T10:07:39.000Z</time>
      </trkpt>
      <trkpt lat="45.68992" lon="6.26003">
        <ele>2023.1999511719</ele>
        <time>2013-01-07T10:07:45.000Z</time>
      </trkpt>
      <trkpt lat="45.68991" lon="6.26005">
        <ele>2023.5999755859</ele>
        <time>2013-01-07T10:07:53.000Z</time>
      </trkpt>
      <trkpt lat="45.6899" lon="6.26005">
        <ele>2025</ele>
        <time>2013-01-07T10:08:05.000Z</time>
      </trkpt>
      <trkpt lat="45.6899" lon="6.26006">
        <ele>2026</ele>
        <time>2013-01-07T10:08:11.000Z</time>
      </trkpt>
      <trkpt lat="45.68989" lon="6.26007">
        <ele>2027</ele>
        <time>2013-01-07T10:08:16.000Z</time>
      </trkpt>
      <trkpt lat="45.68985" lon="6.26006">
        <ele>2026.4000244141</ele>
        <time>2013-01-07T10:08:20.000Z</time>
      </trkpt>
      <trkpt lat="45.68984" lon="6.26004">
        <ele>2026.4000244141</ele>
        <time>2013-01-07T10:08:24.000Z</time>
      </trkpt>
      <trkpt lat="45.68984" lon="6.26006">
        <ele>2027</ele>
        <time>2013-01-07T10:08:29.000Z</time>
      </trkpt>
      <trkpt lat="45.68983" lon="6.26008">
        <ele>2028.4000244141</ele>
        <time>2013-01-07T10:08:35.000Z</time>
      </trkpt>
      <trkpt lat="45.68983" lon="6.26008">
        <ele>2030.8000488281</ele>
        <time>2013-01-07T10:08:41.000Z</time>
      </trkpt>
      <trkpt lat="45.68984" lon="6.26007">
        <ele>2029.8000488281</ele>
        <time>2013-01-07T10:08:51.000Z</time>
      </trkpt>
      <trkpt lat="45.68983" lon="6.26006">
        <ele>2028.4000244141</ele>
        <time>2013-01-07T10:08:57.000Z</time>
      </trkpt>
      <trkpt lat="45.68984" lon="6.26006">
        <ele>2027.4000244141</ele>
        <time>2013-01-07T10:09:19.000Z</time>
      </trkpt>
      <trkpt lat="45.68985" lon="6.26008">
        <ele>2028.4000244141</ele>
        <time>2013-01-07T10:09:25.000Z</time>
      </trkpt>
      <trkpt lat="45.68984" lon="6.2601">
        <ele>2029.8000488281</ele>
        <time>2013-01-07T10:09:36.000Z</time>
      </trkpt>
      <trkpt lat="45.68982" lon="6.26011">
        <ele>2030.8000488281</ele>
        <time>2013-01-07T10:09:41.000Z</time>
      </trkpt>
      <trkpt lat="45.68981" lon="6.26013">
        <ele>2032.1999511719</ele>
        <time>2013-01-07T10:09:47.000Z</time>
      </trkpt>
      <trkpt lat="45.68979" lon="6.26013">
        <ele>2033.1999511719</ele>
        <time>2013-01-07T10:09:51.000Z</time>
      </trkpt>
      <trkpt lat="45.68977" lon="6.26014">
        <ele>2033.8000488281</ele>
        <time>2013-01-07T10:09:55.000Z</time>
      </trkpt>
      <trkpt lat="45.68976" lon="6.26014">
        <ele>2035.1999511719</ele>
        <time>2013-01-07T10:09:59.000Z</time>
      </trkpt>
      <trkpt lat="45.68975" lon="6.26016">
        <ele>2036.1999511719</ele>
        <time>2013-01-07T10:10:03.000Z</time>
      </trkpt>
      <trkpt lat="45.68974" lon="6.26015">
        <ele>2038</ele>
        <time>2013-01-07T10:10:09.000Z</time>
      </trkpt>
      <trkpt lat="45.68972" lon="6.26017">
        <ele>2040</ele>
        <time>2013-01-07T10:10:15.000Z</time>
      </trkpt>
      <trkpt lat="45.68971" lon="6.26018">
        <ele>2041.8000488281</ele>
        <time>2013-01-07T10:10:22.000Z</time>
      </trkpt>
      <trkpt lat="45.6897" lon="6.26018">
        <ele>2042.4000244141</ele>
        <time>2013-01-07T10:10:27.000Z</time>
      </trkpt>
      <trkpt lat="45.68968" lon="6.26017">
        <ele>2042.4000244141</ele>
        <time>2013-01-07T10:10:31.000Z</time>
      </trkpt>
      <trkpt lat="45.68967" lon="6.26017">
        <ele>2042.8000488281</ele>
        <time>2013-01-07T10:10:36.000Z</time>
      </trkpt>
      <trkpt lat="45.68967" lon="6.26019">
        <ele>2043.4000244141</ele>
        <time>2013-01-07T10:10:41.000Z</time>
      </trkpt>
      <trkpt lat="45.68966" lon="6.26019">
        <ele>2043.8000488281</ele>
        <time>2013-01-07T10:10:46.000Z</time>
      </trkpt>
      <trkpt lat="45.68966" lon="6.2602">
        <ele>2044.1999511719</ele>
        <time>2013-01-07T10:10:51.000Z</time>
      </trkpt>
      <trkpt lat="45.68964" lon="6.2602">
        <ele>2045.8000488281</ele>
        <time>2013-01-07T10:10:57.000Z</time>
      </trkpt>
      <trkpt lat="45.68964" lon="6.26021">
        <ele>2046.5999755859</ele>
        <time>2013-01-07T10:11:04.000Z</time>
      </trkpt>
      <trkpt lat="45.68963" lon="6.26022">
        <ele>2048.1999511719</ele>
        <time>2013-01-07T10:11:09.000Z</time>
      </trkpt>
      <trkpt lat="45.68961" lon="6.26021">
        <ele>2049</ele>
        <time>2013-01-07T10:11:15.000Z</time>
      </trkpt>
      <trkpt lat="45.68962" lon="6.26022">
        <ele>2051</ele>
        <time>2013-01-07T10:11:21.000Z</time>
      </trkpt>
      <trkpt lat="45.68961" lon="6.26023">
        <ele>2052</ele>
        <time>2013-01-07T10:11:26.000Z</time>
      </trkpt>
      <trkpt lat="45.6896" lon="6.26023">
        <ele>2053.8000488281</ele>
        <time>2013-01-07T10:11:32.000Z</time>
      </trkpt>
      <trkpt lat="45.68959" lon="6.26023">
        <ele>2054.8000488281</ele>
        <time>2013-01-07T10:11:37.000Z</time>
      </trkpt>
      <trkpt lat="45.68959" lon="6.26023">
        <ele>2054.3999023438</ele>
        <time>2013-01-07T10:11:46.000Z</time>
      </trkpt>
      <trkpt lat="45.68957" lon="6.26024">
        <ele>2055.3999023438</ele>
        <time>2013-01-07T10:11:53.000Z</time>
      </trkpt>
      <trkpt lat="45.68958" lon="6.26025">
        <ele>2055.3999023438</ele>
        <time>2013-01-07T10:11:58.000Z</time>
      </trkpt>
      <trkpt lat="45.68958" lon="6.26028">
        <ele>2055.3999023438</ele>
        <time>2013-01-07T10:12:03.000Z</time>
      </trkpt>
      <trkpt lat="45.68956" lon="6.26029">
        <ele>2055.8000488281</ele>
        <time>2013-01-07T10:12:08.000Z</time>
      </trkpt>
      <trkpt lat="45.68955" lon="6.26029">
        <ele>2055.3999023438</ele>
        <time>2013-01-07T10:12:14.000Z</time>
      </trkpt>
      <trkpt lat="45.68953" lon="6.26028">
        <ele>2056.1999511719</ele>
        <time>2013-01-07T10:12:18.000Z</time>
      </trkpt>
      <trkpt lat="45.6895" lon="6.26028">
        <ele>2057.1999511719</ele>
        <time>2013-01-07T10:12:24.000Z</time>
      </trkpt>
      <trkpt lat="45.6895" lon="6.26029">
        <ele>2059.6000976562</ele>
        <time>2013-01-07T10:12:29.000Z</time>
      </trkpt>
      <trkpt lat="45.68951" lon="6.26031">
        <ele>2061.1999511719</ele>
        <time>2013-01-07T10:12:33.000Z</time>
      </trkpt>
      <trkpt lat="45.68951" lon="6.26034">
        <ele>2061.6000976562</ele>
        <time>2013-01-07T10:12:41.000Z</time>
      </trkpt>
      <trkpt lat="45.6895" lon="6.26038">
        <ele>2062</ele>
        <time>2013-01-07T10:12:47.000Z</time>
      </trkpt>
      <trkpt lat="45.68949" lon="6.26038">
        <ele>2062.6000976562</ele>
        <time>2013-01-07T10:12:49.000Z</time>
      </trkpt>
      <trkpt lat="45.68947" lon="6.26039">
        <ele>2063</ele>
        <time>2013-01-07T10:12:54.000Z</time>
      </trkpt>
      <trkpt lat="45.68948" lon="6.26042">
        <ele>2064</ele>
        <time>2013-01-07T10:13:00.000Z</time>
      </trkpt>
      <trkpt lat="45.68948" lon="6.26044">
        <ele>2065</ele>
        <time>2013-01-07T10:13:05.000Z</time>
      </trkpt>
      <trkpt lat="45.68946" lon="6.26042">
        <ele>2066</ele>
        <time>2013-01-07T10:13:10.000Z</time>
      </trkpt>
      <trkpt lat="45.68944" lon="6.26042">
        <ele>2066.8000488281</ele>
        <time>2013-01-07T10:13:15.000Z</time>
      </trkpt>
      <trkpt lat="45.68941" lon="6.26043">
        <ele>2067.8000488281</ele>
        <time>2013-01-07T10:13:19.000Z</time>
      </trkpt>
      <trkpt lat="45.6894" lon="6.26044">
        <ele>2069.1999511719</ele>
        <time>2013-01-07T10:13:25.000Z</time>
      </trkpt>
      <trkpt lat="45.68938" lon="6.26046">
        <ele>2071.1999511719</ele>
        <time>2013-01-07T10:13:31.000Z</time>
      </trkpt>
      <trkpt lat="45.68937" lon="6.26048">
        <ele>2073.6000976562</ele>
        <time>2013-01-07T10:13:38.000Z</time>
      </trkpt>
      <trkpt lat="45.68936" lon="6.26051">
        <ele>2075.6000976562</ele>
        <time>2013-01-07T10:13:45.000Z</time>
      </trkpt>
      <trkpt lat="45.68935" lon="6.26053">
        <ele>2076.3999023438</ele>
        <time>2013-01-07T10:13:52.000Z</time>
      </trkpt>
      <trkpt lat="45.68934" lon="6.26056">
        <ele>2078.8000488281</ele>
        <time>2013-01-07T10:13:58.000Z</time>
      </trkpt>
      <trkpt lat="45.68931" lon="6.2606">
        <ele>2079.3999023438</ele>
        <time>2013-01-07T10:14:04.000Z</time>
      </trkpt>
      <trkpt lat="45.68931" lon="6.26063">
        <ele>2080.8000488281</ele>
        <time>2013-01-07T10:14:09.000Z</time>
      </trkpt>
      <trkpt lat="45.6893" lon="6.26065">
        <ele>2082.8000488281</ele>
        <time>2013-01-07T10:14:14.000Z</time>
      </trkpt>
      <trkpt lat="45.68928" lon="6.26067">
        <ele>2083.1999511719</ele>
        <time>2013-01-07T10:14:18.000Z</time>
      </trkpt>
      <trkpt lat="45.68927" lon="6.26068">
        <ele>2084.1999511719</ele>
        <time>2013-01-07T10:14:22.000Z</time>
      </trkpt>
      <trkpt lat="45.68926" lon="6.2607">
        <ele>2084.6000976562</ele>
        <time>2013-01-07T10:14:28.000Z</time>
      </trkpt>
      <trkpt lat="45.68925" lon="6.26073">
        <ele>2085.6000976562</ele>
        <time>2013-01-07T10:14:35.000Z</time>
      </trkpt>
      <trkpt lat="45.68924" lon="6.26074">
        <ele>2087</ele>
        <time>2013-01-07T10:14:40.000Z</time>
      </trkpt>
      <trkpt lat="45.68922" lon="6.26076">
        <ele>2088.6000976562</ele>
        <time>2013-01-07T10:14:46.000Z</time>
      </trkpt>
      <trkpt lat="45.68921" lon="6.26077">
        <ele>2091</ele>
        <time>2013-01-07T10:14:53.000Z</time>
      </trkpt>
      <trkpt lat="45.6892" lon="6.26078">
        <ele>2091.8000488281</ele>
        <time>2013-01-07T10:14:57.000Z</time>
      </trkpt>
      <trkpt lat="45.6892" lon="6.26081">
        <ele>2092.3999023438</ele>
        <time>2013-01-07T10:15:01.000Z</time>
      </trkpt>
      <trkpt lat="45.6892" lon="6.26086">
        <ele>2092.8000488281</ele>
        <time>2013-01-07T10:15:07.000Z</time>
      </trkpt>
      <trkpt lat="45.68919" lon="6.2609">
        <ele>2093.8000488281</ele>
        <time>2013-01-07T10:15:12.000Z</time>
      </trkpt>
      <trkpt lat="45.68918" lon="6.26093">
        <ele>2094.8000488281</ele>
        <time>2013-01-07T10:15:17.000Z</time>
      </trkpt>
      <trkpt lat="45.68917" lon="6.26097">
        <ele>2095.8000488281</ele>
        <time>2013-01-07T10:15:25.000Z</time>
      </trkpt>
      <trkpt lat="45.68916" lon="6.261">
        <ele>2096.1999511719</ele>
        <time>2013-01-07T10:15:30.000Z</time>
      </trkpt>
      <trkpt lat="45.68913" lon="6.26098">
        <ele>2096.6000976562</ele>
        <time>2013-01-07T10:15:35.000Z</time>
      </trkpt>
      <trkpt lat="45.6891" lon="6.26096">
        <ele>2097.1999511719</ele>
        <time>2013-01-07T10:15:41.000Z</time>
      </trkpt>
      <trkpt lat="45.68909" lon="6.26099">
        <ele>2098.1999511719</ele>
        <time>2013-01-07T10:15:47.000Z</time>
      </trkpt>
      <trkpt lat="45.68908" lon="6.26102">
        <ele>2099.6000976562</ele>
        <time>2013-01-07T10:15:53.000Z</time>
      </trkpt>
      <trkpt lat="45.68908" lon="6.26104">
        <ele>2100.6000976562</ele>
        <time>2013-01-07T10:15:58.000Z</time>
      </trkpt>
      <trkpt lat="45.68906" lon="6.26105">
        <ele>2102</ele>
        <time>2013-01-07T10:16:03.000Z</time>
      </trkpt>
      <trkpt lat="45.68903" lon="6.26107">
        <ele>2103.3999023438</ele>
        <time>2013-01-07T10:16:09.000Z</time>
      </trkpt>
      <trkpt lat="45.68901" lon="6.26108">
        <ele>2104.8000488281</ele>
        <time>2013-01-07T10:16:14.000Z</time>
      </trkpt>
      <trkpt lat="45.68898" lon="6.26108">
        <ele>2105.3999023438</ele>
        <time>2013-01-07T10:16:20.000Z</time>
      </trkpt>
      <trkpt lat="45.68896" lon="6.26109">
        <ele>2106.8000488281</ele>
        <time>2013-01-07T10:16:26.000Z</time>
      </trkpt>
      <trkpt lat="45.68895" lon="6.2611">
        <ele>2108.6000976562</ele>
        <time>2013-01-07T10:16:30.000Z</time>
      </trkpt>
      <trkpt lat="45.68893" lon="6.26109">
        <ele>2108.6000976562</ele>
        <time>2013-01-07T10:16:34.000Z</time>
      </trkpt>
      <trkpt lat="45.68891" lon="6.26109">
        <ele>2110.1999511719</ele>
        <time>2013-01-07T10:16:40.000Z</time>
      </trkpt>
      <trkpt lat="45.68888" lon="6.26109">
        <ele>2110.6000976562</ele>
        <time>2013-01-07T10:16:45.000Z</time>
      </trkpt>
      <trkpt lat="45.68886" lon="6.2611">
        <ele>2112</ele>
        <time>2013-01-07T10:16:51.000Z</time>
      </trkpt>
      <trkpt lat="45.68887" lon="6.26109">
        <ele>2114</ele>
        <time>2013-01-07T10:16:56.000Z</time>
      </trkpt>
      <trkpt lat="45.68884" lon="6.26108">
        <ele>2114.3999023438</ele>
        <time>2013-01-07T10:17:02.000Z</time>
      </trkpt>
      <trkpt lat="45.68883" lon="6.26108">
        <ele>2115.8000488281</ele>
        <time>2013-01-07T10:17:08.000Z</time>
      </trkpt>
      <trkpt lat="45.68882" lon="6.2611">
        <ele>2116.8000488281</ele>
        <time>2013-01-07T10:17:13.000Z</time>
      </trkpt>
      <trkpt lat="45.68881" lon="6.26114">
        <ele>2116.3999023438</ele>
        <time>2013-01-07T10:17:19.000Z</time>
      </trkpt>
      <trkpt lat="45.68879" lon="6.2612">
        <ele>2115.8000488281</ele>
        <time>2013-01-07T10:17:26.000Z</time>
      </trkpt>
      <trkpt lat="45.68879" lon="6.2612">
        <ele>2116.3999023438</ele>
        <time>2013-01-07T10:17:27.000Z</time>
      </trkpt>
      <trkpt lat="45.68877" lon="6.26116">
        <ele>2116.8000488281</ele>
        <time>2013-01-07T10:17:32.000Z</time>
      </trkpt>
      <trkpt lat="45.68876" lon="6.26117">
        <ele>2117.8000488281</ele>
        <time>2013-01-07T10:17:37.000Z</time>
      </trkpt>
      <trkpt lat="45.68873" lon="6.2612">
        <ele>2119.8000488281</ele>
        <time>2013-01-07T10:17:42.000Z</time>
      </trkpt>
      <trkpt lat="45.68872" lon="6.26118">
        <ele>2120.8000488281</ele>
        <time>2013-01-07T10:17:47.000Z</time>
      </trkpt>
      <trkpt lat="45.68871" lon="6.26114">
        <ele>2121.1999511719</ele>
        <time>2013-01-07T10:17:54.000Z</time>
      </trkpt>
      <trkpt lat="45.6887" lon="6.26113">
        <ele>2121.6000976562</ele>
        <time>2013-01-07T10:17:59.000Z</time>
      </trkpt>
      <trkpt lat="45.68869" lon="6.26113">
        <ele>2122.6000976562</ele>
        <time>2013-01-07T10:18:05.000Z</time>
      </trkpt>
      <trkpt lat="45.68869" lon="6.26113">
        <ele>2122.6000976562</ele>
        <time>2013-01-07T10:18:11.000Z</time>
      </trkpt>
      <trkpt lat="45.68868" lon="6.26109">
        <ele>2122.6000976562</ele>
        <time>2013-01-07T10:18:18.000Z</time>
      </trkpt>
      <trkpt lat="45.68869" lon="6.26108">
        <ele>2123.1999511719</ele>
        <time>2013-01-07T10:18:29.000Z</time>
      </trkpt>
      <trkpt lat="45.68872" lon="6.26109">
        <ele>2122.1999511719</ele>
        <time>2013-01-07T10:18:36.000Z</time>
      </trkpt>
      <trkpt lat="45.68872" lon="6.2611">
        <ele>2122.6000976562</ele>
        <time>2013-01-07T10:18:43.000Z</time>
      </trkpt>
      <trkpt lat="45.68868" lon="6.26109">
        <ele>2123.1999511719</ele>
        <time>2013-01-07T10:18:53.000Z</time>
      </trkpt>
      <trkpt lat="45.68867" lon="6.26108">
        <ele>2122.6000976562</ele>
        <time>2013-01-07T10:18:57.000Z</time>
      </trkpt>
      <trkpt lat="45.68868" lon="6.26109">
        <ele>2122.1999511719</ele>
        <time>2013-01-07T10:19:09.000Z</time>
      </trkpt>
      <trkpt lat="45.68868" lon="6.26109">
        <ele>2121.6000976562</ele>
        <time>2013-01-07T10:19:17.000Z</time>
      </trkpt>
      <trkpt lat="45.68868" lon="6.2611">
        <ele>2122.1999511719</ele>
        <time>2013-01-07T10:19:24.000Z</time>
      </trkpt>
      <trkpt lat="45.68868" lon="6.2611">
        <ele>2122.6000976562</ele>
        <time>2013-01-07T10:19:35.000Z</time>
      </trkpt>
      <trkpt lat="45.68868" lon="6.2611">
        <ele>2123.1999511719</ele>
        <time>2013-01-07T10:19:42.000Z</time>
      </trkpt>
      <trkpt lat="45.68868" lon="6.2611">
        <ele>2125</ele>
        <time>2013-01-07T10:19:51.000Z</time>
      </trkpt>
      <trkpt lat="45.68868" lon="6.26109">
        <ele>2125</ele>
        <time>2013-01-07T10:19:58.000Z</time>
      </trkpt>
      <trkpt lat="45.68868" lon="6.2611">
        <ele>2124</ele>
        <time>2013-01-07T10:20:07.000Z</time>
      </trkpt>
      <trkpt lat="45.68868" lon="6.26109">
        <ele>2123.1999511719</ele>
        <time>2013-01-07T10:20:12.000Z</time>
      </trkpt>
      <trkpt lat="45.68868" lon="6.26109">
        <ele>2122.6000976562</ele>
        <time>2013-01-07T10:20:19.000Z</time>
      </trkpt>
      <trkpt lat="45.68868" lon="6.26108">
        <ele>2121.6000976562</ele>
        <time>2013-01-07T10:20:26.000Z</time>
      </trkpt>
      <trkpt lat="45.68867" lon="6.26108">
        <ele>2122.6000976562</ele>
        <time>2013-01-07T10:20:40.000Z</time>
      </trkpt>
      <trkpt lat="45.68867" lon="6.26109">
        <ele>2122.6000976562</ele>
        <time>2013-01-07T10:20:47.000Z</time>
      </trkpt>
      <trkpt lat="45.68867" lon="6.2611">
        <ele>2122.6000976562</ele>
        <time>2013-01-07T10:21:01.000Z</time>
      </trkpt>
      <trkpt lat="45.68867" lon="6.26109">
        <ele>2122.6000976562</ele>
        <time>2013-01-07T10:21:12.000Z</time>
      </trkpt>
      <trkpt lat="45.68867" lon="6.2611">
        <ele>2122.1999511719</ele>
        <time>2013-01-07T10:21:16.000Z</time>
      </trkpt>
      <trkpt lat="45.68867" lon="6.2611">
        <ele>2122.1999511719</ele>
        <time>2013-01-07T10:21:21.000Z</time>
      </trkpt>
      <trkpt lat="45.68867" lon="6.26111">
        <ele>2121.6000976562</ele>
        <time>2013-01-07T10:21:27.000Z</time>
      </trkpt>
      <trkpt lat="45.68867" lon="6.26111">
        <ele>2122.1999511719</ele>
        <time>2013-01-07T10:21:40.000Z</time>
      </trkpt>
      <trkpt lat="45.68868" lon="6.26112">
        <ele>2122.1999511719</ele>
        <time>2013-01-07T10:21:50.000Z</time>
      </trkpt>
      <trkpt lat="45.68868" lon="6.26112">
        <ele>2121.1999511719</ele>
        <time>2013-01-07T10:22:01.000Z</time>
      </trkpt>
      <trkpt lat="45.68869" lon="6.26112">
        <ele>2120.8000488281</ele>
        <time>2013-01-07T10:22:15.000Z</time>
      </trkpt>
      <trkpt lat="45.68871" lon="6.26112">
        <ele>2120.1999511719</ele>
        <time>2013-01-07T10:22:20.000Z</time>
      </trkpt>
      <trkpt lat="45.68871" lon="6.26113">
        <ele>2119.8000488281</ele>
        <time>2013-01-07T10:22:32.000Z</time>
      </trkpt>
      <trkpt lat="45.68869" lon="6.26111">
        <ele>2120.8000488281</ele>
        <time>2013-01-07T10:22:44.000Z</time>
      </trkpt>
      <trkpt lat="45.68869" lon="6.2611">
        <ele>2119.1999511719</ele>
        <time>2013-01-07T10:23:15.000Z</time>
      </trkpt>
      <trkpt lat="45.6887" lon="6.2611">
        <ele>2116.3999023438</ele>
        <time>2013-01-07T10:23:37.000Z</time>
      </trkpt>
      <trkpt lat="45.68869" lon="6.26109">
        <ele>2118.3999023438</ele>
        <time>2013-01-07T10:23:45.000Z</time>
      </trkpt>
      <trkpt lat="45.68869" lon="6.26109">
        <ele>2119.1999511719</ele>
        <time>2013-01-07T10:23:50.000Z</time>
      </trkpt>
      <trkpt lat="45.68869" lon="6.2611">
        <ele>2118.8000488281</ele>
        <time>2013-01-07T10:23:59.000Z</time>
      </trkpt>
      <trkpt lat="45.68868" lon="6.26111">
        <ele>2120.1999511719</ele>
        <time>2013-01-07T10:24:13.000Z</time>
      </trkpt>
      <trkpt lat="45.68868" lon="6.2611">
        <ele>2120.1999511719</ele>
        <time>2013-01-07T10:24:17.000Z</time>
      </trkpt>
      <trkpt lat="45.68868" lon="6.2611">
        <ele>2120.8000488281</ele>
        <time>2013-01-07T10:24:23.000Z</time>
      </trkpt>
      <trkpt lat="45.68868" lon="6.26111">
        <ele>2121.1999511719</ele>
        <time>2013-01-07T10:24:32.000Z</time>
      </trkpt>
      <trkpt lat="45.68867" lon="6.26111">
        <ele>2122.1999511719</ele>
        <time>2013-01-07T10:24:40.000Z</time>
      </trkpt>
      <trkpt lat="45.68867" lon="6.26111">
        <ele>2123.1999511719</ele>
        <time>2013-01-07T10:24:53.000Z</time>
      </trkpt>
      <trkpt lat="45.68867" lon="6.26111">
        <ele>2122.6000976562</ele>
        <time>2013-01-07T10:25:07.000Z</time>
      </trkpt>
      <trkpt lat="45.68868" lon="6.26109">
        <ele>2121.6000976562</ele>
        <time>2013-01-07T10:25:12.000Z</time>
      </trkpt>
      <trkpt lat="45.68868" lon="6.26109">
        <ele>2123.1999511719</ele>
        <time>2013-01-07T10:25:19.000Z</time>
      </trkpt>
      <trkpt lat="45.68868" lon="6.26109">
        <ele>2122.6000976562</ele>
        <time>2013-01-07T10:25:33.000Z</time>
      </trkpt>
      <trkpt lat="45.68869" lon="6.26108">
        <ele>2121.6000976562</ele>
        <time>2013-01-07T10:25:46.000Z</time>
      </trkpt>
      <trkpt lat="45.68869" lon="6.26108">
        <ele>2121.1999511719</ele>
        <time>2013-01-07T10:25:53.000Z</time>
      </trkpt>
      <trkpt lat="45.68869" lon="6.26108">
        <ele>2121.1999511719</ele>
        <time>2013-01-07T10:26:02.000Z</time>
      </trkpt>
      <trkpt lat="45.68869" lon="6.26108">
        <ele>2121.6000976562</ele>
        <time>2013-01-07T10:26:08.000Z</time>
      </trkpt>
      <trkpt lat="45.68871" lon="6.26109">
        <ele>2122.6000976562</ele>
        <time>2013-01-07T10:26:14.000Z</time>
      </trkpt>
      <trkpt lat="45.6887" lon="6.2611">
        <ele>2122.6000976562</ele>
        <time>2013-01-07T10:26:22.000Z</time>
      </trkpt>
      <trkpt lat="45.68872" lon="6.2611">
        <ele>2122.1999511719</ele>
        <time>2013-01-07T10:26:33.000Z</time>
      </trkpt>
      <trkpt lat="45.68872" lon="6.26111">
        <ele>2122.1999511719</ele>
        <time>2013-01-07T10:26:42.000Z</time>
      </trkpt>
      <trkpt lat="45.68872" lon="6.2611">
        <ele>2122.6000976562</ele>
        <time>2013-01-07T10:26:56.000Z</time>
      </trkpt>
      <trkpt lat="45.68872" lon="6.2611">
        <ele>2122.6000976562</ele>
        <time>2013-01-07T10:27:07.000Z</time>
      </trkpt>
      <trkpt lat="45.68871" lon="6.26108">
        <ele>2122.6000976562</ele>
        <time>2013-01-07T10:27:17.000Z</time>
      </trkpt>
      <trkpt lat="45.68871" lon="6.26107">
        <ele>2122.6000976562</ele>
        <time>2013-01-07T10:27:23.000Z</time>
      </trkpt>
      <trkpt lat="45.68871" lon="6.26107">
        <ele>2122.6000976562</ele>
        <time>2013-01-07T10:27:31.000Z</time>
      </trkpt>
      <trkpt lat="45.6887" lon="6.26104">
        <ele>2122.1999511719</ele>
        <time>2013-01-07T10:27:36.000Z</time>
      </trkpt>
      <trkpt lat="45.6887" lon="6.26108">
        <ele>2123.1999511719</ele>
        <time>2013-01-07T10:27:42.000Z</time>
      </trkpt>
      <trkpt lat="45.6887" lon="6.26109">
        <ele>2123.1999511719</ele>
        <time>2013-01-07T10:27:48.000Z</time>
      </trkpt>
      <trkpt lat="45.68869" lon="6.26109">
        <ele>2123.6000976562</ele>
        <time>2013-01-07T10:27:53.000Z</time>
      </trkpt>
      <trkpt lat="45.6887" lon="6.26109">
        <ele>2124</ele>
        <time>2013-01-07T10:28:02.000Z</time>
      </trkpt>
      <trkpt lat="45.6887" lon="6.26109">
        <ele>2125.6000976562</ele>
        <time>2013-01-07T10:28:17.000Z</time>
      </trkpt>
      <trkpt lat="45.6887" lon="6.26109">
        <ele>2124.6000976562</ele>
        <time>2013-01-07T10:28:23.000Z</time>
      </trkpt>
      <trkpt lat="45.6887" lon="6.2611">
        <ele>2123.1999511719</ele>
        <time>2013-01-07T10:28:35.000Z</time>
      </trkpt>
      <trkpt lat="45.6887" lon="6.2611">
        <ele>2122.6000976562</ele>
        <time>2013-01-07T10:28:43.000Z</time>
      </trkpt>
      <trkpt lat="45.6887" lon="6.26109">
        <ele>2123.1999511719</ele>
        <time>2013-01-07T10:28:59.000Z</time>
      </trkpt>
      <trkpt lat="45.6887" lon="6.26108">
        <ele>2122.6000976562</ele>
        <time>2013-01-07T10:29:06.000Z</time>
      </trkpt>
      <trkpt lat="45.68871" lon="6.26109">
        <ele>2122.6000976562</ele>
        <time>2013-01-07T10:29:13.000Z</time>
      </trkpt>
      <trkpt lat="45.68872" lon="6.26108">
        <ele>2122.6000976562</ele>
        <time>2013-01-07T10:29:19.000Z</time>
      </trkpt>
      <trkpt lat="45.6887" lon="6.26108">
        <ele>2122.6000976562</ele>
        <time>2013-01-07T10:29:26.000Z</time>
      </trkpt>
      <trkpt lat="45.68869" lon="6.26108">
        <ele>2123.1999511719</ele>
        <time>2013-01-07T10:29:31.000Z</time>
      </trkpt>
      <trkpt lat="45.6887" lon="6.26105">
        <ele>2123.6000976562</ele>
        <time>2013-01-07T10:29:40.000Z</time>
      </trkpt>
      <trkpt lat="45.68872" lon="6.26103">
        <ele>2123.6000976562</ele>
        <time>2013-01-07T10:29:45.000Z</time>
      </trkpt>
      <trkpt lat="45.68871" lon="6.26104">
        <ele>2123.1999511719</ele>
        <time>2013-01-07T10:29:51.000Z</time>
      </trkpt>
      <trkpt lat="45.6887" lon="6.26104">
        <ele>2123.1999511719</ele>
        <time>2013-01-07T10:30:02.000Z</time>
      </trkpt>
      <trkpt lat="45.68868" lon="6.26107">
        <ele>2123.1999511719</ele>
        <time>2013-01-07T10:30:08.000Z</time>
      </trkpt>
      <trkpt lat="45.68868" lon="6.26108">
        <ele>2123.1999511719</ele>
        <time>2013-01-07T10:30:12.000Z</time>
      </trkpt>
      <trkpt lat="45.68867" lon="6.26108">
        <ele>2124</ele>
        <time>2013-01-07T10:30:21.000Z</time>
      </trkpt>
      <trkpt lat="45.68868" lon="6.26108">
        <ele>2123.1999511719</ele>
        <time>2013-01-07T10:30:29.000Z</time>
      </trkpt>
      <trkpt lat="45.68868" lon="6.26108">
        <ele>2123.1999511719</ele>
        <time>2013-01-07T10:30:37.000Z</time>
      </trkpt>
      <trkpt lat="45.68868" lon="6.26109">
        <ele>2122.1999511719</ele>
        <time>2013-01-07T10:30:45.000Z</time>
      </trkpt>
      <trkpt lat="45.68868" lon="6.26107">
        <ele>2121.1999511719</ele>
        <time>2013-01-07T10:30:54.000Z</time>
      </trkpt>
      <trkpt lat="45.68868" lon="6.26107">
        <ele>2121.6000976562</ele>
        <time>2013-01-07T10:31:00.000Z</time>
      </trkpt>
      <trkpt lat="45.68868" lon="6.26107">
        <ele>2121.1999511719</ele>
        <time>2013-01-07T10:31:10.000Z</time>
      </trkpt>
      <trkpt lat="45.68868" lon="6.26107">
        <ele>2120.1999511719</ele>
        <time>2013-01-07T10:31:22.000Z</time>
      </trkpt>
      <trkpt lat="45.68869" lon="6.26107">
        <ele>2120.8000488281</ele>
        <time>2013-01-07T10:31:27.000Z</time>
      </trkpt>
      <trkpt lat="45.68869" lon="6.26107">
        <ele>2121.6000976562</ele>
        <time>2013-01-07T10:31:35.000Z</time>
      </trkpt>
      <trkpt lat="45.68869" lon="6.26108">
        <ele>2121.1999511719</ele>
        <time>2013-01-07T10:31:44.000Z</time>
      </trkpt>
      <trkpt lat="45.68868" lon="6.26108">
        <ele>2121.1999511719</ele>
        <time>2013-01-07T10:31:51.000Z</time>
      </trkpt>
      <trkpt lat="45.68868" lon="6.26108">
        <ele>2121.6000976562</ele>
        <time>2013-01-07T10:31:58.000Z</time>
      </trkpt>
      <trkpt lat="45.68868" lon="6.26108">
        <ele>2121.6000976562</ele>
        <time>2013-01-07T10:32:06.000Z</time>
      </trkpt>
      <trkpt lat="45.68868" lon="6.26108">
        <ele>2121.6000976562</ele>
        <time>2013-01-07T10:32:11.000Z</time>
      </trkpt>
      <trkpt lat="45.68868" lon="6.26108">
        <ele>2121.6000976562</ele>
        <time>2013-01-07T10:32:19.000Z</time>
      </trkpt>
      <trkpt lat="45.68868" lon="6.26108">
        <ele>2121.1999511719</ele>
        <time>2013-01-07T10:32:31.000Z</time>
      </trkpt>
      <trkpt lat="45.68867" lon="6.26108">
        <ele>2121.1999511719</ele>
        <time>2013-01-07T10:32:35.000Z</time>
      </trkpt>
      <trkpt lat="45.68867" lon="6.26109">
        <ele>2120.8000488281</ele>
        <time>2013-01-07T10:32:41.000Z</time>
      </trkpt>
      <trkpt lat="45.68868" lon="6.26108">
        <ele>2121.1999511719</ele>
        <time>2013-01-07T10:32:49.000Z</time>
      </trkpt>
      <trkpt lat="45.68868" lon="6.26109">
        <ele>2121.6000976562</ele>
        <time>2013-01-07T10:32:57.000Z</time>
      </trkpt>
      <trkpt lat="45.68868" lon="6.26108">
        <ele>2121.1999511719</ele>
        <time>2013-01-07T10:33:14.000Z</time>
      </trkpt>
      <trkpt lat="45.68867" lon="6.26109">
        <ele>2121.1999511719</ele>
        <time>2013-01-07T10:33:21.000Z</time>
      </trkpt>
      <trkpt lat="45.68868" lon="6.26108">
        <ele>2121.1999511719</ele>
        <time>2013-01-07T10:33:26.000Z</time>
      </trkpt>
      <trkpt lat="45.68868" lon="6.26109">
        <ele>2121.1999511719</ele>
        <time>2013-01-07T10:33:32.000Z</time>
      </trkpt>
      <trkpt lat="45.68868" lon="6.26108">
        <ele>2121.1999511719</ele>
        <time>2013-01-07T10:33:44.000Z</time>
      </trkpt>
      <trkpt lat="45.68868" lon="6.26108">
        <ele>2121.1999511719</ele>
        <time>2013-01-07T10:33:51.000Z</time>
      </trkpt>
      <trkpt lat="45.68868" lon="6.26108">
        <ele>2121.1999511719</ele>
        <time>2013-01-07T10:33:58.000Z</time>
      </trkpt>
      <trkpt lat="45.68868" lon="6.26108">
        <ele>2121.6000976562</ele>
        <time>2013-01-07T10:34:05.000Z</time>
      </trkpt>
      <trkpt lat="45.68868" lon="6.26108">
        <ele>2120.8000488281</ele>
        <time>2013-01-07T10:34:12.000Z</time>
      </trkpt>
      <trkpt lat="45.68868" lon="6.26108">
        <ele>2120.8000488281</ele>
        <time>2013-01-07T10:34:19.000Z</time>
      </trkpt>
      <trkpt lat="45.68868" lon="6.26109">
        <ele>2120.1999511719</ele>
        <time>2013-01-07T10:34:28.000Z</time>
      </trkpt>
      <trkpt lat="45.68869" lon="6.26109">
        <ele>2121.1999511719</ele>
        <time>2013-01-07T10:34:34.000Z</time>
      </trkpt>
      <trkpt lat="45.68868" lon="6.26109">
        <ele>2122.1999511719</ele>
        <time>2013-01-07T10:34:41.000Z</time>
      </trkpt>
      <trkpt lat="45.68869" lon="6.26109">
        <ele>2122.6000976562</ele>
        <time>2013-01-07T10:34:47.000Z</time>
      </trkpt>
      <trkpt lat="45.68869" lon="6.2611">
        <ele>2121.6000976562</ele>
        <time>2013-01-07T10:34:54.000Z</time>
      </trkpt>
      <trkpt lat="45.68869" lon="6.2611">
        <ele>2120.8000488281</ele>
        <time>2013-01-07T10:35:04.000Z</time>
      </trkpt>
      <trkpt lat="45.6887" lon="6.26111">
        <ele>2120.1999511719</ele>
        <time>2013-01-07T10:35:14.000Z</time>
      </trkpt>
      <trkpt lat="45.6887" lon="6.2611">
        <ele>2121.1999511719</ele>
        <time>2013-01-07T10:35:24.000Z</time>
      </trkpt>
      <trkpt lat="45.6887" lon="6.2611">
        <ele>2121.6000976562</ele>
        <time>2013-01-07T10:35:35.000Z</time>
      </trkpt>
      <trkpt lat="45.6887" lon="6.26109">
        <ele>2122.6000976562</ele>
        <time>2013-01-07T10:35:45.000Z</time>
      </trkpt>
      <trkpt lat="45.6887" lon="6.2611">
        <ele>2122.6000976562</ele>
        <time>2013-01-07T10:35:52.000Z</time>
      </trkpt>
      <trkpt lat="45.6887" lon="6.2611">
        <ele>2123.1999511719</ele>
        <time>2013-01-07T10:36:05.000Z</time>
      </trkpt>
      <trkpt lat="45.68869" lon="6.2611">
        <ele>2123.1999511719</ele>
        <time>2013-01-07T10:36:18.000Z</time>
      </trkpt>
      <trkpt lat="45.68869" lon="6.26109">
        <ele>2122.6000976562</ele>
        <time>2013-01-07T10:36:24.000Z</time>
      </trkpt>
      <trkpt lat="45.68869" lon="6.26109">
        <ele>2122.1999511719</ele>
        <time>2013-01-07T10:36:30.000Z</time>
      </trkpt>
      <trkpt lat="45.6887" lon="6.26109">
        <ele>2122.6000976562</ele>
        <time>2013-01-07T10:36:41.000Z</time>
      </trkpt>
      <trkpt lat="45.6887" lon="6.26109">
        <ele>2121.1999511719</ele>
        <time>2013-01-07T10:36:51.000Z</time>
      </trkpt>
      <trkpt lat="45.68871" lon="6.2611">
        <ele>2122.1999511719</ele>
        <time>2013-01-07T10:37:02.000Z</time>
      </trkpt>
      <trkpt lat="45.6887" lon="6.2611">
        <ele>2122.6000976562</ele>
        <time>2013-01-07T10:37:09.000Z</time>
      </trkpt>
      <trkpt lat="45.6887" lon="6.2611">
        <ele>2122.1999511719</ele>
        <time>2013-01-07T10:37:17.000Z</time>
      </trkpt>
      <trkpt lat="45.68869" lon="6.2611">
        <ele>2123.1999511719</ele>
        <time>2013-01-07T10:37:25.000Z</time>
      </trkpt>
      <trkpt lat="45.68869" lon="6.2611">
        <ele>2124.6000976562</ele>
        <time>2013-01-07T10:37:34.000Z</time>
      </trkpt>
      <trkpt lat="45.68869" lon="6.2611">
        <ele>2124.6000976562</ele>
        <time>2013-01-07T10:37:43.000Z</time>
      </trkpt>
      <trkpt lat="45.6887" lon="6.2611">
        <ele>2124</ele>
        <time>2013-01-07T10:37:52.000Z</time>
      </trkpt>
      <trkpt lat="45.68869" lon="6.26111">
        <ele>2123.1999511719</ele>
        <time>2013-01-07T10:38:03.000Z</time>
      </trkpt>
      <trkpt lat="45.68869" lon="6.26111">
        <ele>2124</ele>
        <time>2013-01-07T10:38:13.000Z</time>
      </trkpt>
      <trkpt lat="45.6887" lon="6.26112">
        <ele>2123.6000976562</ele>
        <time>2013-01-07T10:38:22.000Z</time>
      </trkpt>
      <trkpt lat="45.68873" lon="6.26115">
        <ele>2123.6000976562</ele>
        <time>2013-01-07T10:38:28.000Z</time>
      </trkpt>
      <trkpt lat="45.68874" lon="6.26115">
        <ele>2123.1999511719</ele>
        <time>2013-01-07T10:38:36.000Z</time>
      </trkpt>
      <trkpt lat="45.68874" lon="6.26115">
        <ele>2122.6000976562</ele>
        <time>2013-01-07T10:38:46.000Z</time>
      </trkpt>
      <trkpt lat="45.68873" lon="6.26115">
        <ele>2122.6000976562</ele>
        <time>2013-01-07T10:38:55.000Z</time>
      </trkpt>
      <trkpt lat="45.68874" lon="6.26116">
        <ele>2122.6000976562</ele>
        <time>2013-01-07T10:39:06.000Z</time>
      </trkpt>
      <trkpt lat="45.68873" lon="6.26116">
        <ele>2122.6000976562</ele>
        <time>2013-01-07T10:39:14.000Z</time>
      </trkpt>
      <trkpt lat="45.68873" lon="6.26115">
        <ele>2123.1999511719</ele>
        <time>2013-01-07T10:39:22.000Z</time>
      </trkpt>
      <trkpt lat="45.68873" lon="6.26115">
        <ele>2123.1999511719</ele>
        <time>2013-01-07T10:39:29.000Z</time>
      </trkpt>
      <trkpt lat="45.68874" lon="6.26115">
        <ele>2122.1999511719</ele>
        <time>2013-01-07T10:39:45.000Z</time>
      </trkpt>
      <trkpt lat="45.68875" lon="6.26113">
        <ele>2122.6000976562</ele>
        <time>2013-01-07T10:39:56.000Z</time>
      </trkpt>
      <trkpt lat="45.68874" lon="6.26113">
        <ele>2124.6000976562</ele>
        <time>2013-01-07T10:40:06.000Z</time>
      </trkpt>
      <trkpt lat="45.68874" lon="6.26113">
        <ele>2124.6000976562</ele>
        <time>2013-01-07T10:40:20.000Z</time>
      </trkpt>
      <trkpt lat="45.68874" lon="6.26113">
        <ele>2124.6000976562</ele>
        <time>2013-01-07T10:40:45.000Z</time>
      </trkpt>
      <trkpt lat="45.6887" lon="6.26111">
        <ele>2123.6000976562</ele>
        <time>2013-01-07T10:40:50.000Z</time>
      </trkpt>
      <trkpt lat="45.68867" lon="6.26105">
        <ele>2122.6000976562</ele>
        <time>2013-01-07T10:40:54.000Z</time>
      </trkpt>
      <trkpt lat="45.68867" lon="6.26107">
        <ele>2123.6000976562</ele>
        <time>2013-01-07T10:40:58.000Z</time>
      </trkpt>
      <trkpt lat="45.68867" lon="6.26108">
        <ele>2124</ele>
        <time>2013-01-07T10:41:04.000Z</time>
      </trkpt>
      <trkpt lat="45.68867" lon="6.26109">
        <ele>2123.6000976562</ele>
        <time>2013-01-07T10:41:24.000Z</time>
      </trkpt>
      <trkpt lat="45.68867" lon="6.2611">
        <ele>2125.6000976562</ele>
        <time>2013-01-07T10:41:50.000Z</time>
      </trkpt>
      <trkpt lat="45.68867" lon="6.26111">
        <ele>2125</ele>
        <time>2013-01-07T10:41:55.000Z</time>
      </trkpt>
      <trkpt lat="45.68866" lon="6.26111">
        <ele>2125.6000976562</ele>
        <time>2013-01-07T10:42:15.000Z</time>
      </trkpt>
      <trkpt lat="45.68866" lon="6.2611">
        <ele>2125.6000976562</ele>
        <time>2013-01-07T10:42:33.000Z</time>
      </trkpt>
      <trkpt lat="45.68868" lon="6.26113">
        <ele>2125.6000976562</ele>
        <time>2013-01-07T10:42:56.000Z</time>
      </trkpt>
      <trkpt lat="45.68868" lon="6.26111">
        <ele>2125</ele>
        <time>2013-01-07T10:43:07.000Z</time>
      </trkpt>
      <trkpt lat="45.68872" lon="6.26115">
        <ele>2125</ele>
        <time>2013-01-07T10:43:13.000Z</time>
      </trkpt>
      <trkpt lat="45.68875" lon="6.26118">
        <ele>2124</ele>
        <time>2013-01-07T10:43:20.000Z</time>
      </trkpt>
      <trkpt lat="45.68874" lon="6.26118">
        <ele>2124</ele>
        <time>2013-01-07T10:43:29.000Z</time>
      </trkpt>
      <trkpt lat="45.68876" lon="6.26121">
        <ele>2122.6000976562</ele>
        <time>2013-01-07T10:43:40.000Z</time>
      </trkpt>
      <trkpt lat="45.68877" lon="6.26125">
        <ele>2121.1999511719</ele>
        <time>2013-01-07T10:43:43.000Z</time>
      </trkpt>
      <trkpt lat="45.68883" lon="6.26128">
        <ele>2117.3999023438</ele>
        <time>2013-01-07T10:43:48.000Z</time>
      </trkpt>
      <trkpt lat="45.68885" lon="6.26122">
        <ele>2115.8000488281</ele>
        <time>2013-01-07T10:43:52.000Z</time>
      </trkpt>
      <trkpt lat="45.68889" lon="6.26106">
        <ele>2113</ele>
        <time>2013-01-07T10:43:56.000Z</time>
      </trkpt>
      <trkpt lat="45.68898" lon="6.26095">
        <ele>2108.6000976562</ele>
        <time>2013-01-07T10:44:00.000Z</time>
      </trkpt>
      <trkpt lat="45.68897" lon="6.26079">
        <ele>2106.1999511719</ele>
        <time>2013-01-07T10:44:03.000Z</time>
      </trkpt>
      <trkpt lat="45.68896" lon="6.26072">
        <ele>2105.8000488281</ele>
        <time>2013-01-07T10:44:05.000Z</time>
      </trkpt>
      <trkpt lat="45.68902" lon="6.26068">
        <ele>2102.3999023438</ele>
        <time>2013-01-07T10:44:08.000Z</time>
      </trkpt>
      <trkpt lat="45.68904" lon="6.26056">
        <ele>2098.1999511719</ele>
        <time>2013-01-07T10:44:12.000Z</time>
      </trkpt>
      <trkpt lat="45.68905" lon="6.26055">
        <ele>2096.6000976562</ele>
        <time>2013-01-07T10:44:13.000Z</time>
      </trkpt>
      <trkpt lat="45.68907" lon="6.26045">
        <ele>2091.8000488281</ele>
        <time>2013-01-07T10:44:18.000Z</time>
      </trkpt>
      <trkpt lat="45.68906" lon="6.26042">
        <ele>2090</ele>
        <time>2013-01-07T10:44:26.000Z</time>
      </trkpt>
      <trkpt lat="45.68914" lon="6.2604">
        <ele>2087.6000976562</ele>
        <time>2013-01-07T10:44:30.000Z</time>
      </trkpt>
      <trkpt lat="45.68916" lon="6.26042">
        <ele>2087</ele>
        <time>2013-01-07T10:44:31.000Z</time>
      </trkpt>
      <trkpt lat="45.68925" lon="6.26049">
        <ele>2084.6000976562</ele>
        <time>2013-01-07T10:44:35.000Z</time>
      </trkpt>
      <trkpt lat="45.6893" lon="6.26045">
        <ele>2082.1999511719</ele>
        <time>2013-01-07T10:44:39.000Z</time>
      </trkpt>
      <trkpt lat="45.68934" lon="6.26042">
        <ele>2080.3999023438</ele>
        <time>2013-01-07T10:44:41.000Z</time>
      </trkpt>
      <trkpt lat="45.68936" lon="6.26038">
        <ele>2077.3999023438</ele>
        <time>2013-01-07T10:44:45.000Z</time>
      </trkpt>
      <trkpt lat="45.68936" lon="6.26038">
        <ele>2077</ele>
        <time>2013-01-07T10:44:56.000Z</time>
      </trkpt>
      <trkpt lat="45.68936" lon="6.26034">
        <ele>2076</ele>
        <time>2013-01-07T10:45:03.000Z</time>
      </trkpt>
      <trkpt lat="45.68936" lon="6.26032">
        <ele>2075.6000976562</ele>
        <time>2013-01-07T10:45:09.000Z</time>
      </trkpt>
      <trkpt lat="45.68939" lon="6.26033">
        <ele>2074.6000976562</ele>
        <time>2013-01-07T10:45:14.000Z</time>
      </trkpt>
      <trkpt lat="45.6894" lon="6.26029">
        <ele>2072.1999511719</ele>
        <time>2013-01-07T10:45:19.000Z</time>
      </trkpt>
      <trkpt lat="45.68939" lon="6.26025">
        <ele>2071.6000976562</ele>
        <time>2013-01-07T10:45:25.000Z</time>
      </trkpt>
      <trkpt lat="45.68939" lon="6.26024">
        <ele>2070.8000488281</ele>
        <time>2013-01-07T10:45:36.000Z</time>
      </trkpt>
      <trkpt lat="45.68938" lon="6.26022">
        <ele>2069.8000488281</ele>
        <time>2013-01-07T10:45:42.000Z</time>
      </trkpt>
      <trkpt lat="45.68939" lon="6.26021">
        <ele>2068.8000488281</ele>
        <time>2013-01-07T10:45:48.000Z</time>
      </trkpt>
      <trkpt lat="45.68936" lon="6.26015">
        <ele>2067.3999023438</ele>
        <time>2013-01-07T10:45:51.000Z</time>
      </trkpt>
      <trkpt lat="45.68934" lon="6.26012">
        <ele>2067.3999023438</ele>
        <time>2013-01-07T10:45:52.000Z</time>
      </trkpt>
      <trkpt lat="45.68935" lon="6.26012">
        <ele>2066.3999023438</ele>
        <time>2013-01-07T10:45:58.000Z</time>
      </trkpt>
      <trkpt lat="45.68934" lon="6.26012">
        <ele>2066.3999023438</ele>
        <time>2013-01-07T10:46:07.000Z</time>
      </trkpt>
      <trkpt lat="45.68934" lon="6.26013">
        <ele>2065.3999023438</ele>
        <time>2013-01-07T10:46:15.000Z</time>
      </trkpt>
      <trkpt lat="45.68933" lon="6.26013">
        <ele>2066</ele>
        <time>2013-01-07T10:46:22.000Z</time>
      </trkpt>
      <trkpt lat="45.68933" lon="6.2601">
        <ele>2064.3999023438</ele>
        <time>2013-01-07T10:46:24.000Z</time>
      </trkpt>
      <trkpt lat="45.68933" lon="6.26004">
        <ele>2062.6000976562</ele>
        <time>2013-01-07T10:46:30.000Z</time>
      </trkpt>
      <trkpt lat="45.68933" lon="6.26003">
        <ele>2062</ele>
        <time>2013-01-07T10:46:35.000Z</time>
      </trkpt>
      <trkpt lat="45.68938" lon="6.26001">
        <ele>2059.1999511719</ele>
        <time>2013-01-07T10:46:39.000Z</time>
      </trkpt>
      <trkpt lat="45.68938" lon="6.25995">
        <ele>2056.8000488281</ele>
        <time>2013-01-07T10:46:42.000Z</time>
      </trkpt>
      <trkpt lat="45.68938" lon="6.25993">
        <ele>2055.8000488281</ele>
        <time>2013-01-07T10:46:44.000Z</time>
      </trkpt>
      <trkpt lat="45.68939" lon="6.25986">
        <ele>2052.3999023438</ele>
        <time>2013-01-07T10:46:47.000Z</time>
      </trkpt>
      <trkpt lat="45.68945" lon="6.25985">
        <ele>2048.1999511719</ele>
        <time>2013-01-07T10:46:50.000Z</time>
      </trkpt>
      <trkpt lat="45.68949" lon="6.25979">
        <ele>2043.4000244141</ele>
        <time>2013-01-07T10:46:54.000Z</time>
      </trkpt>
      <trkpt lat="45.68952" lon="6.25972">
        <ele>2039</ele>
        <time>2013-01-07T10:46:58.000Z</time>
      </trkpt>
      <trkpt lat="45.68956" lon="6.25964">
        <ele>2034.5999755859</ele>
        <time>2013-01-07T10:47:01.000Z</time>
      </trkpt>
      <trkpt lat="45.68957" lon="6.25964">
        <ele>2032.8000488281</ele>
        <time>2013-01-07T10:47:02.000Z</time>
      </trkpt>
      <trkpt lat="45.68962" lon="6.25961">
        <ele>2027</ele>
        <time>2013-01-07T10:47:06.000Z</time>
      </trkpt>
      <trkpt lat="45.68961" lon="6.25958">
        <ele>2026.4000244141</ele>
        <time>2013-01-07T10:47:13.000Z</time>
      </trkpt>
      <trkpt lat="45.68962" lon="6.25958">
        <ele>2025.5999755859</ele>
        <time>2013-01-07T10:47:14.000Z</time>
      </trkpt>
      <trkpt lat="45.68973" lon="6.25962">
        <ele>2021.5999755859</ele>
        <time>2013-01-07T10:47:19.000Z</time>
      </trkpt>
      <trkpt lat="45.68978" lon="6.25959">
        <ele>2018.4000244141</ele>
        <time>2013-01-07T10:47:21.000Z</time>
      </trkpt>
      <trkpt lat="45.6899" lon="6.25958">
        <ele>2010.1999511719</ele>
        <time>2013-01-07T10:47:25.000Z</time>
      </trkpt>
      <trkpt lat="45.68994" lon="6.25954">
        <ele>2005.4000244141</ele>
        <time>2013-01-07T10:47:27.000Z</time>
      </trkpt>
      <trkpt lat="45.69005" lon="6.25954">
        <ele>1995.1999511719</ele>
        <time>2013-01-07T10:47:31.000Z</time>
      </trkpt>
      <trkpt lat="45.69013" lon="6.25955">
        <ele>1990.4000244141</ele>
        <time>2013-01-07T10:47:33.000Z</time>
      </trkpt>
      <trkpt lat="45.69021" lon="6.25945">
        <ele>1984.5999755859</ele>
        <time>2013-01-07T10:47:35.000Z</time>
      </trkpt>
      <trkpt lat="45.69033" lon="6.25945">
        <ele>1970.1999511719</ele>
        <time>2013-01-07T10:47:39.000Z</time>
      </trkpt>
      <trkpt lat="45.69036" lon="6.25944">
        <ele>1966.4000244141</ele>
        <time>2013-01-07T10:47:40.000Z</time>
      </trkpt>
      <trkpt lat="45.69051" lon="6.2593">
        <ele>1952</ele>
        <time>2013-01-07T10:47:45.000Z</time>
      </trkpt>
      <trkpt lat="45.6906" lon="6.25921">
        <ele>1943.4000244141</ele>
        <time>2013-01-07T10:47:48.000Z</time>
      </trkpt>
      <trkpt lat="45.6906" lon="6.25919">
        <ele>1940.4000244141</ele>
        <time>2013-01-07T10:47:52.000Z</time>
      </trkpt>
      <trkpt lat="45.69059" lon="6.25919">
        <ele>1942.8000488281</ele>
        <time>2013-01-07T10:47:58.000Z</time>
      </trkpt>
      <trkpt lat="45.69059" lon="6.25919">
        <ele>1945.8000488281</ele>
        <time>2013-01-07T10:48:07.000Z</time>
      </trkpt>
      <trkpt lat="45.69059" lon="6.25919">
        <ele>1946.8000488281</ele>
        <time>2013-01-07T10:48:19.000Z</time>
      </trkpt>
      <trkpt lat="45.69059" lon="6.25919">
        <ele>1945.8000488281</ele>
        <time>2013-01-07T10:48:52.000Z</time>
      </trkpt>
      <trkpt lat="45.69059" lon="6.25918">
        <ele>1946.1999511719</ele>
        <time>2013-01-07T10:49:24.000Z</time>
      </trkpt>
      <trkpt lat="45.6906" lon="6.25918">
        <ele>1948.1999511719</ele>
        <time>2013-01-07T10:50:08.000Z</time>
      </trkpt>
      <trkpt lat="45.69059" lon="6.25919">
        <ele>1946.1999511719</ele>
        <time>2013-01-07T10:50:21.000Z</time>
      </trkpt>
      <trkpt lat="45.69059" lon="6.25919">
        <ele>1946.8000488281</ele>
        <time>2013-01-07T10:50:32.000Z</time>
      </trkpt>
      <trkpt lat="45.69059" lon="6.2592">
        <ele>1946.8000488281</ele>
        <time>2013-01-07T10:50:33.000Z</time>
      </trkpt>
      <trkpt lat="45.69066" lon="6.25927">
        <ele>1945.1999511719</ele>
        <time>2013-01-07T10:50:36.000Z</time>
      </trkpt>
      <trkpt lat="45.69077" lon="6.25917">
        <ele>1940.4000244141</ele>
        <time>2013-01-07T10:50:39.000Z</time>
      </trkpt>
      <trkpt lat="45.69088" lon="6.25899">
        <ele>1932.8000488281</ele>
        <time>2013-01-07T10:50:41.000Z</time>
      </trkpt>
      <trkpt lat="45.69092" lon="6.25899">
        <ele>1926.5999755859</ele>
        <time>2013-01-07T10:50:42.000Z</time>
      </trkpt>
      <trkpt lat="45.69099" lon="6.2589">
        <ele>1918.8000488281</ele>
        <time>2013-01-07T10:50:44.000Z</time>
      </trkpt>
      <trkpt lat="45.69105" lon="6.25888">
        <ele>1915</ele>
        <time>2013-01-07T10:50:45.000Z</time>
      </trkpt>
      <trkpt lat="45.69117" lon="6.25887">
        <ele>1907.8000488281</ele>
        <time>2013-01-07T10:50:47.000Z</time>
      </trkpt>
      <trkpt lat="45.69114" lon="6.25864">
        <ele>1899.5999755859</ele>
        <time>2013-01-07T10:50:50.000Z</time>
      </trkpt>
      <trkpt lat="45.69117" lon="6.25855">
        <ele>1893.4000244141</ele>
        <time>2013-01-07T10:50:52.000Z</time>
      </trkpt>
      <trkpt lat="45.6913" lon="6.2584">
        <ele>1880.4000244141</ele>
        <time>2013-01-07T10:50:56.000Z</time>
      </trkpt>
      <trkpt lat="45.6913" lon="6.25844">
        <ele>1875.5999755859</ele>
        <time>2013-01-07T10:50:58.000Z</time>
      </trkpt>
      <trkpt lat="45.69127" lon="6.25844">
        <ele>1872.5999755859</ele>
        <time>2013-01-07T10:51:02.000Z</time>
      </trkpt>
      <trkpt lat="45.69126" lon="6.25843">
        <ele>1876</ele>
        <time>2013-01-07T10:51:09.000Z</time>
      </trkpt>
      <trkpt lat="45.69129" lon="6.25844">
        <ele>1881.4000244141</ele>
        <time>2013-01-07T10:51:33.000Z</time>
      </trkpt>
      <trkpt lat="45.69131" lon="6.25843">
        <ele>1881.4000244141</ele>
        <time>2013-01-07T10:51:47.000Z</time>
      </trkpt>
      <trkpt lat="45.69137" lon="6.25834">
        <ele>1878</ele>
        <time>2013-01-07T10:51:50.000Z</time>
      </trkpt>
      <trkpt lat="45.69145" lon="6.2582">
        <ele>1875</ele>
        <time>2013-01-07T10:51:52.000Z</time>
      </trkpt>
      <trkpt lat="45.6917" lon="6.25794">
        <ele>1863.5999755859</ele>
        <time>2013-01-07T10:51:57.000Z</time>
      </trkpt>
      <trkpt lat="45.69181" lon="6.25775">
        <ele>1855.4000244141</ele>
        <time>2013-01-07T10:52:00.000Z</time>
      </trkpt>
      <trkpt lat="45.69191" lon="6.25778">
        <ele>1844.8000488281</ele>
        <time>2013-01-07T10:52:02.000Z</time>
      </trkpt>
      <trkpt lat="45.69196" lon="6.25791">
        <ele>1837.5999755859</ele>
        <time>2013-01-07T10:52:05.000Z</time>
      </trkpt>
      <trkpt lat="45.69191" lon="6.25794">
        <ele>1834.1999511719</ele>
        <time>2013-01-07T10:52:12.000Z</time>
      </trkpt>
      <trkpt lat="45.6919" lon="6.25795">
        <ele>1833.8000488281</ele>
        <time>2013-01-07T10:52:21.000Z</time>
      </trkpt>
      <trkpt lat="45.6919" lon="6.25795">
        <ele>1834.1999511719</ele>
        <time>2013-01-07T10:52:25.000Z</time>
      </trkpt>
      <trkpt lat="45.69201" lon="6.25782">
        <ele>1830.4000244141</ele>
        <time>2013-01-07T10:52:29.000Z</time>
      </trkpt>
      <trkpt lat="45.69206" lon="6.25772">
        <ele>1826</ele>
        <time>2013-01-07T10:52:31.000Z</time>
      </trkpt>
      <trkpt lat="45.69219" lon="6.25763">
        <ele>1819.4000244141</ele>
        <time>2013-01-07T10:52:34.000Z</time>
      </trkpt>
      <trkpt lat="45.69227" lon="6.25762">
        <ele>1813</ele>
        <time>2013-01-07T10:52:36.000Z</time>
      </trkpt>
      <trkpt lat="45.69234" lon="6.2575">
        <ele>1807.8000488281</ele>
        <time>2013-01-07T10:52:38.000Z</time>
      </trkpt>
      <trkpt lat="45.69233" lon="6.25741">
        <ele>1805.8000488281</ele>
        <time>2013-01-07T10:52:39.000Z</time>
      </trkpt>
      <trkpt lat="45.69223" lon="6.25704">
        <ele>1800.5999755859</ele>
        <time>2013-01-07T10:52:43.000Z</time>
      </trkpt>
      <trkpt lat="45.69229" lon="6.25659">
        <ele>1796.8000488281</ele>
        <time>2013-01-07T10:52:48.000Z</time>
      </trkpt>
      <trkpt lat="45.69237" lon="6.25639">
        <ele>1792.8000488281</ele>
        <time>2013-01-07T10:52:50.000Z</time>
      </trkpt>
      <trkpt lat="45.69248" lon="6.25605">
        <ele>1786.1999511719</ele>
        <time>2013-01-07T10:52:53.000Z</time>
      </trkpt>
      <trkpt lat="45.69248" lon="6.25557">
        <ele>1779</ele>
        <time>2013-01-07T10:52:58.000Z</time>
      </trkpt>
      <trkpt lat="45.69247" lon="6.25515">
        <ele>1773.5999755859</ele>
        <time>2013-01-07T10:53:02.000Z</time>
      </trkpt>
      <trkpt lat="45.69254" lon="6.25478">
        <ele>1765.4000244141</ele>
        <time>2013-01-07T10:53:06.000Z</time>
      </trkpt>
      <trkpt lat="45.69257" lon="6.25467">
        <ele>1764.5999755859</ele>
        <time>2013-01-07T10:53:07.000Z</time>
      </trkpt>
      <trkpt lat="45.69263" lon="6.25425">
        <ele>1756.8000488281</ele>
        <time>2013-01-07T10:53:11.000Z</time>
      </trkpt>
      <trkpt lat="45.69278" lon="6.25415">
        <ele>1750.5999755859</ele>
        <time>2013-01-07T10:53:13.000Z</time>
      </trkpt>
      <trkpt lat="45.69279" lon="6.25404">
        <ele>1745.8000488281</ele>
        <time>2013-01-07T10:53:15.000Z</time>
      </trkpt>
      <trkpt lat="45.69274" lon="6.25402">
        <ele>1743</ele>
        <time>2013-01-07T10:53:22.000Z</time>
      </trkpt>
      <trkpt lat="45.69274" lon="6.25402">
        <ele>1743.4000244141</ele>
        <time>2013-01-07T10:53:29.000Z</time>
      </trkpt>
      <trkpt lat="45.69273" lon="6.25402">
        <ele>1743.4000244141</ele>
        <time>2013-01-07T10:53:36.000Z</time>
      </trkpt>
      <trkpt lat="45.69273" lon="6.25402">
        <ele>1744.4000244141</ele>
        <time>2013-01-07T10:53:45.000Z</time>
      </trkpt>
      <trkpt lat="45.69273" lon="6.25403">
        <ele>1744.8000488281</ele>
        <time>2013-01-07T10:53:54.000Z</time>
      </trkpt>
      <trkpt lat="45.69271" lon="6.25402">
        <ele>1744.8000488281</ele>
        <time>2013-01-07T10:53:59.000Z</time>
      </trkpt>
      <trkpt lat="45.69267" lon="6.25398">
        <ele>1744.4000244141</ele>
        <time>2013-01-07T10:54:04.000Z</time>
      </trkpt>
      <trkpt lat="45.69264" lon="6.25396">
        <ele>1744.4000244141</ele>
        <time>2013-01-07T10:54:06.000Z</time>
      </trkpt>
      <trkpt lat="45.69253" lon="6.25393">
        <ele>1743</ele>
        <time>2013-01-07T10:54:11.000Z</time>
      </trkpt>
      <trkpt lat="45.69229" lon="6.25381">
        <ele>1741</ele>
        <time>2013-01-07T10:54:18.000Z</time>
      </trkpt>
      <trkpt lat="45.69204" lon="6.25367">
        <ele>1739.5999755859</ele>
        <time>2013-01-07T10:54:26.000Z</time>
      </trkpt>
      <trkpt lat="45.69193" lon="6.25362">
        <ele>1738.5999755859</ele>
        <time>2013-01-07T10:54:31.000Z</time>
      </trkpt>
      <trkpt lat="45.6919" lon="6.25361">
        <ele>1738.5999755859</ele>
        <time>2013-01-07T10:54:35.000Z</time>
      </trkpt>
      <trkpt lat="45.69185" lon="6.25357">
        <ele>1739</ele>
        <time>2013-01-07T10:54:41.000Z</time>
      </trkpt>
      <trkpt lat="45.69181" lon="6.25353">
        <ele>1739</ele>
        <time>2013-01-07T10:54:48.000Z</time>
      </trkpt>
      <trkpt lat="45.69181" lon="6.25353">
        <ele>1739.5999755859</ele>
        <time>2013-01-07T10:54:55.000Z</time>
      </trkpt>
      <trkpt lat="45.69179" lon="6.25351">
        <ele>1738.1999511719</ele>
        <time>2013-01-07T10:55:05.000Z</time>
      </trkpt>
      <trkpt lat="45.69179" lon="6.25351">
        <ele>1737.5999755859</ele>
        <time>2013-01-07T10:55:11.000Z</time>
      </trkpt>
      <trkpt lat="45.69179" lon="6.25352">
        <ele>1738.5999755859</ele>
        <time>2013-01-07T10:55:21.000Z</time>
      </trkpt>
      <trkpt lat="45.69179" lon="6.25352">
        <ele>1738.5999755859</ele>
        <time>2013-01-07T10:55:29.000Z</time>
      </trkpt>
      <trkpt lat="45.69179" lon="6.25352">
        <ele>1739</ele>
        <time>2013-01-07T10:55:37.000Z</time>
      </trkpt>
      <trkpt lat="45.69179" lon="6.25351">
        <ele>1739.5999755859</ele>
        <time>2013-01-07T10:55:43.000Z</time>
      </trkpt>
      <trkpt lat="45.69179" lon="6.25351">
        <ele>1739</ele>
        <time>2013-01-07T10:55:51.000Z</time>
      </trkpt>
      <trkpt lat="45.69179" lon="6.25352">
        <ele>1739</ele>
        <time>2013-01-07T10:55:57.000Z</time>
      </trkpt>
      <trkpt lat="45.69179" lon="6.25352">
        <ele>1739.5999755859</ele>
        <time>2013-01-07T10:56:03.000Z</time>
      </trkpt>
      <trkpt lat="45.69179" lon="6.25352">
        <ele>1740.5999755859</ele>
        <time>2013-01-07T10:56:30.000Z</time>
      </trkpt>
      <trkpt lat="45.69179" lon="6.25351">
        <ele>1739.5999755859</ele>
        <time>2013-01-07T10:56:41.000Z</time>
      </trkpt>
      <trkpt lat="45.69179" lon="6.25352">
        <ele>1739.5999755859</ele>
        <time>2013-01-07T10:56:48.000Z</time>
      </trkpt>
      <trkpt lat="45.69179" lon="6.25352">
        <ele>1740</ele>
        <time>2013-01-07T10:56:54.000Z</time>
      </trkpt>
      <trkpt lat="45.69179" lon="6.25353">
        <ele>1739</ele>
        <time>2013-01-07T10:57:09.000Z</time>
      </trkpt>
      <trkpt lat="45.6918" lon="6.25353">
        <ele>1738.1999511719</ele>
        <time>2013-01-07T10:57:21.000Z</time>
      </trkpt>
      <trkpt lat="45.69179" lon="6.25353">
        <ele>1738.1999511719</ele>
        <time>2013-01-07T10:57:29.000Z</time>
      </trkpt>
      <trkpt lat="45.69179" lon="6.25353">
        <ele>1738.5999755859</ele>
        <time>2013-01-07T10:57:37.000Z</time>
      </trkpt>
      <trkpt lat="45.69178" lon="6.25353">
        <ele>1739.5999755859</ele>
        <time>2013-01-07T10:57:53.000Z</time>
      </trkpt>
      <trkpt lat="45.69179" lon="6.25353">
        <ele>1739</ele>
        <time>2013-01-07T10:58:07.000Z</time>
      </trkpt>
      <trkpt lat="45.69179" lon="6.25353">
        <ele>1740.5999755859</ele>
        <time>2013-01-07T10:58:14.000Z</time>
      </trkpt>
      <trkpt lat="45.69178" lon="6.25352">
        <ele>1741.4000244141</ele>
        <time>2013-01-07T10:58:26.000Z</time>
      </trkpt>
      <trkpt lat="45.69178" lon="6.25352">
        <ele>1742</ele>
        <time>2013-01-07T10:58:37.000Z</time>
      </trkpt>
      <trkpt lat="45.69178" lon="6.25352">
        <ele>1741.4000244141</ele>
        <time>2013-01-07T10:58:43.000Z</time>
      </trkpt>
      <trkpt lat="45.69178" lon="6.25351">
        <ele>1741</ele>
        <time>2013-01-07T10:58:48.000Z</time>
      </trkpt>
      <trkpt lat="45.69178" lon="6.25352">
        <ele>1741.4000244141</ele>
        <time>2013-01-07T10:58:57.000Z</time>
      </trkpt>
      <trkpt lat="45.69178" lon="6.25352">
        <ele>1741.4000244141</ele>
        <time>2013-01-07T10:59:03.000Z</time>
      </trkpt>
      <trkpt lat="45.69177" lon="6.25352">
        <ele>1741.4000244141</ele>
        <time>2013-01-07T10:59:10.000Z</time>
      </trkpt>
      <trkpt lat="45.69177" lon="6.25352">
        <ele>1741.4000244141</ele>
        <time>2013-01-07T10:59:22.000Z</time>
      </trkpt>
      <trkpt lat="45.69179" lon="6.25352">
        <ele>1741.4000244141</ele>
        <time>2013-01-07T10:59:49.000Z</time>
      </trkpt>
      <trkpt lat="45.69179" lon="6.25353">
        <ele>1742</ele>
        <time>2013-01-07T11:00:10.000Z</time>
      </trkpt>
      <trkpt lat="45.69179" lon="6.25353">
        <ele>1742.4000244141</ele>
        <time>2013-01-07T11:00:29.000Z</time>
      </trkpt>
      <trkpt lat="45.69177" lon="6.25355">
        <ele>1740.5999755859</ele>
        <time>2013-01-07T11:00:49.000Z</time>
      </trkpt>
      <trkpt lat="45.69177" lon="6.25356">
        <ele>1741</ele>
        <time>2013-01-07T11:00:58.000Z</time>
      </trkpt>
      <trkpt lat="45.69178" lon="6.25355">
        <ele>1740.5999755859</ele>
        <time>2013-01-07T11:01:04.000Z</time>
      </trkpt>
      <trkpt lat="45.69178" lon="6.25354">
        <ele>1741.4000244141</ele>
        <time>2013-01-07T11:01:10.000Z</time>
      </trkpt>
      <trkpt lat="45.69179" lon="6.25355">
        <ele>1741</ele>
        <time>2013-01-07T11:01:16.000Z</time>
      </trkpt>
      <trkpt lat="45.69178" lon="6.25353">
        <ele>1741.4000244141</ele>
        <time>2013-01-07T11:01:23.000Z</time>
      </trkpt>
      <trkpt lat="45.69178" lon="6.25353">
        <ele>1741.4000244141</ele>
        <time>2013-01-07T11:01:29.000Z</time>
      </trkpt>
      <trkpt lat="45.69178" lon="6.25353">
        <ele>1741</ele>
        <time>2013-01-07T11:01:43.000Z</time>
      </trkpt>
      <trkpt lat="45.69177" lon="6.25353">
        <ele>1741</ele>
        <time>2013-01-07T11:01:50.000Z</time>
      </trkpt>
      <trkpt lat="45.69176" lon="6.25353">
        <ele>1741</ele>
        <time>2013-01-07T11:01:58.000Z</time>
      </trkpt>
      <trkpt lat="45.69176" lon="6.25353">
        <ele>1740.5999755859</ele>
        <time>2013-01-07T11:02:11.000Z</time>
      </trkpt>
      <trkpt lat="45.69176" lon="6.25353">
        <ele>1740</ele>
        <time>2013-01-07T11:02:29.000Z</time>
      </trkpt>
      <trkpt lat="45.69177" lon="6.25352">
        <ele>1740.5999755859</ele>
        <time>2013-01-07T11:02:49.000Z</time>
      </trkpt>
      <trkpt lat="45.69177" lon="6.25351">
        <ele>1740.5999755859</ele>
        <time>2013-01-07T11:02:58.000Z</time>
      </trkpt>
      <trkpt lat="45.69176" lon="6.25352">
        <ele>1739.5999755859</ele>
        <time>2013-01-07T11:03:13.000Z</time>
      </trkpt>
      <trkpt lat="45.69172" lon="6.25355">
        <ele>1740</ele>
        <time>2013-01-07T11:03:18.000Z</time>
      </trkpt>
      <trkpt lat="45.69168" lon="6.25357">
        <ele>1742</ele>
        <time>2013-01-07T11:03:22.000Z</time>
      </trkpt>
      <trkpt lat="45.69165" lon="6.25356">
        <ele>1742.4000244141</ele>
        <time>2013-01-07T11:03:25.000Z</time>
      </trkpt>
      <trkpt lat="45.69159" lon="6.25356">
        <ele>1743</ele>
        <time>2013-01-07T11:03:31.000Z</time>
      </trkpt>
      <trkpt lat="45.69156" lon="6.25356">
        <ele>1743.4000244141</ele>
        <time>2013-01-07T11:03:33.000Z</time>
      </trkpt>
      <trkpt lat="45.6915" lon="6.25357">
        <ele>1744.4000244141</ele>
        <time>2013-01-07T11:03:38.000Z</time>
      </trkpt>
      <trkpt lat="45.69145" lon="6.25358">
        <ele>1744.8000488281</ele>
        <time>2013-01-07T11:03:44.000Z</time>
      </trkpt>
      <trkpt lat="45.69144" lon="6.25358">
        <ele>1745.4000244141</ele>
        <time>2013-01-07T11:03:45.000Z</time>
      </trkpt>
      <trkpt lat="45.69138" lon="6.2536">
        <ele>1745.8000488281</ele>
        <time>2013-01-07T11:03:51.000Z</time>
      </trkpt>
      <trkpt lat="45.69136" lon="6.2536">
        <ele>1745.8000488281</ele>
        <time>2013-01-07T11:03:52.000Z</time>
      </trkpt>
      <trkpt lat="45.69129" lon="6.25359">
        <ele>1747.1999511719</ele>
        <time>2013-01-07T11:03:58.000Z</time>
      </trkpt>
      <trkpt lat="45.69122" lon="6.25361">
        <ele>1747.8000488281</ele>
        <time>2013-01-07T11:04:04.000Z</time>
      </trkpt>
      <trkpt lat="45.69116" lon="6.25361">
        <ele>1747.8000488281</ele>
        <time>2013-01-07T11:04:10.000Z</time>
      </trkpt>
      <trkpt lat="45.69111" lon="6.2536">
        <ele>1747.8000488281</ele>
        <time>2013-01-07T11:04:15.000Z</time>
      </trkpt>
      <trkpt lat="45.69109" lon="6.2536">
        <ele>1747.8000488281</ele>
        <time>2013-01-07T11:04:16.000Z</time>
      </trkpt>
      <trkpt lat="45.69104" lon="6.25359">
        <ele>1747.8000488281</ele>
        <time>2013-01-07T11:04:22.000Z</time>
      </trkpt>
      <trkpt lat="45.69104" lon="6.25359">
        <ele>1748.1999511719</ele>
        <time>2013-01-07T11:04:30.000Z</time>
      </trkpt>
      <trkpt lat="45.69105" lon="6.25357">
        <ele>1747.8000488281</ele>
        <time>2013-01-07T11:04:36.000Z</time>
      </trkpt>
      <trkpt lat="45.69105" lon="6.25357">
        <ele>1746.8000488281</ele>
        <time>2013-01-07T11:05:11.000Z</time>
      </trkpt>
      <trkpt lat="45.69105" lon="6.25357">
        <ele>1746.1999511719</ele>
        <time>2013-01-07T11:05:17.000Z</time>
      </trkpt>
      <trkpt lat="45.69101" lon="6.25358">
        <ele>1746.8000488281</ele>
        <time>2013-01-07T11:05:28.000Z</time>
      </trkpt>
      <trkpt lat="45.69088" lon="6.25361">
        <ele>1748.1999511719</ele>
        <time>2013-01-07T11:05:39.000Z</time>
      </trkpt>
      <trkpt lat="45.6908" lon="6.25363">
        <ele>1749.1999511719</ele>
        <time>2013-01-07T11:05:44.000Z</time>
      </trkpt>
      <trkpt lat="45.69077" lon="6.25362">
        <ele>1749.1999511719</ele>
        <time>2013-01-07T11:05:46.000Z</time>
      </trkpt>
      <trkpt lat="45.69073" lon="6.25363">
        <ele>1750.1999511719</ele>
        <time>2013-01-07T11:05:51.000Z</time>
      </trkpt>
      <trkpt lat="45.6907" lon="6.25363">
        <ele>1749.5999755859</ele>
        <time>2013-01-07T11:06:03.000Z</time>
      </trkpt>
      <trkpt lat="45.69066" lon="6.25364">
        <ele>1750.1999511719</ele>
        <time>2013-01-07T11:06:06.000Z</time>
      </trkpt>
      <trkpt lat="45.69061" lon="6.25364">
        <ele>1750.1999511719</ele>
        <time>2013-01-07T11:06:09.000Z</time>
      </trkpt>
      <trkpt lat="45.69053" lon="6.25367">
        <ele>1750.5999755859</ele>
        <time>2013-01-07T11:06:16.000Z</time>
      </trkpt>
      <trkpt lat="45.69047" lon="6.25369">
        <ele>1751.5999755859</ele>
        <time>2013-01-07T11:06:20.000Z</time>
      </trkpt>
      <trkpt lat="45.69044" lon="6.25368">
        <ele>1752</ele>
        <time>2013-01-07T11:06:25.000Z</time>
      </trkpt>
      <trkpt lat="45.69045" lon="6.2537">
        <ele>1751</ele>
        <time>2013-01-07T11:06:33.000Z</time>
      </trkpt>
      <trkpt lat="45.69046" lon="6.25371">
        <ele>1751</ele>
        <time>2013-01-07T11:06:39.000Z</time>
      </trkpt>
      <trkpt lat="45.69048" lon="6.25369">
        <ele>1751</ele>
        <time>2013-01-07T11:06:51.000Z</time>
      </trkpt>
      <trkpt lat="45.69048" lon="6.25369">
        <ele>1751</ele>
        <time>2013-01-07T11:07:04.000Z</time>
      </trkpt>
      <trkpt lat="45.69049" lon="6.25369">
        <ele>1750.5999755859</ele>
        <time>2013-01-07T11:07:36.000Z</time>
      </trkpt>
      <trkpt lat="45.69048" lon="6.25369">
        <ele>1750.1999511719</ele>
        <time>2013-01-07T11:07:46.000Z</time>
      </trkpt>
      <trkpt lat="45.69048" lon="6.25369">
        <ele>1750.1999511719</ele>
        <time>2013-01-07T11:07:55.000Z</time>
      </trkpt>
      <trkpt lat="45.69049" lon="6.2537">
        <ele>1749.1999511719</ele>
        <time>2013-01-07T11:08:13.000Z</time>
      </trkpt>
      <trkpt lat="45.69047" lon="6.25369">
        <ele>1749.5999755859</ele>
        <time>2013-01-07T11:08:23.000Z</time>
      </trkpt>
      <trkpt lat="45.69048" lon="6.2537">
        <ele>1750.1999511719</ele>
        <time>2013-01-07T11:08:34.000Z</time>
      </trkpt>
      <trkpt lat="45.69048" lon="6.2537">
        <ele>1751</ele>
        <time>2013-01-07T11:08:40.000Z</time>
      </trkpt>
      <trkpt lat="45.69048" lon="6.2537">
        <ele>1751.5999755859</ele>
        <time>2013-01-07T11:08:45.000Z</time>
      </trkpt>
      <trkpt lat="45.69047" lon="6.2537">
        <ele>1751.5999755859</ele>
        <time>2013-01-07T11:08:50.000Z</time>
      </trkpt>
      <trkpt lat="45.69046" lon="6.2537">
        <ele>1750.5999755859</ele>
        <time>2013-01-07T11:08:56.000Z</time>
      </trkpt>
      <trkpt lat="45.69036" lon="6.25373">
        <ele>1751</ele>
        <time>2013-01-07T11:09:03.000Z</time>
      </trkpt>
      <trkpt lat="45.69031" lon="6.25373">
        <ele>1752</ele>
        <time>2013-01-07T11:09:07.000Z</time>
      </trkpt>
      <trkpt lat="45.69022" lon="6.25371">
        <ele>1754</ele>
        <time>2013-01-07T11:09:14.000Z</time>
      </trkpt>
      <trkpt lat="45.69017" lon="6.25371">
        <ele>1754</ele>
        <time>2013-01-07T11:09:17.000Z</time>
      </trkpt>
      <trkpt lat="45.6901" lon="6.2537">
        <ele>1754.4000244141</ele>
        <time>2013-01-07T11:09:22.000Z</time>
      </trkpt>
      <trkpt lat="45.69005" lon="6.25368">
        <ele>1754.4000244141</ele>
        <time>2013-01-07T11:09:27.000Z</time>
      </trkpt>
      <trkpt lat="45.69001" lon="6.25368">
        <ele>1755</ele>
        <time>2013-01-07T11:09:32.000Z</time>
      </trkpt>
      <trkpt lat="45.68993" lon="6.25368">
        <ele>1755.4000244141</ele>
        <time>2013-01-07T11:09:38.000Z</time>
      </trkpt>
      <trkpt lat="45.68987" lon="6.25367">
        <ele>1755</ele>
        <time>2013-01-07T11:09:44.000Z</time>
      </trkpt>
      <trkpt lat="45.68983" lon="6.25367">
        <ele>1755</ele>
        <time>2013-01-07T11:09:47.000Z</time>
      </trkpt>
      <trkpt lat="45.6898" lon="6.25367">
        <ele>1755.4000244141</ele>
        <time>2013-01-07T11:09:54.000Z</time>
      </trkpt>
      <trkpt lat="45.68977" lon="6.25367">
        <ele>1755.8000488281</ele>
        <time>2013-01-07T11:09:57.000Z</time>
      </trkpt>
      <trkpt lat="45.68971" lon="6.25367">
        <ele>1756.8000488281</ele>
        <time>2013-01-07T11:10:02.000Z</time>
      </trkpt>
      <trkpt lat="45.68962" lon="6.2537">
        <ele>1757.8000488281</ele>
        <time>2013-01-07T11:10:09.000Z</time>
      </trkpt>
      <trkpt lat="45.68959" lon="6.25372">
        <ele>1758.8000488281</ele>
        <time>2013-01-07T11:10:14.000Z</time>
      </trkpt>
      <trkpt lat="45.68951" lon="6.25376">
        <ele>1758.8000488281</ele>
        <time>2013-01-07T11:10:21.000Z</time>
      </trkpt>
      <trkpt lat="45.68945" lon="6.25379">
        <ele>1759.1999511719</ele>
        <time>2013-01-07T11:10:26.000Z</time>
      </trkpt>
      <trkpt lat="45.68944" lon="6.25379">
        <ele>1759.1999511719</ele>
        <time>2013-01-07T11:10:27.000Z</time>
      </trkpt>
      <trkpt lat="45.68938" lon="6.25382">
        <ele>1759.8000488281</ele>
        <time>2013-01-07T11:10:33.000Z</time>
      </trkpt>
      <trkpt lat="45.68932" lon="6.25384">
        <ele>1759.8000488281</ele>
        <time>2013-01-07T11:10:38.000Z</time>
      </trkpt>
      <trkpt lat="45.68925" lon="6.25386">
        <ele>1759.1999511719</ele>
        <time>2013-01-07T11:10:42.000Z</time>
      </trkpt>
      <trkpt lat="45.68918" lon="6.25384">
        <ele>1758.1999511719</ele>
        <time>2013-01-07T11:10:47.000Z</time>
      </trkpt>
      <trkpt lat="45.68913" lon="6.2538">
        <ele>1757.4000244141</ele>
        <time>2013-01-07T11:10:51.000Z</time>
      </trkpt>
      <trkpt lat="45.6891" lon="6.2537">
        <ele>1757.4000244141</ele>
        <time>2013-01-07T11:10:58.000Z</time>
      </trkpt>
      <trkpt lat="45.68909" lon="6.25368">
        <ele>1757.4000244141</ele>
        <time>2013-01-07T11:10:59.000Z</time>
      </trkpt>
      <trkpt lat="45.68904" lon="6.25366">
        <ele>1758.8000488281</ele>
        <time>2013-01-07T11:11:05.000Z</time>
      </trkpt>
      <trkpt lat="45.68898" lon="6.25363">
        <ele>1759.1999511719</ele>
        <time>2013-01-07T11:11:10.000Z</time>
      </trkpt>
      <trkpt lat="45.68896" lon="6.25363">
        <ele>1759.8000488281</ele>
        <time>2013-01-07T11:11:11.000Z</time>
      </trkpt>
      <trkpt lat="45.68893" lon="6.25358">
        <ele>1760.1999511719</ele>
        <time>2013-01-07T11:11:15.000Z</time>
      </trkpt>
      <trkpt lat="45.68889" lon="6.25351">
        <ele>1760.5999755859</ele>
        <time>2013-01-07T11:11:21.000Z</time>
      </trkpt>
      <trkpt lat="45.68887" lon="6.25347">
        <ele>1760.5999755859</ele>
        <time>2013-01-07T11:11:24.000Z</time>
      </trkpt>
      <trkpt lat="45.6888" lon="6.25336">
        <ele>1760.1999511719</ele>
        <time>2013-01-07T11:11:31.000Z</time>
      </trkpt>
      <trkpt lat="45.6888" lon="6.25328">
        <ele>1763</ele>
        <time>2013-01-07T11:11:37.000Z</time>
      </trkpt>
      <trkpt lat="45.6888" lon="6.25324">
        <ele>1765</ele>
        <time>2013-01-07T11:11:41.000Z</time>
      </trkpt>
      <trkpt lat="45.6888" lon="6.2532">
        <ele>1766.4000244141</ele>
        <time>2013-01-07T11:11:45.000Z</time>
      </trkpt>
      <trkpt lat="45.68879" lon="6.25314">
        <ele>1768</ele>
        <time>2013-01-07T11:11:51.000Z</time>
      </trkpt>
      <trkpt lat="45.68876" lon="6.2531">
        <ele>1769.4000244141</ele>
        <time>2013-01-07T11:11:57.000Z</time>
      </trkpt>
      <trkpt lat="45.68872" lon="6.25306">
        <ele>1770.4000244141</ele>
        <time>2013-01-07T11:12:03.000Z</time>
      </trkpt>
      <trkpt lat="45.68867" lon="6.25302">
        <ele>1771.1999511719</ele>
        <time>2013-01-07T11:12:11.000Z</time>
      </trkpt>
      <trkpt lat="45.68863" lon="6.25297">
        <ele>1771.8000488281</ele>
        <time>2013-01-07T11:12:16.000Z</time>
      </trkpt>
      <trkpt lat="45.68858" lon="6.25291">
        <ele>1773.1999511719</ele>
        <time>2013-01-07T11:12:24.000Z</time>
      </trkpt>
      <trkpt lat="45.68853" lon="6.25287">
        <ele>1773.5999755859</ele>
        <time>2013-01-07T11:12:30.000Z</time>
      </trkpt>
      <trkpt lat="45.68849" lon="6.25285">
        <ele>1774.5999755859</ele>
        <time>2013-01-07T11:12:36.000Z</time>
      </trkpt>
      <trkpt lat="45.68845" lon="6.25283">
        <ele>1775.1999511719</ele>
        <time>2013-01-07T11:12:41.000Z</time>
      </trkpt>
      <trkpt lat="45.68841" lon="6.25281">
        <ele>1775.5999755859</ele>
        <time>2013-01-07T11:12:46.000Z</time>
      </trkpt>
      <trkpt lat="45.68837" lon="6.25279">
        <ele>1776.5999755859</ele>
        <time>2013-01-07T11:12:52.000Z</time>
      </trkpt>
      <trkpt lat="45.68831" lon="6.25277">
        <ele>1777.5999755859</ele>
        <time>2013-01-07T11:12:59.000Z</time>
      </trkpt>
      <trkpt lat="45.68827" lon="6.25276">
        <ele>1778</ele>
        <time>2013-01-07T11:13:04.000Z</time>
      </trkpt>
      <trkpt lat="45.68821" lon="6.25275">
        <ele>1778.4000244141</ele>
        <time>2013-01-07T11:13:09.000Z</time>
      </trkpt>
      <trkpt lat="45.68815" lon="6.25274">
        <ele>1780</ele>
        <time>2013-01-07T11:13:16.000Z</time>
      </trkpt>
      <trkpt lat="45.68809" lon="6.25273">
        <ele>1781.4000244141</ele>
        <time>2013-01-07T11:13:22.000Z</time>
      </trkpt>
      <trkpt lat="45.68798" lon="6.25272">
        <ele>1782.4000244141</ele>
        <time>2013-01-07T11:13:31.000Z</time>
      </trkpt>
      <trkpt lat="45.68789" lon="6.25271">
        <ele>1782.8000488281</ele>
        <time>2013-01-07T11:13:38.000Z</time>
      </trkpt>
      <trkpt lat="45.68788" lon="6.25271">
        <ele>1783.1999511719</ele>
        <time>2013-01-07T11:13:40.000Z</time>
      </trkpt>
      <trkpt lat="45.68785" lon="6.25271">
        <ele>1783.1999511719</ele>
        <time>2013-01-07T11:13:43.000Z</time>
      </trkpt>
      <trkpt lat="45.68781" lon="6.2527">
        <ele>1784.1999511719</ele>
        <time>2013-01-07T11:13:48.000Z</time>
      </trkpt>
      <trkpt lat="45.68777" lon="6.2527">
        <ele>1785.5999755859</ele>
        <time>2013-01-07T11:13:53.000Z</time>
      </trkpt>
      <trkpt lat="45.68771" lon="6.25269">
        <ele>1787.1999511719</ele>
        <time>2013-01-07T11:14:00.000Z</time>
      </trkpt>
      <trkpt lat="45.68765" lon="6.25269">
        <ele>1787.5999755859</ele>
        <time>2013-01-07T11:14:06.000Z</time>
      </trkpt>
      <trkpt lat="45.68759" lon="6.25268">
        <ele>1788</ele>
        <time>2013-01-07T11:14:12.000Z</time>
      </trkpt>
      <trkpt lat="45.68759" lon="6.25269">
        <ele>1788</ele>
        <time>2013-01-07T11:14:14.000Z</time>
      </trkpt>
      <trkpt lat="45.68755" lon="6.25268">
        <ele>1791</ele>
        <time>2013-01-07T11:14:20.000Z</time>
      </trkpt>
      <trkpt lat="45.68749" lon="6.25267">
        <ele>1791.4000244141</ele>
        <time>2013-01-07T11:14:26.000Z</time>
      </trkpt>
      <trkpt lat="45.68744" lon="6.25265">
        <ele>1792.4000244141</ele>
        <time>2013-01-07T11:14:32.000Z</time>
      </trkpt>
      <trkpt lat="45.68739" lon="6.25264">
        <ele>1793.4000244141</ele>
        <time>2013-01-07T11:14:38.000Z</time>
      </trkpt>
      <trkpt lat="45.68735" lon="6.25262">
        <ele>1794.4000244141</ele>
        <time>2013-01-07T11:14:43.000Z</time>
      </trkpt>
      <trkpt lat="45.6873" lon="6.25258">
        <ele>1795.1999511719</ele>
        <time>2013-01-07T11:14:49.000Z</time>
      </trkpt>
      <trkpt lat="45.68723" lon="6.2525">
        <ele>1795.8000488281</ele>
        <time>2013-01-07T11:14:56.000Z</time>
      </trkpt>
      <trkpt lat="45.68718" lon="6.25244">
        <ele>1796.8000488281</ele>
        <time>2013-01-07T11:15:03.000Z</time>
      </trkpt>
      <trkpt lat="45.68713" lon="6.25235">
        <ele>1797.1999511719</ele>
        <time>2013-01-07T11:15:10.000Z</time>
      </trkpt>
      <trkpt lat="45.68707" lon="6.25226">
        <ele>1798.5999755859</ele>
        <time>2013-01-07T11:15:18.000Z</time>
      </trkpt>
      <trkpt lat="45.68702" lon="6.25221">
        <ele>1799.1999511719</ele>
        <time>2013-01-07T11:15:24.000Z</time>
      </trkpt>
      <trkpt lat="45.68695" lon="6.25214">
        <ele>1800.1999511719</ele>
        <time>2013-01-07T11:15:32.000Z</time>
      </trkpt>
      <trkpt lat="45.68693" lon="6.25212">
        <ele>1800.5999755859</ele>
        <time>2013-01-07T11:15:34.000Z</time>
      </trkpt>
      <trkpt lat="45.68687" lon="6.25205">
        <ele>1801</ele>
        <time>2013-01-07T11:15:41.000Z</time>
      </trkpt>
      <trkpt lat="45.68682" lon="6.25199">
        <ele>1801.5999755859</ele>
        <time>2013-01-07T11:15:47.000Z</time>
      </trkpt>
      <trkpt lat="45.68676" lon="6.25192">
        <ele>1802</ele>
        <time>2013-01-07T11:15:54.000Z</time>
      </trkpt>
      <trkpt lat="45.6867" lon="6.25186">
        <ele>1802.5999755859</ele>
        <time>2013-01-07T11:16:01.000Z</time>
      </trkpt>
      <trkpt lat="45.68667" lon="6.2518">
        <ele>1803.4000244141</ele>
        <time>2013-01-07T11:16:06.000Z</time>
      </trkpt>
      <trkpt lat="45.68662" lon="6.25173">
        <ele>1804.4000244141</ele>
        <time>2013-01-07T11:16:13.000Z</time>
      </trkpt>
      <trkpt lat="45.68658" lon="6.25168">
        <ele>1805.4000244141</ele>
        <time>2013-01-07T11:16:17.000Z</time>
      </trkpt>
      <trkpt lat="45.68655" lon="6.25165">
        <ele>1805.4000244141</ele>
        <time>2013-01-07T11:16:20.000Z</time>
      </trkpt>
      <trkpt lat="45.68652" lon="6.25161">
        <ele>1806.4000244141</ele>
        <time>2013-01-07T11:16:24.000Z</time>
      </trkpt>
      <trkpt lat="45.6865" lon="6.25159">
        <ele>1806.8000488281</ele>
        <time>2013-01-07T11:16:26.000Z</time>
      </trkpt>
      <trkpt lat="45.68644" lon="6.25154">
        <ele>1807.8000488281</ele>
        <time>2013-01-07T11:16:33.000Z</time>
      </trkpt>
      <trkpt lat="45.68638" lon="6.2515">
        <ele>1808.1999511719</ele>
        <time>2013-01-07T11:16:39.000Z</time>
      </trkpt>
      <trkpt lat="45.68631" lon="6.25145">
        <ele>1809.1999511719</ele>
        <time>2013-01-07T11:16:46.000Z</time>
      </trkpt>
      <trkpt lat="45.68626" lon="6.25143">
        <ele>1809.1999511719</ele>
        <time>2013-01-07T11:16:51.000Z</time>
      </trkpt>
      <trkpt lat="45.6862" lon="6.2514">
        <ele>1810.5999755859</ele>
        <time>2013-01-07T11:16:58.000Z</time>
      </trkpt>
      <trkpt lat="45.68616" lon="6.25138">
        <ele>1811.5999755859</ele>
        <time>2013-01-07T11:17:03.000Z</time>
      </trkpt>
      <trkpt lat="45.6861" lon="6.25136">
        <ele>1812.5999755859</ele>
        <time>2013-01-07T11:17:08.000Z</time>
      </trkpt>
      <trkpt lat="45.68605" lon="6.25134">
        <ele>1813.5999755859</ele>
        <time>2013-01-07T11:17:13.000Z</time>
      </trkpt>
      <trkpt lat="45.68602" lon="6.25133">
        <ele>1814.5999755859</ele>
        <time>2013-01-07T11:17:17.000Z</time>
      </trkpt>
      <trkpt lat="45.68594" lon="6.2513">
        <ele>1815.4000244141</ele>
        <time>2013-01-07T11:17:24.000Z</time>
      </trkpt>
      <trkpt lat="45.6859" lon="6.25128">
        <ele>1816.4000244141</ele>
        <time>2013-01-07T11:17:28.000Z</time>
      </trkpt>
      <trkpt lat="45.68585" lon="6.25126">
        <ele>1817</ele>
        <time>2013-01-07T11:17:33.000Z</time>
      </trkpt>
      <trkpt lat="45.6858" lon="6.25124">
        <ele>1817.8000488281</ele>
        <time>2013-01-07T11:17:38.000Z</time>
      </trkpt>
      <trkpt lat="45.68571" lon="6.25121">
        <ele>1818.4000244141</ele>
        <time>2013-01-07T11:17:45.000Z</time>
      </trkpt>
      <trkpt lat="45.68563" lon="6.25117">
        <ele>1819.4000244141</ele>
        <time>2013-01-07T11:17:53.000Z</time>
      </trkpt>
      <trkpt lat="45.68555" lon="6.25113">
        <ele>1820.1999511719</ele>
        <time>2013-01-07T11:18:00.000Z</time>
      </trkpt>
      <trkpt lat="45.68549" lon="6.25111">
        <ele>1821.1999511719</ele>
        <time>2013-01-07T11:18:06.000Z</time>
      </trkpt>
      <trkpt lat="45.68544" lon="6.25107">
        <ele>1821.8000488281</ele>
        <time>2013-01-07T11:18:12.000Z</time>
      </trkpt>
      <trkpt lat="45.68536" lon="6.25101">
        <ele>1822.1999511719</ele>
        <time>2013-01-07T11:18:18.000Z</time>
      </trkpt>
      <trkpt lat="45.68532" lon="6.25092">
        <ele>1823.1999511719</ele>
        <time>2013-01-07T11:18:25.000Z</time>
      </trkpt>
      <trkpt lat="45.68529" lon="6.25083">
        <ele>1824.5999755859</ele>
        <time>2013-01-07T11:18:32.000Z</time>
      </trkpt>
      <trkpt lat="45.68526" lon="6.25074">
        <ele>1826.5999755859</ele>
        <time>2013-01-07T11:18:39.000Z</time>
      </trkpt>
      <trkpt lat="45.68525" lon="6.25069">
        <ele>1827.5999755859</ele>
        <time>2013-01-07T11:18:42.000Z</time>
      </trkpt>
      <trkpt lat="45.68523" lon="6.25062">
        <ele>1828</ele>
        <time>2013-01-07T11:18:46.000Z</time>
      </trkpt>
      <trkpt lat="45.68521" lon="6.25056">
        <ele>1828</ele>
        <time>2013-01-07T11:18:50.000Z</time>
      </trkpt>
      <trkpt lat="45.68519" lon="6.25051">
        <ele>1829</ele>
        <time>2013-01-07T11:18:53.000Z</time>
      </trkpt>
      <trkpt lat="45.68518" lon="6.25045">
        <ele>1830.4000244141</ele>
        <time>2013-01-07T11:18:56.000Z</time>
      </trkpt>
      <trkpt lat="45.68518" lon="6.25039">
        <ele>1831.4000244141</ele>
        <time>2013-01-07T11:19:00.000Z</time>
      </trkpt>
      <trkpt lat="45.68517" lon="6.25032">
        <ele>1830.8000488281</ele>
        <time>2013-01-07T11:19:05.000Z</time>
      </trkpt>
      <trkpt lat="45.68516" lon="6.25028">
        <ele>1830.8000488281</ele>
        <time>2013-01-07T11:19:07.000Z</time>
      </trkpt>
      <trkpt lat="45.68515" lon="6.25027">
        <ele>1831.4000244141</ele>
        <time>2013-01-07T11:19:08.000Z</time>
      </trkpt>
      <trkpt lat="45.68515" lon="6.25019">
        <ele>1831.8000488281</ele>
        <time>2013-01-07T11:19:14.000Z</time>
      </trkpt>
      <trkpt lat="45.68514" lon="6.25018">
        <ele>1831.8000488281</ele>
        <time>2013-01-07T11:19:15.000Z</time>
      </trkpt>
      <trkpt lat="45.68514" lon="6.25011">
        <ele>1832.4000244141</ele>
        <time>2013-01-07T11:19:20.000Z</time>
      </trkpt>
      <trkpt lat="45.68512" lon="6.25006">
        <ele>1832.4000244141</ele>
        <time>2013-01-07T11:19:24.000Z</time>
      </trkpt>
      <trkpt lat="45.68511" lon="6.25002">
        <ele>1832.4000244141</ele>
        <time>2013-01-07T11:19:27.000Z</time>
      </trkpt>
      <trkpt lat="45.68512" lon="6.24998">
        <ele>1832.8000488281</ele>
        <time>2013-01-07T11:19:32.000Z</time>
      </trkpt>
      <trkpt lat="45.68514" lon="6.24993">
        <ele>1834.8000488281</ele>
        <time>2013-01-07T11:19:37.000Z</time>
      </trkpt>
      <trkpt lat="45.68514" lon="6.24987">
        <ele>1835.1999511719</ele>
        <time>2013-01-07T11:19:41.000Z</time>
      </trkpt>
      <trkpt lat="45.68516" lon="6.24983">
        <ele>1836.1999511719</ele>
        <time>2013-01-07T11:19:45.000Z</time>
      </trkpt>
      <trkpt lat="45.68517" lon="6.24979">
        <ele>1836.5999755859</ele>
        <time>2013-01-07T11:19:49.000Z</time>
      </trkpt>
      <trkpt lat="45.68516" lon="6.24975">
        <ele>1837.5999755859</ele>
        <time>2013-01-07T11:19:52.000Z</time>
      </trkpt>
      <trkpt lat="45.68518" lon="6.24972">
        <ele>1838.5999755859</ele>
        <time>2013-01-07T11:19:56.000Z</time>
      </trkpt>
      <trkpt lat="45.6852" lon="6.24966">
        <ele>1840</ele>
        <time>2013-01-07T11:20:01.000Z</time>
      </trkpt>
      <trkpt lat="45.6852" lon="6.24961">
        <ele>1840.4000244141</ele>
        <time>2013-01-07T11:20:06.000Z</time>
      </trkpt>
      <trkpt lat="45.68522" lon="6.24955">
        <ele>1842</ele>
        <time>2013-01-07T11:20:12.000Z</time>
      </trkpt>
      <trkpt lat="45.68522" lon="6.2495">
        <ele>1842.4000244141</ele>
        <time>2013-01-07T11:20:16.000Z</time>
      </trkpt>
      <trkpt lat="45.68522" lon="6.24946">
        <ele>1842.8000488281</ele>
        <time>2013-01-07T11:20:20.000Z</time>
      </trkpt>
      <trkpt lat="45.68523" lon="6.24942">
        <ele>1842.8000488281</ele>
        <time>2013-01-07T11:20:24.000Z</time>
      </trkpt>
      <trkpt lat="45.68526" lon="6.24937">
        <ele>1843.8000488281</ele>
        <time>2013-01-07T11:20:29.000Z</time>
      </trkpt>
      <trkpt lat="45.68527" lon="6.24933">
        <ele>1843.8000488281</ele>
        <time>2013-01-07T11:20:34.000Z</time>
      </trkpt>
      <trkpt lat="45.68529" lon="6.24928">
        <ele>1844.4000244141</ele>
        <time>2013-01-07T11:20:39.000Z</time>
      </trkpt>
      <trkpt lat="45.68532" lon="6.24923">
        <ele>1844.8000488281</ele>
        <time>2013-01-07T11:20:45.000Z</time>
      </trkpt>
      <trkpt lat="45.68535" lon="6.24915">
        <ele>1847.1999511719</ele>
        <time>2013-01-07T11:20:53.000Z</time>
      </trkpt>
      <trkpt lat="45.68536" lon="6.2491">
        <ele>1848.1999511719</ele>
        <time>2013-01-07T11:20:57.000Z</time>
      </trkpt>
      <trkpt lat="45.6854" lon="6.24904">
        <ele>1849.5999755859</ele>
        <time>2013-01-07T11:21:03.000Z</time>
      </trkpt>
      <trkpt lat="45.68541" lon="6.249">
        <ele>1850.5999755859</ele>
        <time>2013-01-07T11:21:07.000Z</time>
      </trkpt>
      <trkpt lat="45.68544" lon="6.24896">
        <ele>1851</ele>
        <time>2013-01-07T11:21:13.000Z</time>
      </trkpt>
      <trkpt lat="45.68548" lon="6.24892">
        <ele>1855.8000488281</ele>
        <time>2013-01-07T11:21:18.000Z</time>
      </trkpt>
      <trkpt lat="45.68549" lon="6.24893">
        <ele>1857.8000488281</ele>
        <time>2013-01-07T11:21:22.000Z</time>
      </trkpt>
      <trkpt lat="45.68547" lon="6.24893">
        <ele>1859.1999511719</ele>
        <time>2013-01-07T11:21:27.000Z</time>
      </trkpt>
      <trkpt lat="45.68544" lon="6.24894">
        <ele>1860.1999511719</ele>
        <time>2013-01-07T11:21:32.000Z</time>
      </trkpt>
      <trkpt lat="45.68539" lon="6.24895">
        <ele>1862.1999511719</ele>
        <time>2013-01-07T11:21:38.000Z</time>
      </trkpt>
      <trkpt lat="45.68534" lon="6.24896">
        <ele>1862.5999755859</ele>
        <time>2013-01-07T11:21:44.000Z</time>
      </trkpt>
      <trkpt lat="45.68532" lon="6.24897">
        <ele>1863</ele>
        <time>2013-01-07T11:21:48.000Z</time>
      </trkpt>
      <trkpt lat="45.68529" lon="6.24898">
        <ele>1864</ele>
        <time>2013-01-07T11:21:52.000Z</time>
      </trkpt>
      <trkpt lat="45.68525" lon="6.249">
        <ele>1866</ele>
        <time>2013-01-07T11:21:58.000Z</time>
      </trkpt>
      <trkpt lat="45.6852" lon="6.24902">
        <ele>1867.8000488281</ele>
        <time>2013-01-07T11:22:04.000Z</time>
      </trkpt>
      <trkpt lat="45.68515" lon="6.24903">
        <ele>1869.8000488281</ele>
        <time>2013-01-07T11:22:10.000Z</time>
      </trkpt>
      <trkpt lat="45.68512" lon="6.24904">
        <ele>1870.8000488281</ele>
        <time>2013-01-07T11:22:15.000Z</time>
      </trkpt>
      <trkpt lat="45.68508" lon="6.24902">
        <ele>1871.1999511719</ele>
        <time>2013-01-07T11:22:20.000Z</time>
      </trkpt>
      <trkpt lat="45.68511" lon="6.24898">
        <ele>1870.8000488281</ele>
        <time>2013-01-07T11:22:25.000Z</time>
      </trkpt>
      <trkpt lat="45.68512" lon="6.24896">
        <ele>1870.8000488281</ele>
        <time>2013-01-07T11:22:29.000Z</time>
      </trkpt>
      <trkpt lat="45.68514" lon="6.24892">
        <ele>1871.1999511719</ele>
        <time>2013-01-07T11:22:33.000Z</time>
      </trkpt>
      <trkpt lat="45.68517" lon="6.24887">
        <ele>1873.5999755859</ele>
        <time>2013-01-07T11:22:38.000Z</time>
      </trkpt>
      <trkpt lat="45.68522" lon="6.24883">
        <ele>1875.5999755859</ele>
        <time>2013-01-07T11:22:44.000Z</time>
      </trkpt>
      <trkpt lat="45.68525" lon="6.24879">
        <ele>1875.5999755859</ele>
        <time>2013-01-07T11:22:49.000Z</time>
      </trkpt>
      <trkpt lat="45.68528" lon="6.24876">
        <ele>1876.5999755859</ele>
        <time>2013-01-07T11:22:55.000Z</time>
      </trkpt>
      <trkpt lat="45.6853" lon="6.24873">
        <ele>1877</ele>
        <time>2013-01-07T11:22:59.000Z</time>
      </trkpt>
      <trkpt lat="45.68531" lon="6.24868">
        <ele>1877.4000244141</ele>
        <time>2013-01-07T11:23:04.000Z</time>
      </trkpt>
      <trkpt lat="45.68534" lon="6.24863">
        <ele>1878.4000244141</ele>
        <time>2013-01-07T11:23:10.000Z</time>
      </trkpt>
      <trkpt lat="45.68536" lon="6.24856">
        <ele>1880.4000244141</ele>
        <time>2013-01-07T11:23:16.000Z</time>
      </trkpt>
      <trkpt lat="45.68538" lon="6.24852">
        <ele>1881.8000488281</ele>
        <time>2013-01-07T11:23:21.000Z</time>
      </trkpt>
      <trkpt lat="45.6854" lon="6.24849">
        <ele>1883.1999511719</ele>
        <time>2013-01-07T11:23:25.000Z</time>
      </trkpt>
      <trkpt lat="45.68541" lon="6.24845">
        <ele>1883.8000488281</ele>
        <time>2013-01-07T11:23:28.000Z</time>
      </trkpt>
      <trkpt lat="45.68542" lon="6.24839">
        <ele>1884.8000488281</ele>
        <time>2013-01-07T11:23:33.000Z</time>
      </trkpt>
      <trkpt lat="45.68543" lon="6.24837">
        <ele>1885.5999755859</ele>
        <time>2013-01-07T11:23:37.000Z</time>
      </trkpt>
      <trkpt lat="45.68545" lon="6.24834">
        <ele>1886.5999755859</ele>
        <time>2013-01-07T11:23:41.000Z</time>
      </trkpt>
      <trkpt lat="45.68546" lon="6.2483">
        <ele>1888</ele>
        <time>2013-01-07T11:23:47.000Z</time>
      </trkpt>
      <trkpt lat="45.68548" lon="6.24824">
        <ele>1888</ele>
        <time>2013-01-07T11:23:53.000Z</time>
      </trkpt>
      <trkpt lat="45.68548" lon="6.24822">
        <ele>1889.5999755859</ele>
        <time>2013-01-07T11:23:57.000Z</time>
      </trkpt>
      <trkpt lat="45.6855" lon="6.24819">
        <ele>1890.4000244141</ele>
        <time>2013-01-07T11:24:01.000Z</time>
      </trkpt>
      <trkpt lat="45.68549" lon="6.2482">
        <ele>1891.4000244141</ele>
        <time>2013-01-07T11:24:07.000Z</time>
      </trkpt>
      <trkpt lat="45.68549" lon="6.2482">
        <ele>1892</ele>
        <time>2013-01-07T11:24:13.000Z</time>
      </trkpt>
      <trkpt lat="45.68547" lon="6.24819">
        <ele>1892.4000244141</ele>
        <time>2013-01-07T11:24:21.000Z</time>
      </trkpt>
      <trkpt lat="45.68543" lon="6.24822">
        <ele>1893.4000244141</ele>
        <time>2013-01-07T11:24:27.000Z</time>
      </trkpt>
      <trkpt lat="45.68538" lon="6.24824">
        <ele>1895.1999511719</ele>
        <time>2013-01-07T11:24:33.000Z</time>
      </trkpt>
      <trkpt lat="45.68533" lon="6.24827">
        <ele>1896.1999511719</ele>
        <time>2013-01-07T11:24:39.000Z</time>
      </trkpt>
      <trkpt lat="45.68528" lon="6.24828">
        <ele>1898.5999755859</ele>
        <time>2013-01-07T11:24:47.000Z</time>
      </trkpt>
      <trkpt lat="45.68525" lon="6.24829">
        <ele>1900</ele>
        <time>2013-01-07T11:24:52.000Z</time>
      </trkpt>
      <trkpt lat="45.6852" lon="6.24831">
        <ele>1901.5999755859</ele>
        <time>2013-01-07T11:24:59.000Z</time>
      </trkpt>
      <trkpt lat="45.68516" lon="6.24833">
        <ele>1902.4000244141</ele>
        <time>2013-01-07T11:25:05.000Z</time>
      </trkpt>
      <trkpt lat="45.68517" lon="6.24831">
        <ele>1902.4000244141</ele>
        <time>2013-01-07T11:25:10.000Z</time>
      </trkpt>
      <trkpt lat="45.6852" lon="6.24826">
        <ele>1903.4000244141</ele>
        <time>2013-01-07T11:25:15.000Z</time>
      </trkpt>
      <trkpt lat="45.6852" lon="6.24821">
        <ele>1904</ele>
        <time>2013-01-07T11:25:21.000Z</time>
      </trkpt>
      <trkpt lat="45.6852" lon="6.24821">
        <ele>1904.8000488281</ele>
        <time>2013-01-07T11:25:25.000Z</time>
      </trkpt>
      <trkpt lat="45.68516" lon="6.24821">
        <ele>1906.8000488281</ele>
        <time>2013-01-07T11:25:31.000Z</time>
      </trkpt>
      <trkpt lat="45.68513" lon="6.24822">
        <ele>1907.8000488281</ele>
        <time>2013-01-07T11:25:37.000Z</time>
      </trkpt>
      <trkpt lat="45.68509" lon="6.24822">
        <ele>1908.1999511719</ele>
        <time>2013-01-07T11:25:42.000Z</time>
      </trkpt>
      <trkpt lat="45.68506" lon="6.24821">
        <ele>1910.1999511719</ele>
        <time>2013-01-07T11:25:48.000Z</time>
      </trkpt>
      <trkpt lat="45.68506" lon="6.24818">
        <ele>1910.1999511719</ele>
        <time>2013-01-07T11:25:51.000Z</time>
      </trkpt>
      <trkpt lat="45.68507" lon="6.24815">
        <ele>1910.1999511719</ele>
        <time>2013-01-07T11:25:55.000Z</time>
      </trkpt>
      <trkpt lat="45.68507" lon="6.24816">
        <ele>1910.1999511719</ele>
        <time>2013-01-07T11:26:01.000Z</time>
      </trkpt>
      <trkpt lat="45.68505" lon="6.24816">
        <ele>1911.1999511719</ele>
        <time>2013-01-07T11:26:08.000Z</time>
      </trkpt>
      <trkpt lat="45.68503" lon="6.24817">
        <ele>1912.5999755859</ele>
        <time>2013-01-07T11:26:12.000Z</time>
      </trkpt>
      <trkpt lat="45.685" lon="6.24819">
        <ele>1914.5999755859</ele>
        <time>2013-01-07T11:26:18.000Z</time>
      </trkpt>
      <trkpt lat="45.685" lon="6.24819">
        <ele>1915.4000244141</ele>
        <time>2013-01-07T11:26:24.000Z</time>
      </trkpt>
      <trkpt lat="45.685" lon="6.24815">
        <ele>1917</ele>
        <time>2013-01-07T11:26:29.000Z</time>
      </trkpt>
      <trkpt lat="45.68502" lon="6.24811">
        <ele>1917.8000488281</ele>
        <time>2013-01-07T11:26:33.000Z</time>
      </trkpt>
      <trkpt lat="45.68502" lon="6.24805">
        <ele>1918.8000488281</ele>
        <time>2013-01-07T11:26:39.000Z</time>
      </trkpt>
      <trkpt lat="45.68498" lon="6.24801">
        <ele>1920.8000488281</ele>
        <time>2013-01-07T11:26:46.000Z</time>
      </trkpt>
      <trkpt lat="45.68493" lon="6.24798">
        <ele>1920.8000488281</ele>
        <time>2013-01-07T11:26:53.000Z</time>
      </trkpt>
      <trkpt lat="45.68492" lon="6.24797">
        <ele>1920.8000488281</ele>
        <time>2013-01-07T11:26:59.000Z</time>
      </trkpt>
      <trkpt lat="45.68493" lon="6.24798">
        <ele>1919.8000488281</ele>
        <time>2013-01-07T11:27:20.000Z</time>
      </trkpt>
      <trkpt lat="45.68493" lon="6.24798">
        <ele>1919.8000488281</ele>
        <time>2013-01-07T11:27:44.000Z</time>
      </trkpt>
      <trkpt lat="45.68491" lon="6.24799">
        <ele>1919.8000488281</ele>
        <time>2013-01-07T11:27:49.000Z</time>
      </trkpt>
      <trkpt lat="45.68491" lon="6.24799">
        <ele>1920.1999511719</ele>
        <time>2013-01-07T11:28:00.000Z</time>
      </trkpt>
      <trkpt lat="45.68491" lon="6.248">
        <ele>1920.1999511719</ele>
        <time>2013-01-07T11:28:07.000Z</time>
      </trkpt>
      <trkpt lat="45.68488" lon="6.24801">
        <ele>1921.1999511719</ele>
        <time>2013-01-07T11:28:13.000Z</time>
      </trkpt>
      <trkpt lat="45.68487" lon="6.24803">
        <ele>1921.1999511719</ele>
        <time>2013-01-07T11:28:19.000Z</time>
      </trkpt>
      <trkpt lat="45.68487" lon="6.24802">
        <ele>1921.8000488281</ele>
        <time>2013-01-07T11:28:34.000Z</time>
      </trkpt>
      <trkpt lat="45.68486" lon="6.24801">
        <ele>1922.5999755859</ele>
        <time>2013-01-07T11:29:25.000Z</time>
      </trkpt>
      <trkpt lat="45.68485" lon="6.24804">
        <ele>1922.1999511719</ele>
        <time>2013-01-07T11:29:39.000Z</time>
      </trkpt>
      <trkpt lat="45.68481" lon="6.24806">
        <ele>1923.1999511719</ele>
        <time>2013-01-07T11:29:45.000Z</time>
      </trkpt>
      <trkpt lat="45.68479" lon="6.24808">
        <ele>1923.5999755859</ele>
        <time>2013-01-07T11:29:49.000Z</time>
      </trkpt>
      <trkpt lat="45.68477" lon="6.24809">
        <ele>1925</ele>
        <time>2013-01-07T11:29:54.000Z</time>
      </trkpt>
      <trkpt lat="45.68474" lon="6.24811">
        <ele>1925.5999755859</ele>
        <time>2013-01-07T11:29:59.000Z</time>
      </trkpt>
      <trkpt lat="45.68469" lon="6.24812">
        <ele>1926.5999755859</ele>
        <time>2013-01-07T11:30:05.000Z</time>
      </trkpt>
      <trkpt lat="45.68466" lon="6.24813">
        <ele>1927</ele>
        <time>2013-01-07T11:30:11.000Z</time>
      </trkpt>
      <trkpt lat="45.68463" lon="6.24815">
        <ele>1928</ele>
        <time>2013-01-07T11:30:16.000Z</time>
      </trkpt>
      <trkpt lat="45.68459" lon="6.24815">
        <ele>1929</ele>
        <time>2013-01-07T11:30:22.000Z</time>
      </trkpt>
      <trkpt lat="45.68458" lon="6.24816">
        <ele>1929.4000244141</ele>
        <time>2013-01-07T11:30:32.000Z</time>
      </trkpt>
      <trkpt lat="45.68457" lon="6.24817">
        <ele>1929.4000244141</ele>
        <time>2013-01-07T11:31:16.000Z</time>
      </trkpt>
      <trkpt lat="45.68454" lon="6.24819">
        <ele>1930.4000244141</ele>
        <time>2013-01-07T11:31:20.000Z</time>
      </trkpt>
      <trkpt lat="45.68453" lon="6.24823">
        <ele>1931.4000244141</ele>
        <time>2013-01-07T11:31:26.000Z</time>
      </trkpt>
      <trkpt lat="45.68452" lon="6.24827">
        <ele>1932.1999511719</ele>
        <time>2013-01-07T11:31:30.000Z</time>
      </trkpt>
      <trkpt lat="45.68452" lon="6.24831">
        <ele>1934.1999511719</ele>
        <time>2013-01-07T11:31:35.000Z</time>
      </trkpt>
      <trkpt lat="45.68452" lon="6.24835">
        <ele>1935.1999511719</ele>
        <time>2013-01-07T11:31:39.000Z</time>
      </trkpt>
      <trkpt lat="45.6845" lon="6.24837">
        <ele>1936.1999511719</ele>
        <time>2013-01-07T11:31:44.000Z</time>
      </trkpt>
      <trkpt lat="45.6845" lon="6.24837">
        <ele>1936.1999511719</ele>
        <time>2013-01-07T11:31:52.000Z</time>
      </trkpt>
      <trkpt lat="45.6845" lon="6.24837">
        <ele>1936.5999755859</ele>
        <time>2013-01-07T11:32:12.000Z</time>
      </trkpt>
      <trkpt lat="45.68448" lon="6.24839">
        <ele>1937</ele>
        <time>2013-01-07T11:32:18.000Z</time>
      </trkpt>
      <trkpt lat="45.68442" lon="6.24839">
        <ele>1939</ele>
        <time>2013-01-07T11:32:25.000Z</time>
      </trkpt>
      <trkpt lat="45.6844" lon="6.24839">
        <ele>1939.4000244141</ele>
        <time>2013-01-07T11:32:30.000Z</time>
      </trkpt>
      <trkpt lat="45.68436" lon="6.2484">
        <ele>1940.4000244141</ele>
        <time>2013-01-07T11:32:37.000Z</time>
      </trkpt>
      <trkpt lat="45.68433" lon="6.24842">
        <ele>1942</ele>
        <time>2013-01-07T11:32:43.000Z</time>
      </trkpt>
      <trkpt lat="45.68428" lon="6.2484">
        <ele>1942.8000488281</ele>
        <time>2013-01-07T11:32:49.000Z</time>
      </trkpt>
      <trkpt lat="45.68425" lon="6.24838">
        <ele>1943.8000488281</ele>
        <time>2013-01-07T11:32:54.000Z</time>
      </trkpt>
      <trkpt lat="45.68421" lon="6.24841">
        <ele>1944.4000244141</ele>
        <time>2013-01-07T11:33:00.000Z</time>
      </trkpt>
      <trkpt lat="45.68416" lon="6.24846">
        <ele>1945.1999511719</ele>
        <time>2013-01-07T11:33:06.000Z</time>
      </trkpt>
      <trkpt lat="45.68411" lon="6.2485">
        <ele>1945.8000488281</ele>
        <time>2013-01-07T11:33:11.000Z</time>
      </trkpt>
      <trkpt lat="45.68407" lon="6.24861">
        <ele>1945.1999511719</ele>
        <time>2013-01-07T11:33:18.000Z</time>
      </trkpt>
      <trkpt lat="45.68405" lon="6.24872">
        <ele>1945.8000488281</ele>
        <time>2013-01-07T11:33:24.000Z</time>
      </trkpt>
      <trkpt lat="45.68404" lon="6.24873">
        <ele>1945.8000488281</ele>
        <time>2013-01-07T11:33:29.000Z</time>
      </trkpt>
      <trkpt lat="45.68401" lon="6.24873">
        <ele>1945.1999511719</ele>
        <time>2013-01-07T11:33:31.000Z</time>
      </trkpt>
      <trkpt lat="45.68397" lon="6.24873">
        <ele>1944.8000488281</ele>
        <time>2013-01-07T11:33:37.000Z</time>
      </trkpt>
      <trkpt lat="45.68398" lon="6.24873">
        <ele>1944.4000244141</ele>
        <time>2013-01-07T11:33:44.000Z</time>
      </trkpt>
      <trkpt lat="45.68397" lon="6.24873">
        <ele>1944.4000244141</ele>
        <time>2013-01-07T11:33:51.000Z</time>
      </trkpt>
      <trkpt lat="45.68397" lon="6.24873">
        <ele>1943.8000488281</ele>
        <time>2013-01-07T11:33:57.000Z</time>
      </trkpt>
      <trkpt lat="45.68398" lon="6.24873">
        <ele>1943.8000488281</ele>
        <time>2013-01-07T11:34:04.000Z</time>
      </trkpt>
      <trkpt lat="45.68398" lon="6.24874">
        <ele>1944.8000488281</ele>
        <time>2013-01-07T11:34:11.000Z</time>
      </trkpt>
      <trkpt lat="45.68399" lon="6.24874">
        <ele>1944.8000488281</ele>
        <time>2013-01-07T11:34:16.000Z</time>
      </trkpt>
      <trkpt lat="45.68398" lon="6.24875">
        <ele>1944.4000244141</ele>
        <time>2013-01-07T11:34:20.000Z</time>
      </trkpt>
      <trkpt lat="45.68398" lon="6.24874">
        <ele>1944.4000244141</ele>
        <time>2013-01-07T11:34:28.000Z</time>
      </trkpt>
      <trkpt lat="45.68399" lon="6.24874">
        <ele>1944.8000488281</ele>
        <time>2013-01-07T11:34:33.000Z</time>
      </trkpt>
      <trkpt lat="45.68399" lon="6.24874">
        <ele>1944.4000244141</ele>
        <time>2013-01-07T11:34:40.000Z</time>
      </trkpt>
      <trkpt lat="45.684" lon="6.24872">
        <ele>1943.8000488281</ele>
        <time>2013-01-07T11:34:48.000Z</time>
      </trkpt>
      <trkpt lat="45.684" lon="6.24872">
        <ele>1944.4000244141</ele>
        <time>2013-01-07T11:34:58.000Z</time>
      </trkpt>
      <trkpt lat="45.684" lon="6.24872">
        <ele>1945.1999511719</ele>
        <time>2013-01-07T11:35:08.000Z</time>
      </trkpt>
      <trkpt lat="45.684" lon="6.24872">
        <ele>1946.1999511719</ele>
        <time>2013-01-07T11:35:21.000Z</time>
      </trkpt>
      <trkpt lat="45.684" lon="6.24872">
        <ele>1946.8000488281</ele>
        <time>2013-01-07T11:35:32.000Z</time>
      </trkpt>
      <trkpt lat="45.684" lon="6.24871">
        <ele>1945.1999511719</ele>
        <time>2013-01-07T11:35:57.000Z</time>
      </trkpt>
      <trkpt lat="45.68399" lon="6.24871">
        <ele>1944.4000244141</ele>
        <time>2013-01-07T11:36:17.000Z</time>
      </trkpt>
      <trkpt lat="45.684" lon="6.24871">
        <ele>1944.8000488281</ele>
        <time>2013-01-07T11:36:24.000Z</time>
      </trkpt>
      <trkpt lat="45.684" lon="6.24872">
        <ele>1945.1999511719</ele>
        <time>2013-01-07T11:36:34.000Z</time>
      </trkpt>
      <trkpt lat="45.68399" lon="6.24872">
        <ele>1944.8000488281</ele>
        <time>2013-01-07T11:36:44.000Z</time>
      </trkpt>
      <trkpt lat="45.68399" lon="6.24872">
        <ele>1943.8000488281</ele>
        <time>2013-01-07T11:36:57.000Z</time>
      </trkpt>
      <trkpt lat="45.68398" lon="6.24872">
        <ele>1944.4000244141</ele>
        <time>2013-01-07T11:37:03.000Z</time>
      </trkpt>
      <trkpt lat="45.68399" lon="6.24872">
        <ele>1943.8000488281</ele>
        <time>2013-01-07T11:37:10.000Z</time>
      </trkpt>
      <trkpt lat="45.68399" lon="6.24872">
        <ele>1943.4000244141</ele>
        <time>2013-01-07T11:37:21.000Z</time>
      </trkpt>
      <trkpt lat="45.68399" lon="6.24872">
        <ele>1944.4000244141</ele>
        <time>2013-01-07T11:37:30.000Z</time>
      </trkpt>
      <trkpt lat="45.68399" lon="6.24871">
        <ele>1944.4000244141</ele>
        <time>2013-01-07T11:37:38.000Z</time>
      </trkpt>
      <trkpt lat="45.68399" lon="6.24871">
        <ele>1943.8000488281</ele>
        <time>2013-01-07T11:37:45.000Z</time>
      </trkpt>
      <trkpt lat="45.68399" lon="6.24871">
        <ele>1943.4000244141</ele>
        <time>2013-01-07T11:37:56.000Z</time>
      </trkpt>
      <trkpt lat="45.684" lon="6.24873">
        <ele>1943.4000244141</ele>
        <time>2013-01-07T11:38:03.000Z</time>
      </trkpt>
      <trkpt lat="45.684" lon="6.24873">
        <ele>1944.4000244141</ele>
        <time>2013-01-07T11:38:09.000Z</time>
      </trkpt>
      <trkpt lat="45.68399" lon="6.24871">
        <ele>1943.8000488281</ele>
        <time>2013-01-07T11:38:12.000Z</time>
      </trkpt>
      <trkpt lat="45.68399" lon="6.24871">
        <ele>1944.4000244141</ele>
        <time>2013-01-07T11:38:15.000Z</time>
      </trkpt>
      <trkpt lat="45.68399" lon="6.24871">
        <ele>1944.8000488281</ele>
        <time>2013-01-07T11:38:22.000Z</time>
      </trkpt>
      <trkpt lat="45.68399" lon="6.24872">
        <ele>1945.1999511719</ele>
        <time>2013-01-07T11:38:28.000Z</time>
      </trkpt>
      <trkpt lat="45.68399" lon="6.24873">
        <ele>1944.8000488281</ele>
        <time>2013-01-07T11:38:37.000Z</time>
      </trkpt>
      <trkpt lat="45.68399" lon="6.24873">
        <ele>1944.4000244141</ele>
        <time>2013-01-07T11:38:41.000Z</time>
      </trkpt>
      <trkpt lat="45.68399" lon="6.24873">
        <ele>1944.4000244141</ele>
        <time>2013-01-07T11:38:52.000Z</time>
      </trkpt>
      <trkpt lat="45.68399" lon="6.24873">
        <ele>1944.8000488281</ele>
        <time>2013-01-07T11:38:59.000Z</time>
      </trkpt>
      <trkpt lat="45.68399" lon="6.24873">
        <ele>1945.8000488281</ele>
        <time>2013-01-07T11:39:07.000Z</time>
      </trkpt>
      <trkpt lat="45.68399" lon="6.24873">
        <ele>1946.1999511719</ele>
        <time>2013-01-07T11:39:15.000Z</time>
      </trkpt>
      <trkpt lat="45.68398" lon="6.24873">
        <ele>1947.1999511719</ele>
        <time>2013-01-07T11:39:30.000Z</time>
      </trkpt>
      <trkpt lat="45.68398" lon="6.24874">
        <ele>1947.1999511719</ele>
        <time>2013-01-07T11:39:35.000Z</time>
      </trkpt>
      <trkpt lat="45.68398" lon="6.24874">
        <ele>1947.1999511719</ele>
        <time>2013-01-07T11:39:45.000Z</time>
      </trkpt>
      <trkpt lat="45.68398" lon="6.24875">
        <ele>1947.1999511719</ele>
        <time>2013-01-07T11:39:52.000Z</time>
      </trkpt>
      <trkpt lat="45.68401" lon="6.24876">
        <ele>1946.8000488281</ele>
        <time>2013-01-07T11:39:56.000Z</time>
      </trkpt>
      <trkpt lat="45.68402" lon="6.24876">
        <ele>1947.1999511719</ele>
        <time>2013-01-07T11:40:03.000Z</time>
      </trkpt>
      <trkpt lat="45.68403" lon="6.24876">
        <ele>1947.1999511719</ele>
        <time>2013-01-07T11:40:12.000Z</time>
      </trkpt>
      <trkpt lat="45.68403" lon="6.24877">
        <ele>1946.1999511719</ele>
        <time>2013-01-07T11:40:21.000Z</time>
      </trkpt>
      <trkpt lat="45.68403" lon="6.24877">
        <ele>1945.8000488281</ele>
        <time>2013-01-07T11:40:24.000Z</time>
      </trkpt>
      <trkpt lat="45.68402" lon="6.24885">
        <ele>1942.4000244141</ele>
        <time>2013-01-07T11:40:28.000Z</time>
      </trkpt>
      <trkpt lat="45.68406" lon="6.24891">
        <ele>1938</ele>
        <time>2013-01-07T11:40:32.000Z</time>
      </trkpt>
      <trkpt lat="45.68407" lon="6.24891">
        <ele>1938</ele>
        <time>2013-01-07T11:40:38.000Z</time>
      </trkpt>
      <trkpt lat="45.68408" lon="6.24892">
        <ele>1937.5999755859</ele>
        <time>2013-01-07T11:40:43.000Z</time>
      </trkpt>
      <trkpt lat="45.68412" lon="6.24896">
        <ele>1934.5999755859</ele>
        <time>2013-01-07T11:40:48.000Z</time>
      </trkpt>
      <trkpt lat="45.68414" lon="6.24909">
        <ele>1930.8000488281</ele>
        <time>2013-01-07T11:40:52.000Z</time>
      </trkpt>
      <trkpt lat="45.68425" lon="6.24918">
        <ele>1926</ele>
        <time>2013-01-07T11:40:55.000Z</time>
      </trkpt>
      <trkpt lat="45.68429" lon="6.24921">
        <ele>1923.5999755859</ele>
        <time>2013-01-07T11:40:56.000Z</time>
      </trkpt>
      <trkpt lat="45.6844" lon="6.24939">
        <ele>1909.5999755859</ele>
        <time>2013-01-07T11:41:01.000Z</time>
      </trkpt>
      <trkpt lat="45.68453" lon="6.24954">
        <ele>1896.8000488281</ele>
        <time>2013-01-07T11:41:05.000Z</time>
      </trkpt>
      <trkpt lat="45.68467" lon="6.24964">
        <ele>1883.1999511719</ele>
        <time>2013-01-07T11:41:09.000Z</time>
      </trkpt>
      <trkpt lat="45.68471" lon="6.24969">
        <ele>1880.8000488281</ele>
        <time>2013-01-07T11:41:10.000Z</time>
      </trkpt>
      <trkpt lat="45.68485" lon="6.24987">
        <ele>1866</ele>
        <time>2013-01-07T11:41:14.000Z</time>
      </trkpt>
      <trkpt lat="45.6849" lon="6.24999">
        <ele>1855.4000244141</ele>
        <time>2013-01-07T11:41:18.000Z</time>
      </trkpt>
      <trkpt lat="45.68488" lon="6.25001">
        <ele>1853</ele>
        <time>2013-01-07T11:41:26.000Z</time>
      </trkpt>
      <trkpt lat="45.68486" lon="6.24998">
        <ele>1849.5999755859</ele>
        <time>2013-01-07T11:41:50.000Z</time>
      </trkpt>
      <trkpt lat="45.68484" lon="6.24993">
        <ele>1852.4000244141</ele>
        <time>2013-01-07T11:42:06.000Z</time>
      </trkpt>
      <trkpt lat="45.68484" lon="6.24997">
        <ele>1857.4000244141</ele>
        <time>2013-01-07T11:42:22.000Z</time>
      </trkpt>
      <trkpt lat="45.68481" lon="6.24994">
        <ele>1856.8000488281</ele>
        <time>2013-01-07T11:42:52.000Z</time>
      </trkpt>
      <trkpt lat="45.68483" lon="6.24997">
        <ele>1857.4000244141</ele>
        <time>2013-01-07T11:43:36.000Z</time>
      </trkpt>
      <trkpt lat="45.68484" lon="6.25">
        <ele>1858.1999511719</ele>
        <time>2013-01-07T11:44:33.000Z</time>
      </trkpt>
      <trkpt lat="45.68483" lon="6.25001">
        <ele>1858.1999511719</ele>
        <time>2013-01-07T11:44:44.000Z</time>
      </trkpt>
      <trkpt lat="45.68483" lon="6.24994">
        <ele>1851.5999755859</ele>
        <time>2013-01-07T11:45:19.000Z</time>
      </trkpt>
      <trkpt lat="45.68483" lon="6.24994">
        <ele>1850.5999755859</ele>
        <time>2013-01-07T11:45:48.000Z</time>
      </trkpt>
      <trkpt lat="45.68483" lon="6.24998">
        <ele>1852.4000244141</ele>
        <time>2013-01-07T11:45:56.000Z</time>
      </trkpt>
      <trkpt lat="45.68481" lon="6.24997">
        <ele>1849.5999755859</ele>
        <time>2013-01-07T11:46:08.000Z</time>
      </trkpt>
      <trkpt lat="45.68481" lon="6.24998">
        <ele>1849.5999755859</ele>
        <time>2013-01-07T11:46:27.000Z</time>
      </trkpt>
      <trkpt lat="45.68481" lon="6.24996">
        <ele>1849.1999511719</ele>
        <time>2013-01-07T11:46:48.000Z</time>
      </trkpt>
      <trkpt lat="45.68482" lon="6.24997">
        <ele>1850.5999755859</ele>
        <time>2013-01-07T11:46:54.000Z</time>
      </trkpt>
      <trkpt lat="45.68481" lon="6.24994">
        <ele>1849.1999511719</ele>
        <time>2013-01-07T11:47:12.000Z</time>
      </trkpt>
      <trkpt lat="45.6848" lon="6.24997">
        <ele>1848.1999511719</ele>
        <time>2013-01-07T11:47:40.000Z</time>
      </trkpt>
      <trkpt lat="45.68482" lon="6.24997">
        <ele>1855</ele>
        <time>2013-01-07T11:47:54.000Z</time>
      </trkpt>
      <trkpt lat="45.68482" lon="6.24998">
        <ele>1861.5999755859</ele>
        <time>2013-01-07T11:48:07.000Z</time>
      </trkpt>
      <trkpt lat="45.68483" lon="6.24995">
        <ele>1859.1999511719</ele>
        <time>2013-01-07T11:48:14.000Z</time>
      </trkpt>
      <trkpt lat="45.68482" lon="6.24998">
        <ele>1861.5999755859</ele>
        <time>2013-01-07T11:48:40.000Z</time>
      </trkpt>
      <trkpt lat="45.68486" lon="6.24995">
        <ele>1864</ele>
        <time>2013-01-07T11:48:58.000Z</time>
      </trkpt>
      <trkpt lat="45.68485" lon="6.24995">
        <ele>1861.5999755859</ele>
        <time>2013-01-07T11:49:05.000Z</time>
      </trkpt>
      <trkpt lat="45.68483" lon="6.24997">
        <ele>1858.1999511719</ele>
        <time>2013-01-07T11:49:19.000Z</time>
      </trkpt>
      <trkpt lat="45.68482" lon="6.25015">
        <ele>1854</ele>
        <time>2013-01-07T11:49:23.000Z</time>
      </trkpt>
      <trkpt lat="45.68497" lon="6.25044">
        <ele>1846.1999511719</ele>
        <time>2013-01-07T11:49:27.000Z</time>
      </trkpt>
      <trkpt lat="45.68505" lon="6.25052">
        <ele>1843.4000244141</ele>
        <time>2013-01-07T11:49:28.000Z</time>
      </trkpt>
      <trkpt lat="45.68538" lon="6.25096">
        <ele>1830.8000488281</ele>
        <time>2013-01-07T11:49:32.000Z</time>
      </trkpt>
      <trkpt lat="45.68587" lon="6.25125">
        <ele>1820.1999511719</ele>
        <time>2013-01-07T11:49:37.000Z</time>
      </trkpt>
      <trkpt lat="45.68618" lon="6.25137">
        <ele>1815</ele>
        <time>2013-01-07T11:49:40.000Z</time>
      </trkpt>
      <trkpt lat="45.68655" lon="6.25163">
        <ele>1808.8000488281</ele>
        <time>2013-01-07T11:49:44.000Z</time>
      </trkpt>
      <trkpt lat="45.68684" lon="6.25198">
        <ele>1805</ele>
        <time>2013-01-07T11:49:48.000Z</time>
      </trkpt>
      <trkpt lat="45.68704" lon="6.25221">
        <ele>1800.5999755859</ele>
        <time>2013-01-07T11:49:51.000Z</time>
      </trkpt>
      <trkpt lat="45.68731" lon="6.25257">
        <ele>1795.1999511719</ele>
        <time>2013-01-07T11:49:55.000Z</time>
      </trkpt>
      <trkpt lat="45.68746" lon="6.25272">
        <ele>1792</ele>
        <time>2013-01-07T11:49:57.000Z</time>
      </trkpt>
      <trkpt lat="45.68771" lon="6.25301">
        <ele>1789</ele>
        <time>2013-01-07T11:50:01.000Z</time>
      </trkpt>
      <trkpt lat="45.68778" lon="6.25308">
        <ele>1789</ele>
        <time>2013-01-07T11:50:03.000Z</time>
      </trkpt>
      <trkpt lat="45.68782" lon="6.25313">
        <ele>1789.5999755859</ele>
        <time>2013-01-07T11:50:05.000Z</time>
      </trkpt>
      <trkpt lat="45.68783" lon="6.25316">
        <ele>1790</ele>
        <time>2013-01-07T11:50:11.000Z</time>
      </trkpt>
      <trkpt lat="45.68784" lon="6.25315">
        <ele>1791</ele>
        <time>2013-01-07T11:50:25.000Z</time>
      </trkpt>
      <trkpt lat="45.68786" lon="6.25318">
        <ele>1791</ele>
        <time>2013-01-07T11:50:27.000Z</time>
      </trkpt>
      <trkpt lat="45.68795" lon="6.25328">
        <ele>1791</ele>
        <time>2013-01-07T11:50:32.000Z</time>
      </trkpt>
      <trkpt lat="45.68804" lon="6.25339">
        <ele>1791</ele>
        <time>2013-01-07T11:50:38.000Z</time>
      </trkpt>
      <trkpt lat="45.68809" lon="6.25345">
        <ele>1791</ele>
        <time>2013-01-07T11:50:43.000Z</time>
      </trkpt>
      <trkpt lat="45.68817" lon="6.25355">
        <ele>1791</ele>
        <time>2013-01-07T11:50:47.000Z</time>
      </trkpt>
      <trkpt lat="45.68834" lon="6.25377">
        <ele>1790</ele>
        <time>2013-01-07T11:50:54.000Z</time>
      </trkpt>
      <trkpt lat="45.68848" lon="6.25398">
        <ele>1790</ele>
        <time>2013-01-07T11:51:01.000Z</time>
      </trkpt>
      <trkpt lat="45.68855" lon="6.25404">
        <ele>1789</ele>
        <time>2013-01-07T11:51:05.000Z</time>
      </trkpt>
      <trkpt lat="45.68863" lon="6.25415">
        <ele>1788.5999755859</ele>
        <time>2013-01-07T11:51:11.000Z</time>
      </trkpt>
      <trkpt lat="45.68873" lon="6.25426">
        <ele>1786.5999755859</ele>
        <time>2013-01-07T11:51:15.000Z</time>
      </trkpt>
      <trkpt lat="45.68883" lon="6.2543">
        <ele>1784.8000488281</ele>
        <time>2013-01-07T11:51:17.000Z</time>
      </trkpt>
      <trkpt lat="45.68913" lon="6.25408">
        <ele>1777.5999755859</ele>
        <time>2013-01-07T11:51:22.000Z</time>
      </trkpt>
      <trkpt lat="45.68931" lon="6.2538">
        <ele>1770.8000488281</ele>
        <time>2013-01-07T11:51:24.000Z</time>
      </trkpt>
      <trkpt lat="45.68941" lon="6.25373">
        <ele>1769.4000244141</ele>
        <time>2013-01-07T11:51:25.000Z</time>
      </trkpt>
      <trkpt lat="45.68961" lon="6.25363">
        <ele>1765</ele>
        <time>2013-01-07T11:51:27.000Z</time>
      </trkpt>
      <trkpt lat="45.68999" lon="6.25359">
        <ele>1758.1999511719</ele>
        <time>2013-01-07T11:51:31.000Z</time>
      </trkpt>
      <trkpt lat="45.69034" lon="6.25365">
        <ele>1754.4000244141</ele>
        <time>2013-01-07T11:51:35.000Z</time>
      </trkpt>
      <trkpt lat="45.69072" lon="6.2536">
        <ele>1752</ele>
        <time>2013-01-07T11:51:40.000Z</time>
      </trkpt>
      <trkpt lat="45.69107" lon="6.25356">
        <ele>1748.1999511719</ele>
        <time>2013-01-07T11:51:46.000Z</time>
      </trkpt>
      <trkpt lat="45.69125" lon="6.25354">
        <ele>1746.1999511719</ele>
        <time>2013-01-07T11:51:49.000Z</time>
      </trkpt>
      <trkpt lat="45.69169" lon="6.2535">
        <ele>1739.5999755859</ele>
        <time>2013-01-07T11:51:56.000Z</time>
      </trkpt>
      <trkpt lat="45.69208" lon="6.25353">
        <ele>1735.5999755859</ele>
        <time>2013-01-07T11:52:02.000Z</time>
      </trkpt>
      <trkpt lat="45.69244" lon="6.25347">
        <ele>1732.4000244141</ele>
        <time>2013-01-07T11:52:08.000Z</time>
      </trkpt>
      <trkpt lat="45.69286" lon="6.25341">
        <ele>1729</ele>
        <time>2013-01-07T11:52:15.000Z</time>
      </trkpt>
      <trkpt lat="45.69327" lon="6.25338">
        <ele>1725.5999755859</ele>
        <time>2013-01-07T11:52:22.000Z</time>
      </trkpt>
      <trkpt lat="45.6934" lon="6.25345">
        <ele>1725.1999511719</ele>
        <time>2013-01-07T11:52:25.000Z</time>
      </trkpt>
      <trkpt lat="45.69342" lon="6.2535">
        <ele>1725.1999511719</ele>
        <time>2013-01-07T11:52:27.000Z</time>
      </trkpt>
      <trkpt lat="45.69342" lon="6.25351">
        <ele>1725.5999755859</ele>
        <time>2013-01-07T11:52:40.000Z</time>
      </trkpt>
      <trkpt lat="45.69344" lon="6.25353">
        <ele>1725.1999511719</ele>
        <time>2013-01-07T11:52:43.000Z</time>
      </trkpt>
      <trkpt lat="45.69361" lon="6.25345">
        <ele>1723.1999511719</ele>
        <time>2013-01-07T11:52:49.000Z</time>
      </trkpt>
      <trkpt lat="45.69394" lon="6.25325">
        <ele>1720.8000488281</ele>
        <time>2013-01-07T11:52:56.000Z</time>
      </trkpt>
      <trkpt lat="45.69415" lon="6.2533">
        <ele>1718.4000244141</ele>
        <time>2013-01-07T11:53:00.000Z</time>
      </trkpt>
      <trkpt lat="45.69437" lon="6.25342">
        <ele>1713.1999511719</ele>
        <time>2013-01-07T11:53:03.000Z</time>
      </trkpt>
      <trkpt lat="45.69463" lon="6.25363">
        <ele>1705.8000488281</ele>
        <time>2013-01-07T11:53:06.000Z</time>
      </trkpt>
      <trkpt lat="45.695" lon="6.25393">
        <ele>1695.8000488281</ele>
        <time>2013-01-07T11:53:10.000Z</time>
      </trkpt>
      <trkpt lat="45.69508" lon="6.25398">
        <ele>1693.4000244141</ele>
        <time>2013-01-07T11:53:11.000Z</time>
      </trkpt>
      <trkpt lat="45.6953" lon="6.25394">
        <ele>1687.5999755859</ele>
        <time>2013-01-07T11:53:14.000Z</time>
      </trkpt>
      <trkpt lat="45.6955" lon="6.25376">
        <ele>1684.1999511719</ele>
        <time>2013-01-07T11:53:18.000Z</time>
      </trkpt>
      <trkpt lat="45.69561" lon="6.25365">
        <ele>1679</ele>
        <time>2013-01-07T11:53:21.000Z</time>
      </trkpt>
      <trkpt lat="45.69579" lon="6.25376">
        <ele>1671.8000488281</ele>
        <time>2013-01-07T11:53:24.000Z</time>
      </trkpt>
      <trkpt lat="45.69591" lon="6.25378">
        <ele>1666</ele>
        <time>2013-01-07T11:53:26.000Z</time>
      </trkpt>
      <trkpt lat="45.69607" lon="6.25364">
        <ele>1661.5999755859</ele>
        <time>2013-01-07T11:53:31.000Z</time>
      </trkpt>
      <trkpt lat="45.69611" lon="6.25363">
        <ele>1660.1999511719</ele>
        <time>2013-01-07T11:53:35.000Z</time>
      </trkpt>
      <trkpt lat="45.6963" lon="6.25377">
        <ele>1656</ele>
        <time>2013-01-07T11:53:39.000Z</time>
      </trkpt>
      <trkpt lat="45.69648" lon="6.2538">
        <ele>1651.1999511719</ele>
        <time>2013-01-07T11:53:42.000Z</time>
      </trkpt>
      <trkpt lat="45.69653" lon="6.25378">
        <ele>1649.1999511719</ele>
        <time>2013-01-07T11:53:43.000Z</time>
      </trkpt>
      <trkpt lat="45.69656" lon="6.25389">
        <ele>1643.8000488281</ele>
        <time>2013-01-07T11:53:46.000Z</time>
      </trkpt>
      <trkpt lat="45.69666" lon="6.25398">
        <ele>1640</ele>
        <time>2013-01-07T11:53:48.000Z</time>
      </trkpt>
      <trkpt lat="45.69686" lon="6.25412">
        <ele>1633.4000244141</ele>
        <time>2013-01-07T11:53:52.000Z</time>
      </trkpt>
      <trkpt lat="45.69692" lon="6.25417">
        <ele>1630.4000244141</ele>
        <time>2013-01-07T11:53:54.000Z</time>
      </trkpt>
      <trkpt lat="45.69702" lon="6.25433">
        <ele>1625.1999511719</ele>
        <time>2013-01-07T11:53:57.000Z</time>
      </trkpt>
      <trkpt lat="45.69715" lon="6.25452">
        <ele>1619.8000488281</ele>
        <time>2013-01-07T11:54:00.000Z</time>
      </trkpt>
      <trkpt lat="45.69731" lon="6.25455">
        <ele>1615</ele>
        <time>2013-01-07T11:54:03.000Z</time>
      </trkpt>
      <trkpt lat="45.69737" lon="6.25452">
        <ele>1613.5999755859</ele>
        <time>2013-01-07T11:54:06.000Z</time>
      </trkpt>
      <trkpt lat="45.69735" lon="6.25452">
        <ele>1613.5999755859</ele>
        <time>2013-01-07T11:54:16.000Z</time>
      </trkpt>
      <trkpt lat="45.69735" lon="6.25452">
        <ele>1614</ele>
        <time>2013-01-07T11:54:22.000Z</time>
      </trkpt>
      <trkpt lat="45.69741" lon="6.25453">
        <ele>1613.5999755859</ele>
        <time>2013-01-07T11:54:30.000Z</time>
      </trkpt>
      <trkpt lat="45.69744" lon="6.25455">
        <ele>1613.1999511719</ele>
        <time>2013-01-07T11:54:31.000Z</time>
      </trkpt>
      <trkpt lat="45.69756" lon="6.25473">
        <ele>1610.1999511719</ele>
        <time>2013-01-07T11:54:35.000Z</time>
      </trkpt>
      <trkpt lat="45.69761" lon="6.25473">
        <ele>1609.8000488281</ele>
        <time>2013-01-07T11:54:36.000Z</time>
      </trkpt>
      <trkpt lat="45.69777" lon="6.25471">
        <ele>1605.4000244141</ele>
        <time>2013-01-07T11:54:40.000Z</time>
      </trkpt>
      <trkpt lat="45.69785" lon="6.25487">
        <ele>1602.5999755859</ele>
        <time>2013-01-07T11:54:43.000Z</time>
      </trkpt>
      <trkpt lat="45.69804" lon="6.2551">
        <ele>1599.1999511719</ele>
        <time>2013-01-07T11:54:47.000Z</time>
      </trkpt>
      <trkpt lat="45.69842" lon="6.25531">
        <ele>1593.4000244141</ele>
        <time>2013-01-07T11:54:53.000Z</time>
      </trkpt>
      <trkpt lat="45.69874" lon="6.25557">
        <ele>1588.5999755859</ele>
        <time>2013-01-07T11:54:58.000Z</time>
      </trkpt>
      <trkpt lat="45.69881" lon="6.25562">
        <ele>1587.1999511719</ele>
        <time>2013-01-07T11:54:59.000Z</time>
      </trkpt>
      <trkpt lat="45.69912" lon="6.25584">
        <ele>1581.8000488281</ele>
        <time>2013-01-07T11:55:03.000Z</time>
      </trkpt>
      <trkpt lat="45.69938" lon="6.25607">
        <ele>1577</ele>
        <time>2013-01-07T11:55:07.000Z</time>
      </trkpt>
      <trkpt lat="45.6995" lon="6.25622">
        <ele>1575.1999511719</ele>
        <time>2013-01-07T11:55:09.000Z</time>
      </trkpt>
      <trkpt lat="45.69957" lon="6.25639">
        <ele>1570.4000244141</ele>
        <time>2013-01-07T11:55:13.000Z</time>
      </trkpt>
      <trkpt lat="45.69952" lon="6.25662">
        <ele>1565</ele>
        <time>2013-01-07T11:55:16.000Z</time>
      </trkpt>
      <trkpt lat="45.6996" lon="6.2568">
        <ele>1559.1999511719</ele>
        <time>2013-01-07T11:55:19.000Z</time>
      </trkpt>
      <trkpt lat="45.69964" lon="6.25696">
        <ele>1552.5999755859</ele>
        <time>2013-01-07T11:55:22.000Z</time>
      </trkpt>
      <trkpt lat="45.69979" lon="6.25705">
        <ele>1549.1999511719</ele>
        <time>2013-01-07T11:55:24.000Z</time>
      </trkpt>
      <trkpt lat="45.70001" lon="6.25716">
        <ele>1543</ele>
        <time>2013-01-07T11:55:27.000Z</time>
      </trkpt>
      <trkpt lat="45.70004" lon="6.25721">
        <ele>1537.5999755859</ele>
        <time>2013-01-07T11:55:32.000Z</time>
      </trkpt>
      <trkpt lat="45.70004" lon="6.25718">
        <ele>1539.1999511719</ele>
        <time>2013-01-07T11:55:39.000Z</time>
      </trkpt>
      <trkpt lat="45.70004" lon="6.25717">
        <ele>1539.5999755859</ele>
        <time>2013-01-07T11:55:48.000Z</time>
      </trkpt>
      <trkpt lat="45.7001" lon="6.25725">
        <ele>1539.5999755859</ele>
        <time>2013-01-07T11:55:51.000Z</time>
      </trkpt>
      <trkpt lat="45.70023" lon="6.2574">
        <ele>1536.8000488281</ele>
        <time>2013-01-07T11:55:54.000Z</time>
      </trkpt>
      <trkpt lat="45.70049" lon="6.2577">
        <ele>1529.4000244141</ele>
        <time>2013-01-07T11:55:58.000Z</time>
      </trkpt>
      <trkpt lat="45.70069" lon="6.25797">
        <ele>1522.8000488281</ele>
        <time>2013-01-07T11:56:01.000Z</time>
      </trkpt>
      <trkpt lat="45.70097" lon="6.25851">
        <ele>1509.4000244141</ele>
        <time>2013-01-07T11:56:06.000Z</time>
      </trkpt>
      <trkpt lat="45.70103" lon="6.25862">
        <ele>1507.4000244141</ele>
        <time>2013-01-07T11:56:07.000Z</time>
      </trkpt>
      <trkpt lat="45.70119" lon="6.25893">
        <ele>1501.1999511719</ele>
        <time>2013-01-07T11:56:10.000Z</time>
      </trkpt>
      <trkpt lat="45.70146" lon="6.25914">
        <ele>1493</ele>
        <time>2013-01-07T11:56:14.000Z</time>
      </trkpt>
      <trkpt lat="45.70152" lon="6.25917">
        <ele>1491</ele>
        <time>2013-01-07T11:56:15.000Z</time>
      </trkpt>
      <trkpt lat="45.70188" lon="6.25927">
        <ele>1481</ele>
        <time>2013-01-07T11:56:20.000Z</time>
      </trkpt>
      <trkpt lat="45.70223" lon="6.25944">
        <ele>1472.1999511719</ele>
        <time>2013-01-07T11:56:25.000Z</time>
      </trkpt>
      <trkpt lat="45.70221" lon="6.25958">
        <ele>1469</ele>
        <time>2013-01-07T11:56:27.000Z</time>
      </trkpt>
      <trkpt lat="45.70208" lon="6.25966">
        <ele>1464.5999755859</ele>
        <time>2013-01-07T11:56:29.000Z</time>
      </trkpt>
      <trkpt lat="45.70193" lon="6.25982">
        <ele>1459.8000488281</ele>
        <time>2013-01-07T11:56:32.000Z</time>
      </trkpt>
      <trkpt lat="45.702" lon="6.25995">
        <ele>1456</ele>
        <time>2013-01-07T11:56:34.000Z</time>
      </trkpt>
      <trkpt lat="45.70212" lon="6.26002">
        <ele>1451.5999755859</ele>
        <time>2013-01-07T11:56:38.000Z</time>
      </trkpt>
      <trkpt lat="45.70212" lon="6.26003">
        <ele>1453</ele>
        <time>2013-01-07T11:56:45.000Z</time>
      </trkpt>
      <trkpt lat="45.70213" lon="6.26005">
        <ele>1456.4000244141</ele>
        <time>2013-01-07T11:56:52.000Z</time>
      </trkpt>
      <trkpt lat="45.70218" lon="6.26012">
        <ele>1457.4000244141</ele>
        <time>2013-01-07T11:56:58.000Z</time>
      </trkpt>
      <trkpt lat="45.70232" lon="6.26022">
        <ele>1455.4000244141</ele>
        <time>2013-01-07T11:57:01.000Z</time>
      </trkpt>
      <trkpt lat="45.70252" lon="6.26035">
        <ele>1450.5999755859</ele>
        <time>2013-01-07T11:57:04.000Z</time>
      </trkpt>
      <trkpt lat="45.70278" lon="6.26048">
        <ele>1444.8000488281</ele>
        <time>2013-01-07T11:57:07.000Z</time>
      </trkpt>
      <trkpt lat="45.70308" lon="6.26077">
        <ele>1437.1999511719</ele>
        <time>2013-01-07T11:57:11.000Z</time>
      </trkpt>
      <trkpt lat="45.70316" lon="6.26084">
        <ele>1434.8000488281</ele>
        <time>2013-01-07T11:57:12.000Z</time>
      </trkpt>
      <trkpt lat="45.70348" lon="6.26106">
        <ele>1426.5999755859</ele>
        <time>2013-01-07T11:57:16.000Z</time>
      </trkpt>
      <trkpt lat="45.70375" lon="6.26133">
        <ele>1419</ele>
        <time>2013-01-07T11:57:20.000Z</time>
      </trkpt>
      <trkpt lat="45.70415" lon="6.2615">
        <ele>1408.4000244141</ele>
        <time>2013-01-07T11:57:25.000Z</time>
      </trkpt>
      <trkpt lat="45.70444" lon="6.26164">
        <ele>1401.1999511719</ele>
        <time>2013-01-07T11:57:29.000Z</time>
      </trkpt>
      <trkpt lat="45.70462" lon="6.2617">
        <ele>1395.8000488281</ele>
        <time>2013-01-07T11:57:32.000Z</time>
      </trkpt>
      <trkpt lat="45.70461" lon="6.26184">
        <ele>1392.5999755859</ele>
        <time>2013-01-07T11:57:34.000Z</time>
      </trkpt>
      <trkpt lat="45.70444" lon="6.26192">
        <ele>1387.8000488281</ele>
        <time>2013-01-07T11:57:37.000Z</time>
      </trkpt>
      <trkpt lat="45.70422" lon="6.26202">
        <ele>1382.4000244141</ele>
        <time>2013-01-07T11:57:40.000Z</time>
      </trkpt>
      <trkpt lat="45.70412" lon="6.26227">
        <ele>1378.5999755859</ele>
        <time>2013-01-07T11:57:43.000Z</time>
      </trkpt>
      <trkpt lat="45.70421" lon="6.26236">
        <ele>1374.8000488281</ele>
        <time>2013-01-07T11:57:46.000Z</time>
      </trkpt>
      <trkpt lat="45.70421" lon="6.26236">
        <ele>1376.5999755859</ele>
        <time>2013-01-07T11:57:50.000Z</time>
      </trkpt>
      <trkpt lat="45.7042" lon="6.26235">
        <ele>1383.4000244141</ele>
        <time>2013-01-07T11:58:06.000Z</time>
      </trkpt>
      <trkpt lat="45.70433" lon="6.26234">
        <ele>1380.4000244141</ele>
        <time>2013-01-07T11:58:10.000Z</time>
      </trkpt>
      <trkpt lat="45.70445" lon="6.2624">
        <ele>1378</ele>
        <time>2013-01-07T11:58:12.000Z</time>
      </trkpt>
      <trkpt lat="45.70473" lon="6.26265">
        <ele>1370</ele>
        <time>2013-01-07T11:58:16.000Z</time>
      </trkpt>
      <trkpt lat="45.70498" lon="6.26294">
        <ele>1361.1999511719</ele>
        <time>2013-01-07T11:58:20.000Z</time>
      </trkpt>
      <trkpt lat="45.70514" lon="6.2632">
        <ele>1355</ele>
        <time>2013-01-07T11:58:23.000Z</time>
      </trkpt>
      <trkpt lat="45.70523" lon="6.26346">
        <ele>1349.8000488281</ele>
        <time>2013-01-07T11:58:26.000Z</time>
      </trkpt>
      <trkpt lat="45.70535" lon="6.2637">
        <ele>1344</ele>
        <time>2013-01-07T11:58:29.000Z</time>
      </trkpt>
      <trkpt lat="45.70549" lon="6.26394">
        <ele>1338.1999511719</ele>
        <time>2013-01-07T11:58:32.000Z</time>
      </trkpt>
      <trkpt lat="45.70554" lon="6.26401">
        <ele>1335.8000488281</ele>
        <time>2013-01-07T11:58:33.000Z</time>
      </trkpt>
      <trkpt lat="45.70568" lon="6.2643">
        <ele>1329.5999755859</ele>
        <time>2013-01-07T11:58:36.000Z</time>
      </trkpt>
      <trkpt lat="45.70577" lon="6.26475">
        <ele>1321.4000244141</ele>
        <time>2013-01-07T11:58:40.000Z</time>
      </trkpt>
      <trkpt lat="45.70582" lon="6.26502">
        <ele>1315.5999755859</ele>
        <time>2013-01-07T11:58:43.000Z</time>
      </trkpt>
      <trkpt lat="45.70588" lon="6.26534">
        <ele>1308.8000488281</ele>
        <time>2013-01-07T11:58:47.000Z</time>
      </trkpt>
      <trkpt lat="45.70591" lon="6.26561">
        <ele>1303.5999755859</ele>
        <time>2013-01-07T11:58:50.000Z</time>
      </trkpt>
      <trkpt lat="45.70595" lon="6.2658">
        <ele>1298.8000488281</ele>
        <time>2013-01-07T11:58:53.000Z</time>
      </trkpt>
      <trkpt lat="45.70597" lon="6.26588">
        <ele>1296.8000488281</ele>
        <time>2013-01-07T11:58:55.000Z</time>
      </trkpt>
      <trkpt lat="45.70599" lon="6.26592">
        <ele>1300.8000488281</ele>
        <time>2013-01-07T11:59:00.000Z</time>
      </trkpt>
      <trkpt lat="45.70596" lon="6.26594">
        <ele>1298.8000488281</ele>
        <time>2013-01-07T11:59:15.000Z</time>
      </trkpt>
      <trkpt lat="45.70598" lon="6.26599">
        <ele>1305</ele>
        <time>2013-01-07T11:59:22.000Z</time>
      </trkpt>
      <trkpt lat="45.70609" lon="6.26615">
        <ele>1302.5999755859</ele>
        <time>2013-01-07T11:59:26.000Z</time>
      </trkpt>
      <trkpt lat="45.70619" lon="6.26631">
        <ele>1299.8000488281</ele>
        <time>2013-01-07T11:59:29.000Z</time>
      </trkpt>
      <trkpt lat="45.7063" lon="6.26639">
        <ele>1297.8000488281</ele>
        <time>2013-01-07T11:59:31.000Z</time>
      </trkpt>
      <trkpt lat="45.70651" lon="6.26658">
        <ele>1293</ele>
        <time>2013-01-07T11:59:35.000Z</time>
      </trkpt>
      <trkpt lat="45.70664" lon="6.26683">
        <ele>1289.1999511719</ele>
        <time>2013-01-07T11:59:38.000Z</time>
      </trkpt>
      <trkpt lat="45.7068" lon="6.26721">
        <ele>1283.4000244141</ele>
        <time>2013-01-07T11:59:43.000Z</time>
      </trkpt>
      <trkpt lat="45.70689" lon="6.26736">
        <ele>1280</ele>
        <time>2013-01-07T11:59:45.000Z</time>
      </trkpt>
      <trkpt lat="45.70714" lon="6.26756">
        <ele>1274.8000488281</ele>
        <time>2013-01-07T11:59:49.000Z</time>
      </trkpt>
      <trkpt lat="45.70736" lon="6.2678">
        <ele>1270</ele>
        <time>2013-01-07T11:59:53.000Z</time>
      </trkpt>
      <trkpt lat="45.7074" lon="6.2679">
        <ele>1269</ele>
        <time>2013-01-07T11:59:54.000Z</time>
      </trkpt>
      <trkpt lat="45.70751" lon="6.26822">
        <ele>1264.5999755859</ele>
        <time>2013-01-07T11:59:57.000Z</time>
      </trkpt>
      <trkpt lat="45.70767" lon="6.2685">
        <ele>1261.8000488281</ele>
        <time>2013-01-07T12:00:00.000Z</time>
      </trkpt>
      <trkpt lat="45.70778" lon="6.26878">
        <ele>1257.4000244141</ele>
        <time>2013-01-07T12:00:04.000Z</time>
      </trkpt>
      <trkpt lat="45.70807" lon="6.26907">
        <ele>1257.4000244141</ele>
        <time>2013-01-07T12:00:09.000Z</time>
      </trkpt>
      <trkpt lat="45.70824" lon="6.26923">
        <ele>1259.4000244141</ele>
        <time>2013-01-07T12:00:12.000Z</time>
      </trkpt>
      <trkpt lat="45.70845" lon="6.26947">
        <ele>1259.8000488281</ele>
        <time>2013-01-07T12:00:17.000Z</time>
      </trkpt>
      <trkpt lat="45.70849" lon="6.26953">
        <ele>1262.8000488281</ele>
        <time>2013-01-07T12:00:20.000Z</time>
      </trkpt>
      <trkpt lat="45.7085" lon="6.26956">
        <ele>1273.4000244141</ele>
        <time>2013-01-07T12:01:05.000Z</time>
      </trkpt>
      <trkpt lat="45.70853" lon="6.26954">
        <ele>1280</ele>
        <time>2013-01-07T12:01:20.000Z</time>
      </trkpt>
      <trkpt lat="45.70854" lon="6.26955">
        <ele>1274.8000488281</ele>
        <time>2013-01-07T12:01:43.000Z</time>
      </trkpt>
      <trkpt lat="45.70861" lon="6.26956">
        <ele>1276.1999511719</ele>
        <time>2013-01-07T12:01:54.000Z</time>
      </trkpt>
      <trkpt lat="45.70861" lon="6.26958">
        <ele>1267</ele>
        <time>2013-01-07T12:02:06.000Z</time>
      </trkpt>
      <trkpt lat="45.70863" lon="6.26959">
        <ele>1258.8000488281</ele>
        <time>2013-01-07T12:02:11.000Z</time>
      </trkpt>
      <trkpt lat="45.70869" lon="6.26958">
        <ele>1255</ele>
        <time>2013-01-07T12:02:18.000Z</time>
      </trkpt>
      <trkpt lat="45.70874" lon="6.26959">
        <ele>1252.5999755859</ele>
        <time>2013-01-07T12:02:25.000Z</time>
      </trkpt>
      <trkpt lat="45.70877" lon="6.26959">
        <ele>1252.5999755859</ele>
        <time>2013-01-07T12:02:30.000Z</time>
      </trkpt>
      <trkpt lat="45.70882" lon="6.26958">
        <ele>1253.5999755859</ele>
        <time>2013-01-07T12:02:36.000Z</time>
      </trkpt>
      <trkpt lat="45.70888" lon="6.26957">
        <ele>1253.1999511719</ele>
        <time>2013-01-07T12:02:43.000Z</time>
      </trkpt>
      <trkpt lat="45.70894" lon="6.26957">
        <ele>1253.5999755859</ele>
        <time>2013-01-07T12:02:50.000Z</time>
      </trkpt>
      <trkpt lat="45.70899" lon="6.2696">
        <ele>1251.1999511719</ele>
        <time>2013-01-07T12:02:56.000Z</time>
      </trkpt>
      <trkpt lat="45.70901" lon="6.26961">
        <ele>1250.8000488281</ele>
        <time>2013-01-07T12:02:58.000Z</time>
      </trkpt>
      <trkpt lat="45.70909" lon="6.26964">
        <ele>1251.1999511719</ele>
        <time>2013-01-07T12:03:05.000Z</time>
      </trkpt>
      <trkpt lat="45.70912" lon="6.26968">
        <ele>1252.1999511719</ele>
        <time>2013-01-07T12:03:09.000Z</time>
      </trkpt>
      <trkpt lat="45.70916" lon="6.26971">
        <ele>1252.1999511719</ele>
        <time>2013-01-07T12:03:14.000Z</time>
      </trkpt>
      <trkpt lat="45.70921" lon="6.26975">
        <ele>1253.5999755859</ele>
        <time>2013-01-07T12:03:21.000Z</time>
      </trkpt>
      <trkpt lat="45.70927" lon="6.26977">
        <ele>1257</ele>
        <time>2013-01-07T12:03:27.000Z</time>
      </trkpt>
      <trkpt lat="45.70933" lon="6.26986">
        <ele>1254.5999755859</ele>
        <time>2013-01-07T12:03:34.000Z</time>
      </trkpt>
      <trkpt lat="45.70937" lon="6.26992">
        <ele>1253.5999755859</ele>
        <time>2013-01-07T12:03:38.000Z</time>
      </trkpt>
      <trkpt lat="45.70939" lon="6.26993">
        <ele>1253.5999755859</ele>
        <time>2013-01-07T12:03:39.000Z</time>
      </trkpt>
      <trkpt lat="45.70943" lon="6.26997">
        <ele>1254.5999755859</ele>
        <time>2013-01-07T12:03:43.000Z</time>
      </trkpt>
      <trkpt lat="45.70949" lon="6.27001">
        <ele>1256.4000244141</ele>
        <time>2013-01-07T12:03:49.000Z</time>
      </trkpt>
      <trkpt lat="45.70955" lon="6.27004">
        <ele>1257.4000244141</ele>
        <time>2013-01-07T12:03:55.000Z</time>
      </trkpt>
      <trkpt lat="45.70959" lon="6.27006">
        <ele>1257</ele>
        <time>2013-01-07T12:04:00.000Z</time>
      </trkpt>
      <trkpt lat="45.70964" lon="6.27011">
        <ele>1254.5999755859</ele>
        <time>2013-01-07T12:04:07.000Z</time>
      </trkpt>
      <trkpt lat="45.70966" lon="6.27015">
        <ele>1249.8000488281</ele>
        <time>2013-01-07T12:04:15.000Z</time>
      </trkpt>
      <trkpt lat="45.70969" lon="6.27019">
        <ele>1248.4000244141</ele>
        <time>2013-01-07T12:04:21.000Z</time>
      </trkpt>
      <trkpt lat="45.70974" lon="6.27022">
        <ele>1246.8000488281</ele>
        <time>2013-01-07T12:04:27.000Z</time>
      </trkpt>
      <trkpt lat="45.70977" lon="6.27026">
        <ele>1245.4000244141</ele>
        <time>2013-01-07T12:04:30.000Z</time>
      </trkpt>
      <trkpt lat="45.70982" lon="6.27034">
        <ele>1243.5999755859</ele>
        <time>2013-01-07T12:04:37.000Z</time>
      </trkpt>
      <trkpt lat="45.70985" lon="6.27036">
        <ele>1243</ele>
        <time>2013-01-07T12:04:40.000Z</time>
      </trkpt>
      <trkpt lat="45.70992" lon="6.27043">
        <ele>1240.5999755859</ele>
        <time>2013-01-07T12:04:48.000Z</time>
      </trkpt>
      <trkpt lat="45.70998" lon="6.27049">
        <ele>1238.1999511719</ele>
        <time>2013-01-07T12:04:55.000Z</time>
      </trkpt>
      <trkpt lat="45.71004" lon="6.27054">
        <ele>1236.1999511719</ele>
        <time>2013-01-07T12:05:01.000Z</time>
      </trkpt>
      <trkpt lat="45.71009" lon="6.27056">
        <ele>1235.8000488281</ele>
        <time>2013-01-07T12:05:05.000Z</time>
      </trkpt>
      <trkpt lat="45.71017" lon="6.27063">
        <ele>1232.4000244141</ele>
        <time>2013-01-07T12:05:13.000Z</time>
      </trkpt>
      <trkpt lat="45.71027" lon="6.27068">
        <ele>1230</ele>
        <time>2013-01-07T12:05:22.000Z</time>
      </trkpt>
      <trkpt lat="45.71034" lon="6.27073">
        <ele>1228.5999755859</ele>
        <time>2013-01-07T12:05:29.000Z</time>
      </trkpt>
      <trkpt lat="45.7104" lon="6.2708">
        <ele>1228.1999511719</ele>
        <time>2013-01-07T12:05:36.000Z</time>
      </trkpt>
      <trkpt lat="45.71047" lon="6.27082">
        <ele>1226.5999755859</ele>
        <time>2013-01-07T12:05:42.000Z</time>
      </trkpt>
      <trkpt lat="45.71048" lon="6.27083">
        <ele>1226.1999511719</ele>
        <time>2013-01-07T12:05:43.000Z</time>
      </trkpt>
      <trkpt lat="45.71055" lon="6.27088">
        <ele>1224.8000488281</ele>
        <time>2013-01-07T12:05:49.000Z</time>
      </trkpt>
      <trkpt lat="45.71057" lon="6.27089">
        <ele>1224.1999511719</ele>
        <time>2013-01-07T12:05:50.000Z</time>
      </trkpt>
      <trkpt lat="45.71064" lon="6.27093">
        <ele>1222.8000488281</ele>
        <time>2013-01-07T12:05:57.000Z</time>
      </trkpt>
      <trkpt lat="45.71071" lon="6.27097">
        <ele>1223.4000244141</ele>
        <time>2013-01-07T12:06:03.000Z</time>
      </trkpt>
      <trkpt lat="45.71078" lon="6.27099">
        <ele>1224.1999511719</ele>
        <time>2013-01-07T12:06:10.000Z</time>
      </trkpt>
      <trkpt lat="45.71084" lon="6.27101">
        <ele>1225.8000488281</ele>
        <time>2013-01-07T12:06:14.000Z</time>
      </trkpt>
      <trkpt lat="45.7109" lon="6.27105">
        <ele>1223.4000244141</ele>
        <time>2013-01-07T12:06:21.000Z</time>
      </trkpt>
      <trkpt lat="45.71092" lon="6.27107">
        <ele>1221.8000488281</ele>
        <time>2013-01-07T12:06:23.000Z</time>
      </trkpt>
      <trkpt lat="45.711" lon="6.27112">
        <ele>1219.4000244141</ele>
        <time>2013-01-07T12:06:29.000Z</time>
      </trkpt>
      <trkpt lat="45.71105" lon="6.27119">
        <ele>1219</ele>
        <time>2013-01-07T12:06:33.000Z</time>
      </trkpt>
      <trkpt lat="45.71107" lon="6.27119">
        <ele>1218.5999755859</ele>
        <time>2013-01-07T12:06:34.000Z</time>
      </trkpt>
      <trkpt lat="45.7111" lon="6.27119">
        <ele>1218</ele>
        <time>2013-01-07T12:06:37.000Z</time>
      </trkpt>
      <trkpt lat="45.71116" lon="6.27119">
        <ele>1216.5999755859</ele>
        <time>2013-01-07T12:06:43.000Z</time>
      </trkpt>
      <trkpt lat="45.71122" lon="6.27119">
        <ele>1213.8000488281</ele>
        <time>2013-01-07T12:06:49.000Z</time>
      </trkpt>
      <trkpt lat="45.71127" lon="6.27119">
        <ele>1213.1999511719</ele>
        <time>2013-01-07T12:06:53.000Z</time>
      </trkpt>
      <trkpt lat="45.71137" lon="6.27121">
        <ele>1212.1999511719</ele>
        <time>2013-01-07T12:07:01.000Z</time>
      </trkpt>
      <trkpt lat="45.71144" lon="6.27122">
        <ele>1213.1999511719</ele>
        <time>2013-01-07T12:07:07.000Z</time>
      </trkpt>
      <trkpt lat="45.71149" lon="6.27123">
        <ele>1213.1999511719</ele>
        <time>2013-01-07T12:07:11.000Z</time>
      </trkpt>
      <trkpt lat="45.71153" lon="6.27124">
        <ele>1212.8000488281</ele>
        <time>2013-01-07T12:07:15.000Z</time>
      </trkpt>
      <trkpt lat="45.7116" lon="6.27128">
        <ele>1210.8000488281</ele>
        <time>2013-01-07T12:07:21.000Z</time>
      </trkpt>
      <trkpt lat="45.71166" lon="6.2713">
        <ele>1210.8000488281</ele>
        <time>2013-01-07T12:07:27.000Z</time>
      </trkpt>
      <trkpt lat="45.71178" lon="6.27133">
        <ele>1206.4000244141</ele>
        <time>2013-01-07T12:07:35.000Z</time>
      </trkpt>
      <trkpt lat="45.71189" lon="6.27137">
        <ele>1201.1999511719</ele>
        <time>2013-01-07T12:07:44.000Z</time>
      </trkpt>
      <trkpt lat="45.71196" lon="6.27141">
        <ele>1198.4000244141</ele>
        <time>2013-01-07T12:07:50.000Z</time>
      </trkpt>
      <trkpt lat="45.71202" lon="6.27145">
        <ele>1196</ele>
        <time>2013-01-07T12:07:56.000Z</time>
      </trkpt>
      <trkpt lat="45.71207" lon="6.27146">
        <ele>1195</ele>
        <time>2013-01-07T12:08:00.000Z</time>
      </trkpt>
      <trkpt lat="45.7121" lon="6.27144">
        <ele>1195.4000244141</ele>
        <time>2013-01-07T12:08:03.000Z</time>
      </trkpt>
      <trkpt lat="45.7121" lon="6.27145">
        <ele>1196.4000244141</ele>
        <time>2013-01-07T12:08:12.000Z</time>
      </trkpt>
      <trkpt lat="45.71211" lon="6.27148">
        <ele>1196.4000244141</ele>
        <time>2013-01-07T12:08:18.000Z</time>
      </trkpt>
      <trkpt lat="45.71211" lon="6.2715">
        <ele>1195.4000244141</ele>
        <time>2013-01-07T12:08:29.000Z</time>
      </trkpt>
      <trkpt lat="45.71211" lon="6.27151">
        <ele>1194</ele>
        <time>2013-01-07T12:08:49.000Z</time>
      </trkpt>
      <trkpt lat="45.71214" lon="6.27149">
        <ele>1196</ele>
        <time>2013-01-07T12:09:00.000Z</time>
      </trkpt>
      <trkpt lat="45.71215" lon="6.27148">
        <ele>1196.8000488281</ele>
        <time>2013-01-07T12:09:06.000Z</time>
      </trkpt>
      <trkpt lat="45.71219" lon="6.27146">
        <ele>1195.4000244141</ele>
        <time>2013-01-07T12:09:29.000Z</time>
      </trkpt>
      <trkpt lat="45.7123" lon="6.27148">
        <ele>1194</ele>
        <time>2013-01-07T12:09:32.000Z</time>
      </trkpt>
      <trkpt lat="45.71245" lon="6.27159">
        <ele>1192</ele>
        <time>2013-01-07T12:09:35.000Z</time>
      </trkpt>
      <trkpt lat="45.71251" lon="6.27163">
        <ele>1192</ele>
        <time>2013-01-07T12:09:36.000Z</time>
      </trkpt>
      <trkpt lat="45.71276" lon="6.27185">
        <ele>1188.8000488281</ele>
        <time>2013-01-07T12:09:40.000Z</time>
      </trkpt>
      <trkpt lat="45.71282" lon="6.27191">
        <ele>1188.1999511719</ele>
        <time>2013-01-07T12:09:41.000Z</time>
      </trkpt>
      <trkpt lat="45.71312" lon="6.2723">
        <ele>1182</ele>
        <time>2013-01-07T12:09:46.000Z</time>
      </trkpt>
      <trkpt lat="45.71327" lon="6.27264">
        <ele>1176.5999755859</ele>
        <time>2013-01-07T12:09:49.000Z</time>
      </trkpt>
      <trkpt lat="45.71338" lon="6.27318">
        <ele>1170.4000244141</ele>
        <time>2013-01-07T12:09:53.000Z</time>
      </trkpt>
      <trkpt lat="45.71339" lon="6.27331">
        <ele>1169</ele>
        <time>2013-01-07T12:09:54.000Z</time>
      </trkpt>
      <trkpt lat="45.71333" lon="6.27399">
        <ele>1160.4000244141</ele>
        <time>2013-01-07T12:10:00.000Z</time>
      </trkpt>
      <trkpt lat="45.71331" lon="6.27437">
        <ele>1154.5999755859</ele>
        <time>2013-01-07T12:10:03.000Z</time>
      </trkpt>
      <trkpt lat="45.71332" lon="6.27472">
        <ele>1149.8000488281</ele>
        <time>2013-01-07T12:10:06.000Z</time>
      </trkpt>
      <trkpt lat="45.71348" lon="6.27492">
        <ele>1147.4000244141</ele>
        <time>2013-01-07T12:10:11.000Z</time>
      </trkpt>
      <trkpt lat="45.71349" lon="6.27487">
        <ele>1146.4000244141</ele>
        <time>2013-01-07T12:10:13.000Z</time>
      </trkpt>
      <trkpt lat="45.71349" lon="6.27483">
        <ele>1146</ele>
        <time>2013-01-07T12:10:17.000Z</time>
      </trkpt>
      <trkpt lat="45.71349" lon="6.27479">
        <ele>1146.4000244141</ele>
        <time>2013-01-07T12:10:23.000Z</time>
      </trkpt>
      <trkpt lat="45.71348" lon="6.2748">
        <ele>1146.8000488281</ele>
        <time>2013-01-07T12:10:30.000Z</time>
      </trkpt>
      <trkpt lat="45.71348" lon="6.27479">
        <ele>1147.4000244141</ele>
        <time>2013-01-07T12:10:38.000Z</time>
      </trkpt>
      <trkpt lat="45.71348" lon="6.27479">
        <ele>1147.4000244141</ele>
        <time>2013-01-07T12:10:40.000Z</time>
      </trkpt>
    </trkseg>
  </trk>
</gpx>